<?xml version="1.0" encoding="UTF-8" standalone="no" ?>
<gpx xmlns="http://www.topografix.com/GPX/1/1" xmlns:xsi="http://www.w3.org/2001/XMLSchema-instance" xsi:schemaLocation="http://www.topografix.com/GPX/1/1 http://www.topografix.com/GPX/1/1/gpx.xsd" version="1.1" creator="VisuGPX - https://www.visugpx.com">
  <metadata>
    <name>Petite sortie trail derrière Eybens</name>
    <desc><![CDATA[On a remplacé la montée sur le bitume par une montée et descente dans la forêt]]></desc>
  </metadata>
  <trk>
    <name><![CDATA[2011-05-18 Entrainement RAID CAP]]></name>
    <trkseg>
      <trkpt lat="45.15911" lon="5.74711">
        <ele>101</ele>
        <time>2011-05-18T07:22:39Z</time>
      </trkpt>
      <trkpt lat="45.1591" lon="5.74712">
        <ele>101</ele>
        <time>2011-05-18T07:22:40Z</time>
      </trkpt>
      <trkpt lat="45.15909" lon="5.7471">
        <ele>101</ele>
        <time>2011-05-18T07:22:41Z</time>
      </trkpt>
      <trkpt lat="45.15908" lon="5.74709">
        <ele>101</ele>
        <time>2011-05-18T07:22:42Z</time>
      </trkpt>
      <trkpt lat="45.15907" lon="5.7471">
        <ele>101</ele>
        <time>2011-05-18T07:22:43Z</time>
      </trkpt>
      <trkpt lat="45.15907" lon="5.74711">
        <ele>101</ele>
        <time>2011-05-18T07:22:44Z</time>
      </trkpt>
      <trkpt lat="45.15906" lon="5.74712">
        <ele>101</ele>
        <time>2011-05-18T07:22:45Z</time>
      </trkpt>
      <trkpt lat="45.15905" lon="5.74713">
        <ele>101</ele>
        <time>2011-05-18T07:22:46Z</time>
      </trkpt>
      <trkpt lat="45.15904" lon="5.74714">
        <ele>101</ele>
        <time>2011-05-18T07:22:47Z</time>
      </trkpt>
      <trkpt lat="45.15904" lon="5.74716">
        <ele>101</ele>
        <time>2011-05-18T07:22:48Z</time>
      </trkpt>
      <trkpt lat="45.15903" lon="5.74718">
        <ele>101</ele>
        <time>2011-05-18T07:22:49Z</time>
      </trkpt>
      <trkpt lat="45.15905" lon="5.74718">
        <ele>101</ele>
        <time>2011-05-18T07:22:50Z</time>
      </trkpt>
      <trkpt lat="45.15904" lon="5.74723">
        <ele>101</ele>
        <time>2011-05-18T07:22:51Z</time>
      </trkpt>
      <trkpt lat="45.15903" lon="5.74724">
        <ele>101</ele>
        <time>2011-05-18T07:22:52Z</time>
      </trkpt>
      <trkpt lat="45.15903" lon="5.74725">
        <ele>101</ele>
        <time>2011-05-18T07:22:53Z</time>
      </trkpt>
      <trkpt lat="45.15905" lon="5.74724">
        <ele>101</ele>
        <time>2011-05-18T07:22:54Z</time>
      </trkpt>
      <trkpt lat="45.15905" lon="5.74724">
        <ele>101</ele>
        <time>2011-05-18T07:22:55Z</time>
      </trkpt>
      <trkpt lat="45.15906" lon="5.74725">
        <ele>101</ele>
        <time>2011-05-18T07:22:56Z</time>
      </trkpt>
      <trkpt lat="45.15906" lon="5.74727">
        <ele>101</ele>
        <time>2011-05-18T07:22:57Z</time>
      </trkpt>
      <trkpt lat="45.15907" lon="5.74726">
        <ele>101</ele>
        <time>2011-05-18T07:22:58Z</time>
      </trkpt>
      <trkpt lat="45.15908" lon="5.74727">
        <ele>101</ele>
        <time>2011-05-18T07:22:59Z</time>
      </trkpt>
      <trkpt lat="45.1591" lon="5.74727">
        <ele>101</ele>
        <time>2011-05-18T07:23:00Z</time>
      </trkpt>
      <trkpt lat="45.1591" lon="5.74727">
        <ele>101</ele>
        <time>2011-05-18T07:23:01Z</time>
      </trkpt>
      <trkpt lat="45.1591" lon="5.74727">
        <ele>101</ele>
        <time>2011-05-18T07:23:02Z</time>
      </trkpt>
      <trkpt lat="45.15911" lon="5.74727">
        <ele>101</ele>
        <time>2011-05-18T07:23:03Z</time>
      </trkpt>
      <trkpt lat="45.15912" lon="5.74728">
        <ele>101</ele>
        <time>2011-05-18T07:23:04Z</time>
      </trkpt>
      <trkpt lat="45.15913" lon="5.74729">
        <ele>101</ele>
        <time>2011-05-18T07:23:05Z</time>
      </trkpt>
      <trkpt lat="45.15913" lon="5.7473">
        <ele>101</ele>
        <time>2011-05-18T07:23:06Z</time>
      </trkpt>
      <trkpt lat="45.15914" lon="5.74732">
        <ele>101</ele>
        <time>2011-05-18T07:23:07Z</time>
      </trkpt>
      <trkpt lat="45.15914" lon="5.74732">
        <ele>101</ele>
        <time>2011-05-18T07:23:08Z</time>
      </trkpt>
      <trkpt lat="45.15916" lon="5.74734">
        <ele>101</ele>
        <time>2011-05-18T07:23:09Z</time>
      </trkpt>
      <trkpt lat="45.15916" lon="5.74737">
        <ele>101</ele>
        <time>2011-05-18T07:23:10Z</time>
      </trkpt>
      <trkpt lat="45.15916" lon="5.7474">
        <ele>101</ele>
        <time>2011-05-18T07:23:11Z</time>
      </trkpt>
      <trkpt lat="45.15915" lon="5.74744">
        <ele>101</ele>
        <time>2011-05-18T07:23:12Z</time>
      </trkpt>
      <trkpt lat="45.15914" lon="5.74747">
        <ele>101</ele>
        <time>2011-05-18T07:23:13Z</time>
      </trkpt>
      <trkpt lat="45.15914" lon="5.7475">
        <ele>101</ele>
        <time>2011-05-18T07:23:14Z</time>
      </trkpt>
      <trkpt lat="45.15914" lon="5.74753">
        <ele>101</ele>
        <time>2011-05-18T07:23:15Z</time>
      </trkpt>
      <trkpt lat="45.15914" lon="5.74756">
        <ele>101</ele>
        <time>2011-05-18T07:23:16Z</time>
      </trkpt>
      <trkpt lat="45.15915" lon="5.74763">
        <ele>101</ele>
        <time>2011-05-18T07:23:17Z</time>
      </trkpt>
      <trkpt lat="45.15915" lon="5.74765">
        <ele>101</ele>
        <time>2011-05-18T07:23:18Z</time>
      </trkpt>
      <trkpt lat="45.15915" lon="5.74768">
        <ele>101</ele>
        <time>2011-05-18T07:23:19Z</time>
      </trkpt>
      <trkpt lat="45.15915" lon="5.74771">
        <ele>101</ele>
        <time>2011-05-18T07:23:20Z</time>
      </trkpt>
      <trkpt lat="45.15907" lon="5.74782">
        <ele>101</ele>
        <time>2011-05-18T07:23:21Z</time>
      </trkpt>
      <trkpt lat="45.15903" lon="5.7479">
        <ele>101</ele>
        <time>2011-05-18T07:23:22Z</time>
      </trkpt>
      <trkpt lat="45.15901" lon="5.74794">
        <ele>101</ele>
        <time>2011-05-18T07:23:23Z</time>
      </trkpt>
      <trkpt lat="45.15902" lon="5.74796">
        <ele>101</ele>
        <time>2011-05-18T07:23:24Z</time>
      </trkpt>
      <trkpt lat="45.15902" lon="5.74798">
        <ele>101</ele>
        <time>2011-05-18T07:23:25Z</time>
      </trkpt>
      <trkpt lat="45.15904" lon="5.74799">
        <ele>101</ele>
        <time>2011-05-18T07:23:26Z</time>
      </trkpt>
      <trkpt lat="45.15905" lon="5.74801">
        <ele>101</ele>
        <time>2011-05-18T07:23:27Z</time>
      </trkpt>
      <trkpt lat="45.15908" lon="5.74802">
        <ele>101</ele>
        <time>2011-05-18T07:23:28Z</time>
      </trkpt>
      <trkpt lat="45.1591" lon="5.74802">
        <ele>101</ele>
        <time>2011-05-18T07:23:29Z</time>
      </trkpt>
      <trkpt lat="45.1591" lon="5.74803">
        <ele>101</ele>
        <time>2011-05-18T07:23:30Z</time>
      </trkpt>
      <trkpt lat="45.1591" lon="5.74804">
        <ele>101</ele>
        <time>2011-05-18T07:23:31Z</time>
      </trkpt>
      <trkpt lat="45.15911" lon="5.74805">
        <ele>101</ele>
        <time>2011-05-18T07:23:32Z</time>
      </trkpt>
      <trkpt lat="45.15912" lon="5.74806">
        <ele>101</ele>
        <time>2011-05-18T07:23:33Z</time>
      </trkpt>
      <trkpt lat="45.15913" lon="5.74808">
        <ele>101</ele>
        <time>2011-05-18T07:23:34Z</time>
      </trkpt>
      <trkpt lat="45.15914" lon="5.74809">
        <ele>101</ele>
        <time>2011-05-18T07:23:35Z</time>
      </trkpt>
      <trkpt lat="45.15916" lon="5.74811">
        <ele>101</ele>
        <time>2011-05-18T07:23:36Z</time>
      </trkpt>
      <trkpt lat="45.15917" lon="5.74815">
        <ele>101</ele>
        <time>2011-05-18T07:23:37Z</time>
      </trkpt>
      <trkpt lat="45.15918" lon="5.74816">
        <ele>101</ele>
        <time>2011-05-18T07:23:38Z</time>
      </trkpt>
      <trkpt lat="45.1592" lon="5.74818">
        <ele>101</ele>
        <time>2011-05-18T07:23:39Z</time>
      </trkpt>
      <trkpt lat="45.15923" lon="5.7482">
        <ele>101</ele>
        <time>2011-05-18T07:23:40Z</time>
      </trkpt>
      <trkpt lat="45.15924" lon="5.74822">
        <ele>101</ele>
        <time>2011-05-18T07:23:41Z</time>
      </trkpt>
      <trkpt lat="45.15926" lon="5.74824">
        <ele>101</ele>
        <time>2011-05-18T07:23:42Z</time>
      </trkpt>
      <trkpt lat="45.15928" lon="5.74825">
        <ele>101</ele>
        <time>2011-05-18T07:23:43Z</time>
      </trkpt>
      <trkpt lat="45.15929" lon="5.74828">
        <ele>101</ele>
        <time>2011-05-18T07:23:44Z</time>
      </trkpt>
      <trkpt lat="45.15931" lon="5.7483">
        <ele>101</ele>
        <time>2011-05-18T07:23:45Z</time>
      </trkpt>
      <trkpt lat="45.15933" lon="5.74833">
        <ele>101</ele>
        <time>2011-05-18T07:23:46Z</time>
      </trkpt>
      <trkpt lat="45.15934" lon="5.74835">
        <ele>101</ele>
        <time>2011-05-18T07:23:47Z</time>
      </trkpt>
      <trkpt lat="45.15936" lon="5.74838">
        <ele>101</ele>
        <time>2011-05-18T07:23:48Z</time>
      </trkpt>
      <trkpt lat="45.15938" lon="5.7484">
        <ele>101</ele>
        <time>2011-05-18T07:23:49Z</time>
      </trkpt>
      <trkpt lat="45.15941" lon="5.74843">
        <ele>101</ele>
        <time>2011-05-18T07:23:50Z</time>
      </trkpt>
      <trkpt lat="45.15943" lon="5.74844">
        <ele>101</ele>
        <time>2011-05-18T07:23:51Z</time>
      </trkpt>
      <trkpt lat="45.15945" lon="5.74846">
        <ele>101</ele>
        <time>2011-05-18T07:23:52Z</time>
      </trkpt>
      <trkpt lat="45.15946" lon="5.74849">
        <ele>101</ele>
        <time>2011-05-18T07:23:53Z</time>
      </trkpt>
      <trkpt lat="45.15948" lon="5.74851">
        <ele>101</ele>
        <time>2011-05-18T07:23:54Z</time>
      </trkpt>
      <trkpt lat="45.15951" lon="5.74855">
        <ele>101</ele>
        <time>2011-05-18T07:23:55Z</time>
      </trkpt>
      <trkpt lat="45.15953" lon="5.74858">
        <ele>101</ele>
        <time>2011-05-18T07:23:56Z</time>
      </trkpt>
      <trkpt lat="45.15955" lon="5.74862">
        <ele>101</ele>
        <time>2011-05-18T07:23:57Z</time>
      </trkpt>
      <trkpt lat="45.15956" lon="5.74866">
        <ele>101</ele>
        <time>2011-05-18T07:23:58Z</time>
      </trkpt>
      <trkpt lat="45.15957" lon="5.74868">
        <ele>101</ele>
        <time>2011-05-18T07:23:59Z</time>
      </trkpt>
      <trkpt lat="45.15957" lon="5.74871">
        <ele>101</ele>
        <time>2011-05-18T07:24:00Z</time>
      </trkpt>
      <trkpt lat="45.15957" lon="5.74872">
        <ele>101</ele>
        <time>2011-05-18T07:24:01Z</time>
      </trkpt>
      <trkpt lat="45.15958" lon="5.74875">
        <ele>101</ele>
        <time>2011-05-18T07:24:02Z</time>
      </trkpt>
      <trkpt lat="45.15961" lon="5.74879">
        <ele>101</ele>
        <time>2011-05-18T07:24:03Z</time>
      </trkpt>
      <trkpt lat="45.15962" lon="5.74885">
        <ele>101</ele>
        <time>2011-05-18T07:24:04Z</time>
      </trkpt>
      <trkpt lat="45.15962" lon="5.7489">
        <ele>101</ele>
        <time>2011-05-18T07:24:05Z</time>
      </trkpt>
      <trkpt lat="45.15964" lon="5.74892">
        <ele>101</ele>
        <time>2011-05-18T07:24:06Z</time>
      </trkpt>
      <trkpt lat="45.15965" lon="5.74896">
        <ele>101</ele>
        <time>2011-05-18T07:24:07Z</time>
      </trkpt>
      <trkpt lat="45.15966" lon="5.74898">
        <ele>101</ele>
        <time>2011-05-18T07:24:08Z</time>
      </trkpt>
      <trkpt lat="45.15967" lon="5.74901">
        <ele>101</ele>
        <time>2011-05-18T07:24:09Z</time>
      </trkpt>
      <trkpt lat="45.15968" lon="5.74903">
        <ele>101</ele>
        <time>2011-05-18T07:24:10Z</time>
      </trkpt>
      <trkpt lat="45.1597" lon="5.74906">
        <ele>101</ele>
        <time>2011-05-18T07:24:11Z</time>
      </trkpt>
      <trkpt lat="45.15971" lon="5.74909">
        <ele>101</ele>
        <time>2011-05-18T07:24:12Z</time>
      </trkpt>
      <trkpt lat="45.15971" lon="5.74911">
        <ele>101</ele>
        <time>2011-05-18T07:24:13Z</time>
      </trkpt>
      <trkpt lat="45.15972" lon="5.74915">
        <ele>101</ele>
        <time>2011-05-18T07:24:14Z</time>
      </trkpt>
      <trkpt lat="45.15973" lon="5.74919">
        <ele>101</ele>
        <time>2011-05-18T07:24:15Z</time>
      </trkpt>
      <trkpt lat="45.15975" lon="5.74922">
        <ele>101</ele>
        <time>2011-05-18T07:24:16Z</time>
      </trkpt>
      <trkpt lat="45.15976" lon="5.74925">
        <ele>101</ele>
        <time>2011-05-18T07:24:17Z</time>
      </trkpt>
      <trkpt lat="45.15979" lon="5.74927">
        <ele>101</ele>
        <time>2011-05-18T07:24:18Z</time>
      </trkpt>
      <trkpt lat="45.15981" lon="5.74931">
        <ele>101</ele>
        <time>2011-05-18T07:24:19Z</time>
      </trkpt>
      <trkpt lat="45.15984" lon="5.74936">
        <ele>101</ele>
        <time>2011-05-18T07:24:20Z</time>
      </trkpt>
      <trkpt lat="45.15985" lon="5.74938">
        <ele>101</ele>
        <time>2011-05-18T07:24:21Z</time>
      </trkpt>
      <trkpt lat="45.15986" lon="5.7494">
        <ele>101</ele>
        <time>2011-05-18T07:24:22Z</time>
      </trkpt>
      <trkpt lat="45.15984" lon="5.74941">
        <ele>101</ele>
        <time>2011-05-18T07:24:23Z</time>
      </trkpt>
      <trkpt lat="45.15985" lon="5.74944">
        <ele>101</ele>
        <time>2011-05-18T07:24:24Z</time>
      </trkpt>
      <trkpt lat="45.15985" lon="5.74947">
        <ele>101</ele>
        <time>2011-05-18T07:24:25Z</time>
      </trkpt>
      <trkpt lat="45.15986" lon="5.74951">
        <ele>101</ele>
        <time>2011-05-18T07:24:26Z</time>
      </trkpt>
      <trkpt lat="45.15985" lon="5.74954">
        <ele>101</ele>
        <time>2011-05-18T07:24:27Z</time>
      </trkpt>
      <trkpt lat="45.15985" lon="5.74957">
        <ele>101</ele>
        <time>2011-05-18T07:24:28Z</time>
      </trkpt>
      <trkpt lat="45.15985" lon="5.7496">
        <ele>101</ele>
        <time>2011-05-18T07:24:29Z</time>
      </trkpt>
      <trkpt lat="45.15986" lon="5.74962">
        <ele>101</ele>
        <time>2011-05-18T07:24:30Z</time>
      </trkpt>
      <trkpt lat="45.15986" lon="5.74964">
        <ele>101</ele>
        <time>2011-05-18T07:24:31Z</time>
      </trkpt>
      <trkpt lat="45.15987" lon="5.74967">
        <ele>101</ele>
        <time>2011-05-18T07:24:32Z</time>
      </trkpt>
      <trkpt lat="45.15987" lon="5.74969">
        <ele>101</ele>
        <time>2011-05-18T07:24:33Z</time>
      </trkpt>
      <trkpt lat="45.15986" lon="5.74975">
        <ele>101</ele>
        <time>2011-05-18T07:24:35Z</time>
      </trkpt>
      <trkpt lat="45.15984" lon="5.74983">
        <ele>101</ele>
        <time>2011-05-18T07:24:38Z</time>
      </trkpt>
      <trkpt lat="45.15984" lon="5.74984">
        <ele>101</ele>
        <time>2011-05-18T07:24:39Z</time>
      </trkpt>
      <trkpt lat="45.15984" lon="5.74989">
        <ele>101</ele>
        <time>2011-05-18T07:24:42Z</time>
      </trkpt>
      <trkpt lat="45.15984" lon="5.74993">
        <ele>101</ele>
        <time>2011-05-18T07:24:45Z</time>
      </trkpt>
      <trkpt lat="45.15983" lon="5.74995">
        <ele>101</ele>
        <time>2011-05-18T07:24:46Z</time>
      </trkpt>
      <trkpt lat="45.15984" lon="5.74997">
        <ele>101</ele>
        <time>2011-05-18T07:24:47Z</time>
      </trkpt>
      <trkpt lat="45.15984" lon="5.74998">
        <ele>101</ele>
        <time>2011-05-18T07:24:48Z</time>
      </trkpt>
      <trkpt lat="45.15984" lon="5.74999">
        <ele>101</ele>
        <time>2011-05-18T07:24:49Z</time>
      </trkpt>
      <trkpt lat="45.15985" lon="5.75">
        <ele>101</ele>
        <time>2011-05-18T07:24:50Z</time>
      </trkpt>
      <trkpt lat="45.15986" lon="5.75003">
        <ele>101</ele>
        <time>2011-05-18T07:24:51Z</time>
      </trkpt>
      <trkpt lat="45.15986" lon="5.75005">
        <ele>101</ele>
        <time>2011-05-18T07:24:52Z</time>
      </trkpt>
      <trkpt lat="45.15986" lon="5.75007">
        <ele>101</ele>
        <time>2011-05-18T07:24:53Z</time>
      </trkpt>
      <trkpt lat="45.15985" lon="5.7501">
        <ele>101</ele>
        <time>2011-05-18T07:24:54Z</time>
      </trkpt>
      <trkpt lat="45.15984" lon="5.75012">
        <ele>101</ele>
        <time>2011-05-18T07:24:55Z</time>
      </trkpt>
      <trkpt lat="45.15984" lon="5.75015">
        <ele>101</ele>
        <time>2011-05-18T07:24:56Z</time>
      </trkpt>
      <trkpt lat="45.15984" lon="5.75017">
        <ele>101</ele>
        <time>2011-05-18T07:24:57Z</time>
      </trkpt>
      <trkpt lat="45.15985" lon="5.75019">
        <ele>101</ele>
        <time>2011-05-18T07:24:58Z</time>
      </trkpt>
      <trkpt lat="45.15986" lon="5.75021">
        <ele>101</ele>
        <time>2011-05-18T07:24:59Z</time>
      </trkpt>
      <trkpt lat="45.15986" lon="5.75024">
        <ele>101</ele>
        <time>2011-05-18T07:25:00Z</time>
      </trkpt>
      <trkpt lat="45.15986" lon="5.75025">
        <ele>101</ele>
        <time>2011-05-18T07:25:01Z</time>
      </trkpt>
      <trkpt lat="45.15986" lon="5.75027">
        <ele>101</ele>
        <time>2011-05-18T07:25:02Z</time>
      </trkpt>
      <trkpt lat="45.15986" lon="5.7503">
        <ele>101</ele>
        <time>2011-05-18T07:25:03Z</time>
      </trkpt>
      <trkpt lat="45.15986" lon="5.75033">
        <ele>101</ele>
        <time>2011-05-18T07:25:04Z</time>
      </trkpt>
      <trkpt lat="45.15987" lon="5.75036">
        <ele>101</ele>
        <time>2011-05-18T07:25:05Z</time>
      </trkpt>
      <trkpt lat="45.15987" lon="5.75039">
        <ele>101</ele>
        <time>2011-05-18T07:25:06Z</time>
      </trkpt>
      <trkpt lat="45.15987" lon="5.7504">
        <ele>101</ele>
        <time>2011-05-18T07:25:07Z</time>
      </trkpt>
      <trkpt lat="45.15986" lon="5.75042">
        <ele>101</ele>
        <time>2011-05-18T07:25:08Z</time>
      </trkpt>
      <trkpt lat="45.15987" lon="5.75046">
        <ele>101</ele>
        <time>2011-05-18T07:25:09Z</time>
      </trkpt>
      <trkpt lat="45.15987" lon="5.75049">
        <ele>101</ele>
        <time>2011-05-18T07:25:10Z</time>
      </trkpt>
      <trkpt lat="45.15989" lon="5.75052">
        <ele>101</ele>
        <time>2011-05-18T07:25:11Z</time>
      </trkpt>
      <trkpt lat="45.15988" lon="5.75057">
        <ele>101</ele>
        <time>2011-05-18T07:25:12Z</time>
      </trkpt>
      <trkpt lat="45.15989" lon="5.75058">
        <ele>101</ele>
        <time>2011-05-18T07:25:13Z</time>
      </trkpt>
      <trkpt lat="45.15991" lon="5.75059">
        <ele>101</ele>
        <time>2011-05-18T07:25:14Z</time>
      </trkpt>
      <trkpt lat="45.15994" lon="5.7506">
        <ele>101</ele>
        <time>2011-05-18T07:25:15Z</time>
      </trkpt>
      <trkpt lat="45.15996" lon="5.75062">
        <ele>101</ele>
        <time>2011-05-18T07:25:16Z</time>
      </trkpt>
      <trkpt lat="45.15997" lon="5.75065">
        <ele>101</ele>
        <time>2011-05-18T07:25:17Z</time>
      </trkpt>
      <trkpt lat="45.15998" lon="5.75068">
        <ele>101</ele>
        <time>2011-05-18T07:25:18Z</time>
      </trkpt>
      <trkpt lat="45.15998" lon="5.75067">
        <ele>101</ele>
        <time>2011-05-18T07:25:19Z</time>
      </trkpt>
      <trkpt lat="45.15999" lon="5.75071">
        <ele>101</ele>
        <time>2011-05-18T07:25:20Z</time>
      </trkpt>
      <trkpt lat="45.16" lon="5.75073">
        <ele>101</ele>
        <time>2011-05-18T07:25:21Z</time>
      </trkpt>
      <trkpt lat="45.16" lon="5.75075">
        <ele>101</ele>
        <time>2011-05-18T07:25:22Z</time>
      </trkpt>
      <trkpt lat="45.16" lon="5.75079">
        <ele>101</ele>
        <time>2011-05-18T07:25:23Z</time>
      </trkpt>
      <trkpt lat="45.16" lon="5.75082">
        <ele>101</ele>
        <time>2011-05-18T07:25:24Z</time>
      </trkpt>
      <trkpt lat="45.15997" lon="5.75086">
        <ele>101</ele>
        <time>2011-05-18T07:25:25Z</time>
      </trkpt>
      <trkpt lat="45.15995" lon="5.75089">
        <ele>101</ele>
        <time>2011-05-18T07:25:26Z</time>
      </trkpt>
      <trkpt lat="45.15994" lon="5.75093">
        <ele>101</ele>
        <time>2011-05-18T07:25:27Z</time>
      </trkpt>
      <trkpt lat="45.15992" lon="5.75097">
        <ele>101</ele>
        <time>2011-05-18T07:25:28Z</time>
      </trkpt>
      <trkpt lat="45.15992" lon="5.75099">
        <ele>101</ele>
        <time>2011-05-18T07:25:29Z</time>
      </trkpt>
      <trkpt lat="45.15992" lon="5.75101">
        <ele>101</ele>
        <time>2011-05-18T07:25:30Z</time>
      </trkpt>
      <trkpt lat="45.15988" lon="5.75106">
        <ele>101</ele>
        <time>2011-05-18T07:25:31Z</time>
      </trkpt>
      <trkpt lat="45.15987" lon="5.75108">
        <ele>101</ele>
        <time>2011-05-18T07:25:32Z</time>
      </trkpt>
      <trkpt lat="45.15986" lon="5.75111">
        <ele>101</ele>
        <time>2011-05-18T07:25:33Z</time>
      </trkpt>
      <trkpt lat="45.15985" lon="5.75112">
        <ele>101</ele>
        <time>2011-05-18T07:25:34Z</time>
      </trkpt>
      <trkpt lat="45.15977" lon="5.75121">
        <ele>101</ele>
        <time>2011-05-18T07:25:35Z</time>
      </trkpt>
      <trkpt lat="45.15975" lon="5.75123">
        <ele>101</ele>
        <time>2011-05-18T07:25:36Z</time>
      </trkpt>
      <trkpt lat="45.15972" lon="5.75125">
        <ele>101</ele>
        <time>2011-05-18T07:25:37Z</time>
      </trkpt>
      <trkpt lat="45.1597" lon="5.75126">
        <ele>101</ele>
        <time>2011-05-18T07:25:38Z</time>
      </trkpt>
      <trkpt lat="45.1597" lon="5.75128">
        <ele>101</ele>
        <time>2011-05-18T07:25:39Z</time>
      </trkpt>
      <trkpt lat="45.15969" lon="5.75131">
        <ele>101</ele>
        <time>2011-05-18T07:25:40Z</time>
      </trkpt>
      <trkpt lat="45.15966" lon="5.75132">
        <ele>101</ele>
        <time>2011-05-18T07:25:41Z</time>
      </trkpt>
      <trkpt lat="45.15966" lon="5.75135">
        <ele>101</ele>
        <time>2011-05-18T07:25:42Z</time>
      </trkpt>
      <trkpt lat="45.15965" lon="5.75137">
        <ele>101</ele>
        <time>2011-05-18T07:25:43Z</time>
      </trkpt>
      <trkpt lat="45.15969" lon="5.7514">
        <ele>100</ele>
        <time>2011-05-18T07:25:44Z</time>
      </trkpt>
      <trkpt lat="45.15968" lon="5.75141">
        <ele>100</ele>
        <time>2011-05-18T07:25:45Z</time>
      </trkpt>
      <trkpt lat="45.15965" lon="5.75143">
        <ele>100</ele>
        <time>2011-05-18T07:25:46Z</time>
      </trkpt>
      <trkpt lat="45.15964" lon="5.75145">
        <ele>100</ele>
        <time>2011-05-18T07:25:47Z</time>
      </trkpt>
      <trkpt lat="45.15963" lon="5.75148">
        <ele>100</ele>
        <time>2011-05-18T07:25:48Z</time>
      </trkpt>
      <trkpt lat="45.1596" lon="5.75149">
        <ele>100</ele>
        <time>2011-05-18T07:25:49Z</time>
      </trkpt>
      <trkpt lat="45.15958" lon="5.75151">
        <ele>100</ele>
        <time>2011-05-18T07:25:50Z</time>
      </trkpt>
      <trkpt lat="45.15957" lon="5.75154">
        <ele>100</ele>
        <time>2011-05-18T07:25:51Z</time>
      </trkpt>
      <trkpt lat="45.16003" lon="5.75132">
        <ele>211</ele>
        <time>2011-05-18T07:25:52Z</time>
      </trkpt>
      <trkpt lat="45.15998" lon="5.75138">
        <ele>211</ele>
        <time>2011-05-18T07:25:53Z</time>
      </trkpt>
      <trkpt lat="45.15997" lon="5.75142">
        <ele>211</ele>
        <time>2011-05-18T07:25:54Z</time>
      </trkpt>
      <trkpt lat="45.15993" lon="5.75144">
        <ele>211</ele>
        <time>2011-05-18T07:25:55Z</time>
      </trkpt>
      <trkpt lat="45.15989" lon="5.75145">
        <ele>211</ele>
        <time>2011-05-18T07:25:56Z</time>
      </trkpt>
      <trkpt lat="45.15982" lon="5.75145">
        <ele>214</ele>
        <time>2011-05-18T07:25:57Z</time>
      </trkpt>
      <trkpt lat="45.1598" lon="5.75143">
        <ele>215</ele>
        <time>2011-05-18T07:25:58Z</time>
      </trkpt>
      <trkpt lat="45.15977" lon="5.75142">
        <ele>216</ele>
        <time>2011-05-18T07:25:59Z</time>
      </trkpt>
      <trkpt lat="45.15976" lon="5.75141">
        <ele>216</ele>
        <time>2011-05-18T07:26:00Z</time>
      </trkpt>
      <trkpt lat="45.15973" lon="5.75137">
        <ele>217</ele>
        <time>2011-05-18T07:26:01Z</time>
      </trkpt>
      <trkpt lat="45.1597" lon="5.75135">
        <ele>220</ele>
        <time>2011-05-18T07:26:02Z</time>
      </trkpt>
      <trkpt lat="45.15968" lon="5.75133">
        <ele>220</ele>
        <time>2011-05-18T07:26:03Z</time>
      </trkpt>
      <trkpt lat="45.15966" lon="5.7513">
        <ele>220</ele>
        <time>2011-05-18T07:26:04Z</time>
      </trkpt>
      <trkpt lat="45.15965" lon="5.75126">
        <ele>222</ele>
        <time>2011-05-18T07:26:05Z</time>
      </trkpt>
      <trkpt lat="45.15964" lon="5.75126">
        <ele>221</ele>
        <time>2011-05-18T07:26:06Z</time>
      </trkpt>
      <trkpt lat="45.15962" lon="5.75127">
        <ele>220</ele>
        <time>2011-05-18T07:26:07Z</time>
      </trkpt>
      <trkpt lat="45.15958" lon="5.75129">
        <ele>220</ele>
        <time>2011-05-18T07:26:08Z</time>
      </trkpt>
      <trkpt lat="45.15955" lon="5.75132">
        <ele>220</ele>
        <time>2011-05-18T07:26:09Z</time>
      </trkpt>
      <trkpt lat="45.15951" lon="5.75136">
        <ele>219</ele>
        <time>2011-05-18T07:26:10Z</time>
      </trkpt>
      <trkpt lat="45.15947" lon="5.7514">
        <ele>219</ele>
        <time>2011-05-18T07:26:11Z</time>
      </trkpt>
      <trkpt lat="45.15943" lon="5.75143">
        <ele>219</ele>
        <time>2011-05-18T07:26:12Z</time>
      </trkpt>
      <trkpt lat="45.15939" lon="5.75144">
        <ele>219</ele>
        <time>2011-05-18T07:26:13Z</time>
      </trkpt>
      <trkpt lat="45.15936" lon="5.75144">
        <ele>221</ele>
        <time>2011-05-18T07:26:14Z</time>
      </trkpt>
      <trkpt lat="45.15932" lon="5.75144">
        <ele>222</ele>
        <time>2011-05-18T07:26:15Z</time>
      </trkpt>
      <trkpt lat="45.1593" lon="5.75143">
        <ele>221</ele>
        <time>2011-05-18T07:26:16Z</time>
      </trkpt>
      <trkpt lat="45.15928" lon="5.75143">
        <ele>221</ele>
        <time>2011-05-18T07:26:17Z</time>
      </trkpt>
      <trkpt lat="45.15927" lon="5.75145">
        <ele>221</ele>
        <time>2011-05-18T07:26:18Z</time>
      </trkpt>
      <trkpt lat="45.15925" lon="5.75147">
        <ele>220</ele>
        <time>2011-05-18T07:26:19Z</time>
      </trkpt>
      <trkpt lat="45.15922" lon="5.75149">
        <ele>221</ele>
        <time>2011-05-18T07:26:20Z</time>
      </trkpt>
      <trkpt lat="45.1592" lon="5.75152">
        <ele>221</ele>
        <time>2011-05-18T07:26:21Z</time>
      </trkpt>
      <trkpt lat="45.15918" lon="5.75154">
        <ele>221</ele>
        <time>2011-05-18T07:26:22Z</time>
      </trkpt>
      <trkpt lat="45.15916" lon="5.75158">
        <ele>221</ele>
        <time>2011-05-18T07:26:23Z</time>
      </trkpt>
      <trkpt lat="45.15914" lon="5.7516">
        <ele>221</ele>
        <time>2011-05-18T07:26:24Z</time>
      </trkpt>
      <trkpt lat="45.15912" lon="5.75162">
        <ele>221</ele>
        <time>2011-05-18T07:26:25Z</time>
      </trkpt>
      <trkpt lat="45.1591" lon="5.75163">
        <ele>221</ele>
        <time>2011-05-18T07:26:26Z</time>
      </trkpt>
      <trkpt lat="45.15909" lon="5.75166">
        <ele>221</ele>
        <time>2011-05-18T07:26:27Z</time>
      </trkpt>
      <trkpt lat="45.15907" lon="5.75168">
        <ele>222</ele>
        <time>2011-05-18T07:26:28Z</time>
      </trkpt>
      <trkpt lat="45.15905" lon="5.75171">
        <ele>222</ele>
        <time>2011-05-18T07:26:29Z</time>
      </trkpt>
      <trkpt lat="45.15903" lon="5.75173">
        <ele>222</ele>
        <time>2011-05-18T07:26:30Z</time>
      </trkpt>
      <trkpt lat="45.15901" lon="5.75175">
        <ele>223</ele>
        <time>2011-05-18T07:26:31Z</time>
      </trkpt>
      <trkpt lat="45.159" lon="5.75179">
        <ele>224</ele>
        <time>2011-05-18T07:26:32Z</time>
      </trkpt>
      <trkpt lat="45.15899" lon="5.75182">
        <ele>225</ele>
        <time>2011-05-18T07:26:33Z</time>
      </trkpt>
      <trkpt lat="45.15899" lon="5.75182">
        <ele>225</ele>
        <time>2011-05-18T07:26:33Z</time>
      </trkpt>
      <trkpt lat="45.15896" lon="5.75186">
        <ele>225</ele>
        <time>2011-05-18T07:26:35Z</time>
      </trkpt>
      <trkpt lat="45.15894" lon="5.75188">
        <ele>224</ele>
        <time>2011-05-18T07:26:36Z</time>
      </trkpt>
      <trkpt lat="45.15891" lon="5.7519">
        <ele>225</ele>
        <time>2011-05-18T07:26:37Z</time>
      </trkpt>
      <trkpt lat="45.1589" lon="5.75192">
        <ele>225</ele>
        <time>2011-05-18T07:26:38Z</time>
      </trkpt>
      <trkpt lat="45.1589" lon="5.75192">
        <ele>225</ele>
        <time>2011-05-18T07:26:38Z</time>
      </trkpt>
      <trkpt lat="45.15887" lon="5.75197">
        <ele>225</ele>
        <time>2011-05-18T07:26:40Z</time>
      </trkpt>
      <trkpt lat="45.15884" lon="5.75198">
        <ele>226</ele>
        <time>2011-05-18T07:26:41Z</time>
      </trkpt>
      <trkpt lat="45.15883" lon="5.75201">
        <ele>226</ele>
        <time>2011-05-18T07:26:42Z</time>
      </trkpt>
      <trkpt lat="45.15881" lon="5.75203">
        <ele>227</ele>
        <time>2011-05-18T07:26:43Z</time>
      </trkpt>
      <trkpt lat="45.15878" lon="5.75205">
        <ele>227</ele>
        <time>2011-05-18T07:26:44Z</time>
      </trkpt>
      <trkpt lat="45.15876" lon="5.75207">
        <ele>226</ele>
        <time>2011-05-18T07:26:45Z</time>
      </trkpt>
      <trkpt lat="45.15875" lon="5.75209">
        <ele>226</ele>
        <time>2011-05-18T07:26:46Z</time>
      </trkpt>
      <trkpt lat="45.15872" lon="5.75211">
        <ele>226</ele>
        <time>2011-05-18T07:26:47Z</time>
      </trkpt>
      <trkpt lat="45.15871" lon="5.75214">
        <ele>226</ele>
        <time>2011-05-18T07:26:48Z</time>
      </trkpt>
      <trkpt lat="45.15869" lon="5.75217">
        <ele>226</ele>
        <time>2011-05-18T07:26:49Z</time>
      </trkpt>
      <trkpt lat="45.15868" lon="5.75219">
        <ele>226</ele>
        <time>2011-05-18T07:26:50Z</time>
      </trkpt>
      <trkpt lat="45.15868" lon="5.75222">
        <ele>223</ele>
        <time>2011-05-18T07:26:51Z</time>
      </trkpt>
      <trkpt lat="45.15866" lon="5.75225">
        <ele>223</ele>
        <time>2011-05-18T07:26:52Z</time>
      </trkpt>
      <trkpt lat="45.15865" lon="5.75229">
        <ele>223</ele>
        <time>2011-05-18T07:26:53Z</time>
      </trkpt>
      <trkpt lat="45.15864" lon="5.75232">
        <ele>224</ele>
        <time>2011-05-18T07:26:54Z</time>
      </trkpt>
      <trkpt lat="45.15862" lon="5.75234">
        <ele>224</ele>
        <time>2011-05-18T07:26:55Z</time>
      </trkpt>
      <trkpt lat="45.15859" lon="5.75237">
        <ele>224</ele>
        <time>2011-05-18T07:26:56Z</time>
      </trkpt>
      <trkpt lat="45.15858" lon="5.75242">
        <ele>226</ele>
        <time>2011-05-18T07:26:57Z</time>
      </trkpt>
      <trkpt lat="45.15856" lon="5.75244">
        <ele>227</ele>
        <time>2011-05-18T07:26:58Z</time>
      </trkpt>
      <trkpt lat="45.15854" lon="5.75246">
        <ele>227</ele>
        <time>2011-05-18T07:26:59Z</time>
      </trkpt>
      <trkpt lat="45.15852" lon="5.75249">
        <ele>227</ele>
        <time>2011-05-18T07:27:00Z</time>
      </trkpt>
      <trkpt lat="45.15851" lon="5.75251">
        <ele>227</ele>
        <time>2011-05-18T07:27:01Z</time>
      </trkpt>
      <trkpt lat="45.15849" lon="5.75253">
        <ele>227</ele>
        <time>2011-05-18T07:27:02Z</time>
      </trkpt>
      <trkpt lat="45.15847" lon="5.75254">
        <ele>226</ele>
        <time>2011-05-18T07:27:03Z</time>
      </trkpt>
      <trkpt lat="45.15845" lon="5.75256">
        <ele>226</ele>
        <time>2011-05-18T07:27:04Z</time>
      </trkpt>
      <trkpt lat="45.15843" lon="5.75258">
        <ele>226</ele>
        <time>2011-05-18T07:27:05Z</time>
      </trkpt>
      <trkpt lat="45.15841" lon="5.7526">
        <ele>225</ele>
        <time>2011-05-18T07:27:06Z</time>
      </trkpt>
      <trkpt lat="45.15839" lon="5.75262">
        <ele>225</ele>
        <time>2011-05-18T07:27:07Z</time>
      </trkpt>
      <trkpt lat="45.15836" lon="5.75264">
        <ele>226</ele>
        <time>2011-05-18T07:27:08Z</time>
      </trkpt>
      <trkpt lat="45.15833" lon="5.75265">
        <ele>226</ele>
        <time>2011-05-18T07:27:09Z</time>
      </trkpt>
      <trkpt lat="45.15832" lon="5.75268">
        <ele>226</ele>
        <time>2011-05-18T07:27:10Z</time>
      </trkpt>
      <trkpt lat="45.15829" lon="5.75271">
        <ele>225</ele>
        <time>2011-05-18T07:27:11Z</time>
      </trkpt>
      <trkpt lat="45.15826" lon="5.75273">
        <ele>225</ele>
        <time>2011-05-18T07:27:12Z</time>
      </trkpt>
      <trkpt lat="45.15823" lon="5.75275">
        <ele>225</ele>
        <time>2011-05-18T07:27:13Z</time>
      </trkpt>
      <trkpt lat="45.15822" lon="5.75277">
        <ele>223</ele>
        <time>2011-05-18T07:27:14Z</time>
      </trkpt>
      <trkpt lat="45.1582" lon="5.75277">
        <ele>223</ele>
        <time>2011-05-18T07:27:15Z</time>
      </trkpt>
      <trkpt lat="45.15818" lon="5.75279">
        <ele>222</ele>
        <time>2011-05-18T07:27:16Z</time>
      </trkpt>
      <trkpt lat="45.15816" lon="5.75282">
        <ele>222</ele>
        <time>2011-05-18T07:27:17Z</time>
      </trkpt>
      <trkpt lat="45.15815" lon="5.75283">
        <ele>221</ele>
        <time>2011-05-18T07:27:18Z</time>
      </trkpt>
      <trkpt lat="45.15813" lon="5.75284">
        <ele>221</ele>
        <time>2011-05-18T07:27:19Z</time>
      </trkpt>
      <trkpt lat="45.1581" lon="5.75284">
        <ele>220</ele>
        <time>2011-05-18T07:27:20Z</time>
      </trkpt>
      <trkpt lat="45.15807" lon="5.75285">
        <ele>220</ele>
        <time>2011-05-18T07:27:21Z</time>
      </trkpt>
      <trkpt lat="45.15804" lon="5.75286">
        <ele>221</ele>
        <time>2011-05-18T07:27:22Z</time>
      </trkpt>
      <trkpt lat="45.15801" lon="5.75287">
        <ele>221</ele>
        <time>2011-05-18T07:27:23Z</time>
      </trkpt>
      <trkpt lat="45.15799" lon="5.75288">
        <ele>221</ele>
        <time>2011-05-18T07:27:24Z</time>
      </trkpt>
      <trkpt lat="45.15797" lon="5.75289">
        <ele>223</ele>
        <time>2011-05-18T07:27:25Z</time>
      </trkpt>
      <trkpt lat="45.15795" lon="5.7529">
        <ele>224</ele>
        <time>2011-05-18T07:27:26Z</time>
      </trkpt>
      <trkpt lat="45.15793" lon="5.75293">
        <ele>224</ele>
        <time>2011-05-18T07:27:27Z</time>
      </trkpt>
      <trkpt lat="45.15791" lon="5.75293">
        <ele>223</ele>
        <time>2011-05-18T07:27:28Z</time>
      </trkpt>
      <trkpt lat="45.15788" lon="5.75294">
        <ele>224</ele>
        <time>2011-05-18T07:27:29Z</time>
      </trkpt>
      <trkpt lat="45.15786" lon="5.75296">
        <ele>224</ele>
        <time>2011-05-18T07:27:30Z</time>
      </trkpt>
      <trkpt lat="45.15785" lon="5.75297">
        <ele>223</ele>
        <time>2011-05-18T07:27:31Z</time>
      </trkpt>
      <trkpt lat="45.15783" lon="5.75299">
        <ele>223</ele>
        <time>2011-05-18T07:27:32Z</time>
      </trkpt>
      <trkpt lat="45.1578" lon="5.753">
        <ele>223</ele>
        <time>2011-05-18T07:27:33Z</time>
      </trkpt>
      <trkpt lat="45.15778" lon="5.75302">
        <ele>223</ele>
        <time>2011-05-18T07:27:34Z</time>
      </trkpt>
      <trkpt lat="45.15776" lon="5.75302">
        <ele>223</ele>
        <time>2011-05-18T07:27:35Z</time>
      </trkpt>
      <trkpt lat="45.15773" lon="5.75303">
        <ele>223</ele>
        <time>2011-05-18T07:27:36Z</time>
      </trkpt>
      <trkpt lat="45.15771" lon="5.75304">
        <ele>222</ele>
        <time>2011-05-18T07:27:37Z</time>
      </trkpt>
      <trkpt lat="45.15768" lon="5.75306">
        <ele>222</ele>
        <time>2011-05-18T07:27:38Z</time>
      </trkpt>
      <trkpt lat="45.15768" lon="5.75306">
        <ele>222</ele>
        <time>2011-05-18T07:27:38Z</time>
      </trkpt>
      <trkpt lat="45.15765" lon="5.75308">
        <ele>222</ele>
        <time>2011-05-18T07:27:40Z</time>
      </trkpt>
      <trkpt lat="45.15763" lon="5.75308">
        <ele>222</ele>
        <time>2011-05-18T07:27:41Z</time>
      </trkpt>
      <trkpt lat="45.15761" lon="5.7531">
        <ele>222</ele>
        <time>2011-05-18T07:27:42Z</time>
      </trkpt>
      <trkpt lat="45.15757" lon="5.75312">
        <ele>223</ele>
        <time>2011-05-18T07:27:43Z</time>
      </trkpt>
      <trkpt lat="45.15755" lon="5.75314">
        <ele>223</ele>
        <time>2011-05-18T07:27:44Z</time>
      </trkpt>
      <trkpt lat="45.15752" lon="5.75316">
        <ele>222</ele>
        <time>2011-05-18T07:27:45Z</time>
      </trkpt>
      <trkpt lat="45.1575" lon="5.75318">
        <ele>222</ele>
        <time>2011-05-18T07:27:46Z</time>
      </trkpt>
      <trkpt lat="45.15748" lon="5.7532">
        <ele>222</ele>
        <time>2011-05-18T07:27:47Z</time>
      </trkpt>
      <trkpt lat="45.15746" lon="5.75322">
        <ele>222</ele>
        <time>2011-05-18T07:27:48Z</time>
      </trkpt>
      <trkpt lat="45.15743" lon="5.75326">
        <ele>223</ele>
        <time>2011-05-18T07:27:49Z</time>
      </trkpt>
      <trkpt lat="45.15741" lon="5.7533">
        <ele>222</ele>
        <time>2011-05-18T07:27:50Z</time>
      </trkpt>
      <trkpt lat="45.15739" lon="5.75333">
        <ele>222</ele>
        <time>2011-05-18T07:27:51Z</time>
      </trkpt>
      <trkpt lat="45.15736" lon="5.75336">
        <ele>223</ele>
        <time>2011-05-18T07:27:52Z</time>
      </trkpt>
      <trkpt lat="45.15734" lon="5.75338">
        <ele>223</ele>
        <time>2011-05-18T07:27:53Z</time>
      </trkpt>
      <trkpt lat="45.15731" lon="5.7534">
        <ele>224</ele>
        <time>2011-05-18T07:27:54Z</time>
      </trkpt>
      <trkpt lat="45.1573" lon="5.75342">
        <ele>224</ele>
        <time>2011-05-18T07:27:55Z</time>
      </trkpt>
      <trkpt lat="45.15727" lon="5.75344">
        <ele>227</ele>
        <time>2011-05-18T07:27:56Z</time>
      </trkpt>
      <trkpt lat="45.15725" lon="5.75347">
        <ele>228</ele>
        <time>2011-05-18T07:27:57Z</time>
      </trkpt>
      <trkpt lat="45.15722" lon="5.75349">
        <ele>228</ele>
        <time>2011-05-18T07:27:58Z</time>
      </trkpt>
      <trkpt lat="45.15721" lon="5.75351">
        <ele>228</ele>
        <time>2011-05-18T07:27:59Z</time>
      </trkpt>
      <trkpt lat="45.15719" lon="5.75353">
        <ele>227</ele>
        <time>2011-05-18T07:28:00Z</time>
      </trkpt>
      <trkpt lat="45.15718" lon="5.75357">
        <ele>227</ele>
        <time>2011-05-18T07:28:01Z</time>
      </trkpt>
      <trkpt lat="45.15716" lon="5.7536">
        <ele>227</ele>
        <time>2011-05-18T07:28:02Z</time>
      </trkpt>
      <trkpt lat="45.15715" lon="5.75364">
        <ele>228</ele>
        <time>2011-05-18T07:28:03Z</time>
      </trkpt>
      <trkpt lat="45.15715" lon="5.75368">
        <ele>227</ele>
        <time>2011-05-18T07:28:04Z</time>
      </trkpt>
      <trkpt lat="45.15714" lon="5.7537">
        <ele>228</ele>
        <time>2011-05-18T07:28:05Z</time>
      </trkpt>
      <trkpt lat="45.15715" lon="5.75373">
        <ele>228</ele>
        <time>2011-05-18T07:28:06Z</time>
      </trkpt>
      <trkpt lat="45.15715" lon="5.75378">
        <ele>229</ele>
        <time>2011-05-18T07:28:07Z</time>
      </trkpt>
      <trkpt lat="45.15716" lon="5.75381">
        <ele>229</ele>
        <time>2011-05-18T07:28:08Z</time>
      </trkpt>
      <trkpt lat="45.15717" lon="5.75385">
        <ele>229</ele>
        <time>2011-05-18T07:28:09Z</time>
      </trkpt>
      <trkpt lat="45.15719" lon="5.7539">
        <ele>230</ele>
        <time>2011-05-18T07:28:10Z</time>
      </trkpt>
      <trkpt lat="45.1572" lon="5.75393">
        <ele>229</ele>
        <time>2011-05-18T07:28:11Z</time>
      </trkpt>
      <trkpt lat="45.15722" lon="5.75397">
        <ele>229</ele>
        <time>2011-05-18T07:28:12Z</time>
      </trkpt>
      <trkpt lat="45.15723" lon="5.754">
        <ele>229</ele>
        <time>2011-05-18T07:28:13Z</time>
      </trkpt>
      <trkpt lat="45.15725" lon="5.75402">
        <ele>229</ele>
        <time>2011-05-18T07:28:14Z</time>
      </trkpt>
      <trkpt lat="45.15728" lon="5.75404">
        <ele>229</ele>
        <time>2011-05-18T07:28:15Z</time>
      </trkpt>
      <trkpt lat="45.15728" lon="5.75406">
        <ele>229</ele>
        <time>2011-05-18T07:28:16Z</time>
      </trkpt>
      <trkpt lat="45.1573" lon="5.75408">
        <ele>229</ele>
        <time>2011-05-18T07:28:17Z</time>
      </trkpt>
      <trkpt lat="45.1573" lon="5.7541">
        <ele>230</ele>
        <time>2011-05-18T07:28:18Z</time>
      </trkpt>
      <trkpt lat="45.15731" lon="5.75412">
        <ele>230</ele>
        <time>2011-05-18T07:28:19Z</time>
      </trkpt>
      <trkpt lat="45.15731" lon="5.75415">
        <ele>230</ele>
        <time>2011-05-18T07:28:20Z</time>
      </trkpt>
      <trkpt lat="45.15731" lon="5.75416">
        <ele>230</ele>
        <time>2011-05-18T07:28:21Z</time>
      </trkpt>
      <trkpt lat="45.15732" lon="5.75418">
        <ele>230</ele>
        <time>2011-05-18T07:28:22Z</time>
      </trkpt>
      <trkpt lat="45.15731" lon="5.75422">
        <ele>230</ele>
        <time>2011-05-18T07:28:23Z</time>
      </trkpt>
      <trkpt lat="45.1573" lon="5.75424">
        <ele>230</ele>
        <time>2011-05-18T07:28:24Z</time>
      </trkpt>
      <trkpt lat="45.15728" lon="5.75426">
        <ele>230</ele>
        <time>2011-05-18T07:28:25Z</time>
      </trkpt>
      <trkpt lat="45.15725" lon="5.75427">
        <ele>231</ele>
        <time>2011-05-18T07:28:26Z</time>
      </trkpt>
      <trkpt lat="45.15723" lon="5.75428">
        <ele>231</ele>
        <time>2011-05-18T07:28:27Z</time>
      </trkpt>
      <trkpt lat="45.15722" lon="5.7543">
        <ele>231</ele>
        <time>2011-05-18T07:28:28Z</time>
      </trkpt>
      <trkpt lat="45.15722" lon="5.75432">
        <ele>229</ele>
        <time>2011-05-18T07:28:29Z</time>
      </trkpt>
      <trkpt lat="45.1572" lon="5.75435">
        <ele>227</ele>
        <time>2011-05-18T07:28:30Z</time>
      </trkpt>
      <trkpt lat="45.15719" lon="5.75437">
        <ele>227</ele>
        <time>2011-05-18T07:28:31Z</time>
      </trkpt>
      <trkpt lat="45.15719" lon="5.75439">
        <ele>228</ele>
        <time>2011-05-18T07:28:32Z</time>
      </trkpt>
      <trkpt lat="45.15718" lon="5.75441">
        <ele>227</ele>
        <time>2011-05-18T07:28:33Z</time>
      </trkpt>
      <trkpt lat="45.15715" lon="5.75442">
        <ele>227</ele>
        <time>2011-05-18T07:28:34Z</time>
      </trkpt>
      <trkpt lat="45.15712" lon="5.75442">
        <ele>226</ele>
        <time>2011-05-18T07:28:35Z</time>
      </trkpt>
      <trkpt lat="45.15709" lon="5.75444">
        <ele>226</ele>
        <time>2011-05-18T07:28:36Z</time>
      </trkpt>
      <trkpt lat="45.15705" lon="5.75446">
        <ele>226</ele>
        <time>2011-05-18T07:28:37Z</time>
      </trkpt>
      <trkpt lat="45.15703" lon="5.7545">
        <ele>225</ele>
        <time>2011-05-18T07:28:38Z</time>
      </trkpt>
      <trkpt lat="45.157" lon="5.75452">
        <ele>226</ele>
        <time>2011-05-18T07:28:39Z</time>
      </trkpt>
      <trkpt lat="45.15698" lon="5.75453">
        <ele>226</ele>
        <time>2011-05-18T07:28:40Z</time>
      </trkpt>
      <trkpt lat="45.15696" lon="5.75455">
        <ele>226</ele>
        <time>2011-05-18T07:28:41Z</time>
      </trkpt>
      <trkpt lat="45.15694" lon="5.75457">
        <ele>226</ele>
        <time>2011-05-18T07:28:42Z</time>
      </trkpt>
      <trkpt lat="45.15691" lon="5.7546">
        <ele>226</ele>
        <time>2011-05-18T07:28:43Z</time>
      </trkpt>
      <trkpt lat="45.15688" lon="5.75463">
        <ele>225</ele>
        <time>2011-05-18T07:28:44Z</time>
      </trkpt>
      <trkpt lat="45.15686" lon="5.75464">
        <ele>225</ele>
        <time>2011-05-18T07:28:45Z</time>
      </trkpt>
      <trkpt lat="45.15685" lon="5.75467">
        <ele>226</ele>
        <time>2011-05-18T07:28:46Z</time>
      </trkpt>
      <trkpt lat="45.15683" lon="5.75469">
        <ele>225</ele>
        <time>2011-05-18T07:28:47Z</time>
      </trkpt>
      <trkpt lat="45.15681" lon="5.75471">
        <ele>224</ele>
        <time>2011-05-18T07:28:48Z</time>
      </trkpt>
      <trkpt lat="45.15678" lon="5.75473">
        <ele>224</ele>
        <time>2011-05-18T07:28:49Z</time>
      </trkpt>
      <trkpt lat="45.15677" lon="5.75475">
        <ele>223</ele>
        <time>2011-05-18T07:28:50Z</time>
      </trkpt>
      <trkpt lat="45.15675" lon="5.75477">
        <ele>224</ele>
        <time>2011-05-18T07:28:51Z</time>
      </trkpt>
      <trkpt lat="45.15673" lon="5.75482">
        <ele>224</ele>
        <time>2011-05-18T07:28:52Z</time>
      </trkpt>
      <trkpt lat="45.15669" lon="5.75484">
        <ele>225</ele>
        <time>2011-05-18T07:28:53Z</time>
      </trkpt>
      <trkpt lat="45.15666" lon="5.75487">
        <ele>225</ele>
        <time>2011-05-18T07:28:54Z</time>
      </trkpt>
      <trkpt lat="45.15662" lon="5.75491">
        <ele>225</ele>
        <time>2011-05-18T07:28:55Z</time>
      </trkpt>
      <trkpt lat="45.1566" lon="5.75494">
        <ele>224</ele>
        <time>2011-05-18T07:28:56Z</time>
      </trkpt>
      <trkpt lat="45.15657" lon="5.75496">
        <ele>226</ele>
        <time>2011-05-18T07:28:57Z</time>
      </trkpt>
      <trkpt lat="45.15656" lon="5.75497">
        <ele>226</ele>
        <time>2011-05-18T07:28:58Z</time>
      </trkpt>
      <trkpt lat="45.15656" lon="5.75497">
        <ele>226</ele>
        <time>2011-05-18T07:28:58Z</time>
      </trkpt>
      <trkpt lat="45.15651" lon="5.75502">
        <ele>227</ele>
        <time>2011-05-18T07:29:00Z</time>
      </trkpt>
      <trkpt lat="45.15649" lon="5.75504">
        <ele>227</ele>
        <time>2011-05-18T07:29:01Z</time>
      </trkpt>
      <trkpt lat="45.15648" lon="5.75506">
        <ele>227</ele>
        <time>2011-05-18T07:29:02Z</time>
      </trkpt>
      <trkpt lat="45.15645" lon="5.75509">
        <ele>227</ele>
        <time>2011-05-18T07:29:03Z</time>
      </trkpt>
      <trkpt lat="45.15645" lon="5.75514">
        <ele>228</ele>
        <time>2011-05-18T07:29:04Z</time>
      </trkpt>
      <trkpt lat="45.15645" lon="5.75517">
        <ele>227</ele>
        <time>2011-05-18T07:29:05Z</time>
      </trkpt>
      <trkpt lat="45.15645" lon="5.7552">
        <ele>227</ele>
        <time>2011-05-18T07:29:06Z</time>
      </trkpt>
      <trkpt lat="45.15644" lon="5.75523">
        <ele>228</ele>
        <time>2011-05-18T07:29:07Z</time>
      </trkpt>
      <trkpt lat="45.15644" lon="5.75524">
        <ele>228</ele>
        <time>2011-05-18T07:29:08Z</time>
      </trkpt>
      <trkpt lat="45.15645" lon="5.75527">
        <ele>228</ele>
        <time>2011-05-18T07:29:09Z</time>
      </trkpt>
      <trkpt lat="45.15646" lon="5.7553">
        <ele>229</ele>
        <time>2011-05-18T07:29:10Z</time>
      </trkpt>
      <trkpt lat="45.15646" lon="5.75532">
        <ele>229</ele>
        <time>2011-05-18T07:29:11Z</time>
      </trkpt>
      <trkpt lat="45.15648" lon="5.75534">
        <ele>229</ele>
        <time>2011-05-18T07:29:12Z</time>
      </trkpt>
      <trkpt lat="45.15649" lon="5.75537">
        <ele>229</ele>
        <time>2011-05-18T07:29:13Z</time>
      </trkpt>
      <trkpt lat="45.1565" lon="5.75539">
        <ele>229</ele>
        <time>2011-05-18T07:29:14Z</time>
      </trkpt>
      <trkpt lat="45.15651" lon="5.75543">
        <ele>229</ele>
        <time>2011-05-18T07:29:15Z</time>
      </trkpt>
      <trkpt lat="45.15651" lon="5.75545">
        <ele>229</ele>
        <time>2011-05-18T07:29:16Z</time>
      </trkpt>
      <trkpt lat="45.15652" lon="5.75547">
        <ele>229</ele>
        <time>2011-05-18T07:29:17Z</time>
      </trkpt>
      <trkpt lat="45.15654" lon="5.7555">
        <ele>230</ele>
        <time>2011-05-18T07:29:18Z</time>
      </trkpt>
      <trkpt lat="45.15655" lon="5.75554">
        <ele>230</ele>
        <time>2011-05-18T07:29:19Z</time>
      </trkpt>
      <trkpt lat="45.15656" lon="5.75556">
        <ele>230</ele>
        <time>2011-05-18T07:29:20Z</time>
      </trkpt>
      <trkpt lat="45.15658" lon="5.75559">
        <ele>230</ele>
        <time>2011-05-18T07:29:21Z</time>
      </trkpt>
      <trkpt lat="45.15662" lon="5.75561">
        <ele>229</ele>
        <time>2011-05-18T07:29:22Z</time>
      </trkpt>
      <trkpt lat="45.15664" lon="5.75563">
        <ele>229</ele>
        <time>2011-05-18T07:29:23Z</time>
      </trkpt>
      <trkpt lat="45.15665" lon="5.75567">
        <ele>228</ele>
        <time>2011-05-18T07:29:24Z</time>
      </trkpt>
      <trkpt lat="45.15667" lon="5.75571">
        <ele>228</ele>
        <time>2011-05-18T07:29:25Z</time>
      </trkpt>
      <trkpt lat="45.15669" lon="5.75575">
        <ele>228</ele>
        <time>2011-05-18T07:29:26Z</time>
      </trkpt>
      <trkpt lat="45.1567" lon="5.75578">
        <ele>228</ele>
        <time>2011-05-18T07:29:27Z</time>
      </trkpt>
      <trkpt lat="45.15672" lon="5.7558">
        <ele>228</ele>
        <time>2011-05-18T07:29:28Z</time>
      </trkpt>
      <trkpt lat="45.15674" lon="5.75583">
        <ele>227</ele>
        <time>2011-05-18T07:29:29Z</time>
      </trkpt>
      <trkpt lat="45.15673" lon="5.75586">
        <ele>227</ele>
        <time>2011-05-18T07:29:30Z</time>
      </trkpt>
      <trkpt lat="45.15673" lon="5.75589">
        <ele>226</ele>
        <time>2011-05-18T07:29:31Z</time>
      </trkpt>
      <trkpt lat="45.15673" lon="5.75592">
        <ele>225</ele>
        <time>2011-05-18T07:29:32Z</time>
      </trkpt>
      <trkpt lat="45.15673" lon="5.75596">
        <ele>224</ele>
        <time>2011-05-18T07:29:33Z</time>
      </trkpt>
      <trkpt lat="45.15673" lon="5.75596">
        <ele>224</ele>
        <time>2011-05-18T07:29:33Z</time>
      </trkpt>
      <trkpt lat="45.1567" lon="5.75601">
        <ele>223</ele>
        <time>2011-05-18T07:29:35Z</time>
      </trkpt>
      <trkpt lat="45.15668" lon="5.75605">
        <ele>223</ele>
        <time>2011-05-18T07:29:36Z</time>
      </trkpt>
      <trkpt lat="45.15667" lon="5.75608">
        <ele>223</ele>
        <time>2011-05-18T07:29:37Z</time>
      </trkpt>
      <trkpt lat="45.15666" lon="5.75611">
        <ele>223</ele>
        <time>2011-05-18T07:29:38Z</time>
      </trkpt>
      <trkpt lat="45.15665" lon="5.75615">
        <ele>223</ele>
        <time>2011-05-18T07:29:39Z</time>
      </trkpt>
      <trkpt lat="45.15664" lon="5.75618">
        <ele>222</ele>
        <time>2011-05-18T07:29:40Z</time>
      </trkpt>
      <trkpt lat="45.15663" lon="5.75622">
        <ele>222</ele>
        <time>2011-05-18T07:29:41Z</time>
      </trkpt>
      <trkpt lat="45.15658" lon="5.75625">
        <ele>222</ele>
        <time>2011-05-18T07:29:42Z</time>
      </trkpt>
      <trkpt lat="45.15656" lon="5.75628">
        <ele>223</ele>
        <time>2011-05-18T07:29:43Z</time>
      </trkpt>
      <trkpt lat="45.15653" lon="5.75631">
        <ele>223</ele>
        <time>2011-05-18T07:29:44Z</time>
      </trkpt>
      <trkpt lat="45.1565" lon="5.75633">
        <ele>223</ele>
        <time>2011-05-18T07:29:45Z</time>
      </trkpt>
      <trkpt lat="45.15647" lon="5.75635">
        <ele>224</ele>
        <time>2011-05-18T07:29:46Z</time>
      </trkpt>
      <trkpt lat="45.15645" lon="5.75637">
        <ele>224</ele>
        <time>2011-05-18T07:29:47Z</time>
      </trkpt>
      <trkpt lat="45.15643" lon="5.75639">
        <ele>224</ele>
        <time>2011-05-18T07:29:48Z</time>
      </trkpt>
      <trkpt lat="45.1564" lon="5.75642">
        <ele>225</ele>
        <time>2011-05-18T07:29:49Z</time>
      </trkpt>
      <trkpt lat="45.15638" lon="5.75645">
        <ele>225</ele>
        <time>2011-05-18T07:29:50Z</time>
      </trkpt>
      <trkpt lat="45.15636" lon="5.75648">
        <ele>224</ele>
        <time>2011-05-18T07:29:51Z</time>
      </trkpt>
      <trkpt lat="45.15633" lon="5.75651">
        <ele>225</ele>
        <time>2011-05-18T07:29:52Z</time>
      </trkpt>
      <trkpt lat="45.15632" lon="5.75653">
        <ele>225</ele>
        <time>2011-05-18T07:29:53Z</time>
      </trkpt>
      <trkpt lat="45.1563" lon="5.75657">
        <ele>226</ele>
        <time>2011-05-18T07:29:54Z</time>
      </trkpt>
      <trkpt lat="45.15627" lon="5.75658">
        <ele>225</ele>
        <time>2011-05-18T07:29:55Z</time>
      </trkpt>
      <trkpt lat="45.15625" lon="5.7566">
        <ele>224</ele>
        <time>2011-05-18T07:29:56Z</time>
      </trkpt>
      <trkpt lat="45.15622" lon="5.75662">
        <ele>224</ele>
        <time>2011-05-18T07:29:57Z</time>
      </trkpt>
      <trkpt lat="45.1562" lon="5.75664">
        <ele>225</ele>
        <time>2011-05-18T07:29:58Z</time>
      </trkpt>
      <trkpt lat="45.15617" lon="5.75665">
        <ele>226</ele>
        <time>2011-05-18T07:29:59Z</time>
      </trkpt>
      <trkpt lat="45.15616" lon="5.75671">
        <ele>230</ele>
        <time>2011-05-18T07:30:00Z</time>
      </trkpt>
      <trkpt lat="45.15613" lon="5.75673">
        <ele>230</ele>
        <time>2011-05-18T07:30:01Z</time>
      </trkpt>
      <trkpt lat="45.15612" lon="5.75675">
        <ele>230</ele>
        <time>2011-05-18T07:30:02Z</time>
      </trkpt>
      <trkpt lat="45.15611" lon="5.75677">
        <ele>230</ele>
        <time>2011-05-18T07:30:03Z</time>
      </trkpt>
      <trkpt lat="45.15609" lon="5.75679">
        <ele>230</ele>
        <time>2011-05-18T07:30:04Z</time>
      </trkpt>
      <trkpt lat="45.15606" lon="5.75681">
        <ele>230</ele>
        <time>2011-05-18T07:30:05Z</time>
      </trkpt>
      <trkpt lat="45.15604" lon="5.75682">
        <ele>232</ele>
        <time>2011-05-18T07:30:06Z</time>
      </trkpt>
      <trkpt lat="45.15603" lon="5.75685">
        <ele>233</ele>
        <time>2011-05-18T07:30:07Z</time>
      </trkpt>
      <trkpt lat="45.15601" lon="5.75685">
        <ele>233</ele>
        <time>2011-05-18T07:30:08Z</time>
      </trkpt>
      <trkpt lat="45.15599" lon="5.75686">
        <ele>233</ele>
        <time>2011-05-18T07:30:09Z</time>
      </trkpt>
      <trkpt lat="45.15596" lon="5.75687">
        <ele>232</ele>
        <time>2011-05-18T07:30:10Z</time>
      </trkpt>
      <trkpt lat="45.15594" lon="5.7569">
        <ele>233</ele>
        <time>2011-05-18T07:30:11Z</time>
      </trkpt>
      <trkpt lat="45.15592" lon="5.75693">
        <ele>232</ele>
        <time>2011-05-18T07:30:12Z</time>
      </trkpt>
      <trkpt lat="45.15591" lon="5.75695">
        <ele>231</ele>
        <time>2011-05-18T07:30:13Z</time>
      </trkpt>
      <trkpt lat="45.1559" lon="5.75697">
        <ele>232</ele>
        <time>2011-05-18T07:30:14Z</time>
      </trkpt>
      <trkpt lat="45.15588" lon="5.757">
        <ele>232</ele>
        <time>2011-05-18T07:30:15Z</time>
      </trkpt>
      <trkpt lat="45.15587" lon="5.75702">
        <ele>233</ele>
        <time>2011-05-18T07:30:16Z</time>
      </trkpt>
      <trkpt lat="45.15585" lon="5.75703">
        <ele>233</ele>
        <time>2011-05-18T07:30:17Z</time>
      </trkpt>
      <trkpt lat="45.15584" lon="5.75704">
        <ele>234</ele>
        <time>2011-05-18T07:30:18Z</time>
      </trkpt>
      <trkpt lat="45.15583" lon="5.75706">
        <ele>235</ele>
        <time>2011-05-18T07:30:19Z</time>
      </trkpt>
      <trkpt lat="45.15582" lon="5.75708">
        <ele>235</ele>
        <time>2011-05-18T07:30:20Z</time>
      </trkpt>
      <trkpt lat="45.15582" lon="5.7571">
        <ele>235</ele>
        <time>2011-05-18T07:30:21Z</time>
      </trkpt>
      <trkpt lat="45.15581" lon="5.75713">
        <ele>235</ele>
        <time>2011-05-18T07:30:22Z</time>
      </trkpt>
      <trkpt lat="45.15581" lon="5.75716">
        <ele>235</ele>
        <time>2011-05-18T07:30:23Z</time>
      </trkpt>
      <trkpt lat="45.1558" lon="5.75719">
        <ele>235</ele>
        <time>2011-05-18T07:30:24Z</time>
      </trkpt>
      <trkpt lat="45.1558" lon="5.75722">
        <ele>235</ele>
        <time>2011-05-18T07:30:25Z</time>
      </trkpt>
      <trkpt lat="45.15577" lon="5.75725">
        <ele>236</ele>
        <time>2011-05-18T07:30:26Z</time>
      </trkpt>
      <trkpt lat="45.15576" lon="5.75727">
        <ele>235</ele>
        <time>2011-05-18T07:30:27Z</time>
      </trkpt>
      <trkpt lat="45.15574" lon="5.75728">
        <ele>236</ele>
        <time>2011-05-18T07:30:28Z</time>
      </trkpt>
      <trkpt lat="45.15571" lon="5.75728">
        <ele>235</ele>
        <time>2011-05-18T07:30:29Z</time>
      </trkpt>
      <trkpt lat="45.15564" lon="5.75729">
        <ele>235</ele>
        <time>2011-05-18T07:30:30Z</time>
      </trkpt>
      <trkpt lat="45.15559" lon="5.7573">
        <ele>236</ele>
        <time>2011-05-18T07:30:31Z</time>
      </trkpt>
      <trkpt lat="45.15558" lon="5.75731">
        <ele>235</ele>
        <time>2011-05-18T07:30:32Z</time>
      </trkpt>
      <trkpt lat="45.15554" lon="5.75731">
        <ele>236</ele>
        <time>2011-05-18T07:30:33Z</time>
      </trkpt>
      <trkpt lat="45.15551" lon="5.75731">
        <ele>237</ele>
        <time>2011-05-18T07:30:34Z</time>
      </trkpt>
      <trkpt lat="45.1555" lon="5.75731">
        <ele>237</ele>
        <time>2011-05-18T07:30:35Z</time>
      </trkpt>
      <trkpt lat="45.15548" lon="5.75731">
        <ele>237</ele>
        <time>2011-05-18T07:30:36Z</time>
      </trkpt>
      <trkpt lat="45.15545" lon="5.75731">
        <ele>237</ele>
        <time>2011-05-18T07:30:37Z</time>
      </trkpt>
      <trkpt lat="45.15542" lon="5.75729">
        <ele>237</ele>
        <time>2011-05-18T07:30:38Z</time>
      </trkpt>
      <trkpt lat="45.15539" lon="5.75728">
        <ele>237</ele>
        <time>2011-05-18T07:30:39Z</time>
      </trkpt>
      <trkpt lat="45.15535" lon="5.75727">
        <ele>237</ele>
        <time>2011-05-18T07:30:40Z</time>
      </trkpt>
      <trkpt lat="45.15533" lon="5.75727">
        <ele>237</ele>
        <time>2011-05-18T07:30:41Z</time>
      </trkpt>
      <trkpt lat="45.15531" lon="5.75727">
        <ele>237</ele>
        <time>2011-05-18T07:30:42Z</time>
      </trkpt>
      <trkpt lat="45.15529" lon="5.75727">
        <ele>237</ele>
        <time>2011-05-18T07:30:43Z</time>
      </trkpt>
      <trkpt lat="45.15527" lon="5.75726">
        <ele>236</ele>
        <time>2011-05-18T07:30:44Z</time>
      </trkpt>
      <trkpt lat="45.15525" lon="5.75724">
        <ele>236</ele>
        <time>2011-05-18T07:30:45Z</time>
      </trkpt>
      <trkpt lat="45.15522" lon="5.75723">
        <ele>236</ele>
        <time>2011-05-18T07:30:46Z</time>
      </trkpt>
      <trkpt lat="45.1552" lon="5.75722">
        <ele>237</ele>
        <time>2011-05-18T07:30:47Z</time>
      </trkpt>
      <trkpt lat="45.15517" lon="5.75722">
        <ele>237</ele>
        <time>2011-05-18T07:30:48Z</time>
      </trkpt>
      <trkpt lat="45.15514" lon="5.75721">
        <ele>238</ele>
        <time>2011-05-18T07:30:49Z</time>
      </trkpt>
      <trkpt lat="45.15512" lon="5.75721">
        <ele>237</ele>
        <time>2011-05-18T07:30:50Z</time>
      </trkpt>
      <trkpt lat="45.15509" lon="5.75721">
        <ele>238</ele>
        <time>2011-05-18T07:30:51Z</time>
      </trkpt>
      <trkpt lat="45.15506" lon="5.75719">
        <ele>237</ele>
        <time>2011-05-18T07:30:52Z</time>
      </trkpt>
      <trkpt lat="45.15503" lon="5.75717">
        <ele>235</ele>
        <time>2011-05-18T07:30:53Z</time>
      </trkpt>
      <trkpt lat="45.155" lon="5.75716">
        <ele>235</ele>
        <time>2011-05-18T07:30:54Z</time>
      </trkpt>
      <trkpt lat="45.15496" lon="5.75715">
        <ele>233</ele>
        <time>2011-05-18T07:30:55Z</time>
      </trkpt>
      <trkpt lat="45.15493" lon="5.75713">
        <ele>231</ele>
        <time>2011-05-18T07:30:56Z</time>
      </trkpt>
      <trkpt lat="45.1549" lon="5.75713">
        <ele>231</ele>
        <time>2011-05-18T07:30:57Z</time>
      </trkpt>
      <trkpt lat="45.15488" lon="5.75712">
        <ele>231</ele>
        <time>2011-05-18T07:30:58Z</time>
      </trkpt>
      <trkpt lat="45.15485" lon="5.75711">
        <ele>231</ele>
        <time>2011-05-18T07:30:59Z</time>
      </trkpt>
      <trkpt lat="45.15483" lon="5.75711">
        <ele>230</ele>
        <time>2011-05-18T07:31:00Z</time>
      </trkpt>
      <trkpt lat="45.1548" lon="5.75712">
        <ele>230</ele>
        <time>2011-05-18T07:31:01Z</time>
      </trkpt>
      <trkpt lat="45.15477" lon="5.75712">
        <ele>229</ele>
        <time>2011-05-18T07:31:02Z</time>
      </trkpt>
      <trkpt lat="45.15474" lon="5.75713">
        <ele>230</ele>
        <time>2011-05-18T07:31:03Z</time>
      </trkpt>
      <trkpt lat="45.15473" lon="5.75712">
        <ele>228</ele>
        <time>2011-05-18T07:31:04Z</time>
      </trkpt>
      <trkpt lat="45.15471" lon="5.75712">
        <ele>229</ele>
        <time>2011-05-18T07:31:05Z</time>
      </trkpt>
      <trkpt lat="45.15468" lon="5.75712">
        <ele>230</ele>
        <time>2011-05-18T07:31:06Z</time>
      </trkpt>
      <trkpt lat="45.15466" lon="5.75712">
        <ele>230</ele>
        <time>2011-05-18T07:31:07Z</time>
      </trkpt>
      <trkpt lat="45.15465" lon="5.75712">
        <ele>230</ele>
        <time>2011-05-18T07:31:08Z</time>
      </trkpt>
      <trkpt lat="45.15462" lon="5.75712">
        <ele>229</ele>
        <time>2011-05-18T07:31:09Z</time>
      </trkpt>
      <trkpt lat="45.15458" lon="5.75712">
        <ele>230</ele>
        <time>2011-05-18T07:31:10Z</time>
      </trkpt>
      <trkpt lat="45.15455" lon="5.75711">
        <ele>230</ele>
        <time>2011-05-18T07:31:11Z</time>
      </trkpt>
      <trkpt lat="45.15451" lon="5.7571">
        <ele>231</ele>
        <time>2011-05-18T07:31:12Z</time>
      </trkpt>
      <trkpt lat="45.15448" lon="5.7571">
        <ele>232</ele>
        <time>2011-05-18T07:31:13Z</time>
      </trkpt>
      <trkpt lat="45.15445" lon="5.75709">
        <ele>232</ele>
        <time>2011-05-18T07:31:14Z</time>
      </trkpt>
      <trkpt lat="45.15442" lon="5.75709">
        <ele>233</ele>
        <time>2011-05-18T07:31:15Z</time>
      </trkpt>
      <trkpt lat="45.15439" lon="5.7571">
        <ele>234</ele>
        <time>2011-05-18T07:31:16Z</time>
      </trkpt>
      <trkpt lat="45.15436" lon="5.7571">
        <ele>234</ele>
        <time>2011-05-18T07:31:17Z</time>
      </trkpt>
      <trkpt lat="45.15433" lon="5.7571">
        <ele>235</ele>
        <time>2011-05-18T07:31:18Z</time>
      </trkpt>
      <trkpt lat="45.15429" lon="5.75708">
        <ele>233</ele>
        <time>2011-05-18T07:31:19Z</time>
      </trkpt>
      <trkpt lat="45.15427" lon="5.75708">
        <ele>233</ele>
        <time>2011-05-18T07:31:20Z</time>
      </trkpt>
      <trkpt lat="45.15424" lon="5.75708">
        <ele>231</ele>
        <time>2011-05-18T07:31:21Z</time>
      </trkpt>
      <trkpt lat="45.15421" lon="5.75709">
        <ele>231</ele>
        <time>2011-05-18T07:31:22Z</time>
      </trkpt>
      <trkpt lat="45.15419" lon="5.7571">
        <ele>231</ele>
        <time>2011-05-18T07:31:23Z</time>
      </trkpt>
      <trkpt lat="45.15418" lon="5.75712">
        <ele>229</ele>
        <time>2011-05-18T07:31:24Z</time>
      </trkpt>
      <trkpt lat="45.15416" lon="5.75714">
        <ele>229</ele>
        <time>2011-05-18T07:31:25Z</time>
      </trkpt>
      <trkpt lat="45.15414" lon="5.75717">
        <ele>228</ele>
        <time>2011-05-18T07:31:26Z</time>
      </trkpt>
      <trkpt lat="45.15412" lon="5.7572">
        <ele>227</ele>
        <time>2011-05-18T07:31:27Z</time>
      </trkpt>
      <trkpt lat="45.1541" lon="5.75722">
        <ele>227</ele>
        <time>2011-05-18T07:31:28Z</time>
      </trkpt>
      <trkpt lat="45.15408" lon="5.75724">
        <ele>226</ele>
        <time>2011-05-18T07:31:29Z</time>
      </trkpt>
      <trkpt lat="45.15407" lon="5.75726">
        <ele>226</ele>
        <time>2011-05-18T07:31:30Z</time>
      </trkpt>
      <trkpt lat="45.15405" lon="5.75728">
        <ele>226</ele>
        <time>2011-05-18T07:31:31Z</time>
      </trkpt>
      <trkpt lat="45.15403" lon="5.75731">
        <ele>225</ele>
        <time>2011-05-18T07:31:32Z</time>
      </trkpt>
      <trkpt lat="45.15402" lon="5.75734">
        <ele>225</ele>
        <time>2011-05-18T07:31:33Z</time>
      </trkpt>
      <trkpt lat="45.154" lon="5.75737">
        <ele>225</ele>
        <time>2011-05-18T07:31:34Z</time>
      </trkpt>
      <trkpt lat="45.15399" lon="5.7574">
        <ele>226</ele>
        <time>2011-05-18T07:31:35Z</time>
      </trkpt>
      <trkpt lat="45.15397" lon="5.75742">
        <ele>227</ele>
        <time>2011-05-18T07:31:36Z</time>
      </trkpt>
      <trkpt lat="45.15395" lon="5.75743">
        <ele>228</ele>
        <time>2011-05-18T07:31:37Z</time>
      </trkpt>
      <trkpt lat="45.15393" lon="5.75745">
        <ele>227</ele>
        <time>2011-05-18T07:31:38Z</time>
      </trkpt>
      <trkpt lat="45.15392" lon="5.75747">
        <ele>227</ele>
        <time>2011-05-18T07:31:39Z</time>
      </trkpt>
      <trkpt lat="45.1539" lon="5.75748">
        <ele>228</ele>
        <time>2011-05-18T07:31:40Z</time>
      </trkpt>
      <trkpt lat="45.1539" lon="5.7575">
        <ele>228</ele>
        <time>2011-05-18T07:31:41Z</time>
      </trkpt>
      <trkpt lat="45.15388" lon="5.75752">
        <ele>228</ele>
        <time>2011-05-18T07:31:42Z</time>
      </trkpt>
      <trkpt lat="45.15387" lon="5.75755">
        <ele>228</ele>
        <time>2011-05-18T07:31:43Z</time>
      </trkpt>
      <trkpt lat="45.15385" lon="5.75757">
        <ele>229</ele>
        <time>2011-05-18T07:31:44Z</time>
      </trkpt>
      <trkpt lat="45.15382" lon="5.7576">
        <ele>230</ele>
        <time>2011-05-18T07:31:45Z</time>
      </trkpt>
      <trkpt lat="45.1538" lon="5.75762">
        <ele>230</ele>
        <time>2011-05-18T07:31:46Z</time>
      </trkpt>
      <trkpt lat="45.1538" lon="5.75764">
        <ele>231</ele>
        <time>2011-05-18T07:31:47Z</time>
      </trkpt>
      <trkpt lat="45.15379" lon="5.75765">
        <ele>231</ele>
        <time>2011-05-18T07:31:48Z</time>
      </trkpt>
      <trkpt lat="45.15377" lon="5.75765">
        <ele>232</ele>
        <time>2011-05-18T07:31:49Z</time>
      </trkpt>
      <trkpt lat="45.15374" lon="5.75765">
        <ele>233</ele>
        <time>2011-05-18T07:31:50Z</time>
      </trkpt>
      <trkpt lat="45.15372" lon="5.75764">
        <ele>232</ele>
        <time>2011-05-18T07:31:51Z</time>
      </trkpt>
      <trkpt lat="45.1537" lon="5.75763">
        <ele>232</ele>
        <time>2011-05-18T07:31:52Z</time>
      </trkpt>
      <trkpt lat="45.15368" lon="5.75762">
        <ele>232</ele>
        <time>2011-05-18T07:31:53Z</time>
      </trkpt>
      <trkpt lat="45.15368" lon="5.75761">
        <ele>232</ele>
        <time>2011-05-18T07:31:54Z</time>
      </trkpt>
      <trkpt lat="45.15366" lon="5.75759">
        <ele>232</ele>
        <time>2011-05-18T07:31:55Z</time>
      </trkpt>
      <trkpt lat="45.15365" lon="5.75757">
        <ele>233</ele>
        <time>2011-05-18T07:31:56Z</time>
      </trkpt>
      <trkpt lat="45.15365" lon="5.75755">
        <ele>233</ele>
        <time>2011-05-18T07:31:57Z</time>
      </trkpt>
      <trkpt lat="45.15364" lon="5.75753">
        <ele>233</ele>
        <time>2011-05-18T07:31:58Z</time>
      </trkpt>
      <trkpt lat="45.15363" lon="5.75749">
        <ele>234</ele>
        <time>2011-05-18T07:31:59Z</time>
      </trkpt>
      <trkpt lat="45.15361" lon="5.75748">
        <ele>234</ele>
        <time>2011-05-18T07:32:00Z</time>
      </trkpt>
      <trkpt lat="45.15359" lon="5.75746">
        <ele>234</ele>
        <time>2011-05-18T07:32:01Z</time>
      </trkpt>
      <trkpt lat="45.15357" lon="5.75746">
        <ele>234</ele>
        <time>2011-05-18T07:32:02Z</time>
      </trkpt>
      <trkpt lat="45.15356" lon="5.75745">
        <ele>234</ele>
        <time>2011-05-18T07:32:03Z</time>
      </trkpt>
      <trkpt lat="45.15355" lon="5.75746">
        <ele>234</ele>
        <time>2011-05-18T07:32:04Z</time>
      </trkpt>
      <trkpt lat="45.15355" lon="5.75746">
        <ele>234</ele>
        <time>2011-05-18T07:32:05Z</time>
      </trkpt>
      <trkpt lat="45.15354" lon="5.75747">
        <ele>234</ele>
        <time>2011-05-18T07:32:06Z</time>
      </trkpt>
      <trkpt lat="45.15354" lon="5.75749">
        <ele>234</ele>
        <time>2011-05-18T07:32:07Z</time>
      </trkpt>
      <trkpt lat="45.15354" lon="5.75751">
        <ele>234</ele>
        <time>2011-05-18T07:32:08Z</time>
      </trkpt>
      <trkpt lat="45.15355" lon="5.75753">
        <ele>234</ele>
        <time>2011-05-18T07:32:09Z</time>
      </trkpt>
      <trkpt lat="45.15355" lon="5.75754">
        <ele>234</ele>
        <time>2011-05-18T07:32:10Z</time>
      </trkpt>
      <trkpt lat="45.15356" lon="5.75755">
        <ele>234</ele>
        <time>2011-05-18T07:32:11Z</time>
      </trkpt>
      <trkpt lat="45.15355" lon="5.75759">
        <ele>234</ele>
        <time>2011-05-18T07:32:12Z</time>
      </trkpt>
      <trkpt lat="45.15355" lon="5.75761">
        <ele>234</ele>
        <time>2011-05-18T07:32:13Z</time>
      </trkpt>
      <trkpt lat="45.15357" lon="5.75764">
        <ele>234</ele>
        <time>2011-05-18T07:32:14Z</time>
      </trkpt>
      <trkpt lat="45.15356" lon="5.75767">
        <ele>234</ele>
        <time>2011-05-18T07:32:15Z</time>
      </trkpt>
      <trkpt lat="45.15355" lon="5.7577">
        <ele>234</ele>
        <time>2011-05-18T07:32:16Z</time>
      </trkpt>
      <trkpt lat="45.15358" lon="5.75772">
        <ele>234</ele>
        <time>2011-05-18T07:32:17Z</time>
      </trkpt>
      <trkpt lat="45.1536" lon="5.75774">
        <ele>234</ele>
        <time>2011-05-18T07:32:18Z</time>
      </trkpt>
      <trkpt lat="45.15359" lon="5.75778">
        <ele>234</ele>
        <time>2011-05-18T07:32:19Z</time>
      </trkpt>
      <trkpt lat="45.15358" lon="5.75782">
        <ele>234</ele>
        <time>2011-05-18T07:32:20Z</time>
      </trkpt>
      <trkpt lat="45.15358" lon="5.75785">
        <ele>234</ele>
        <time>2011-05-18T07:32:21Z</time>
      </trkpt>
      <trkpt lat="45.15358" lon="5.75791">
        <ele>234</ele>
        <time>2011-05-18T07:32:22Z</time>
      </trkpt>
      <trkpt lat="45.15361" lon="5.75797">
        <ele>234</ele>
        <time>2011-05-18T07:32:23Z</time>
      </trkpt>
      <trkpt lat="45.15362" lon="5.75801">
        <ele>234</ele>
        <time>2011-05-18T07:32:24Z</time>
      </trkpt>
      <trkpt lat="45.15364" lon="5.75805">
        <ele>234</ele>
        <time>2011-05-18T07:32:25Z</time>
      </trkpt>
      <trkpt lat="45.15365" lon="5.75808">
        <ele>234</ele>
        <time>2011-05-18T07:32:26Z</time>
      </trkpt>
      <trkpt lat="45.15367" lon="5.75811">
        <ele>234</ele>
        <time>2011-05-18T07:32:27Z</time>
      </trkpt>
      <trkpt lat="45.15368" lon="5.75814">
        <ele>233</ele>
        <time>2011-05-18T07:32:28Z</time>
      </trkpt>
      <trkpt lat="45.15369" lon="5.75817">
        <ele>233</ele>
        <time>2011-05-18T07:32:29Z</time>
      </trkpt>
      <trkpt lat="45.1537" lon="5.75819">
        <ele>233</ele>
        <time>2011-05-18T07:32:30Z</time>
      </trkpt>
      <trkpt lat="45.15374" lon="5.75821">
        <ele>233</ele>
        <time>2011-05-18T07:32:31Z</time>
      </trkpt>
      <trkpt lat="45.15375" lon="5.75824">
        <ele>233</ele>
        <time>2011-05-18T07:32:32Z</time>
      </trkpt>
      <trkpt lat="45.15377" lon="5.75826">
        <ele>233</ele>
        <time>2011-05-18T07:32:33Z</time>
      </trkpt>
      <trkpt lat="45.15378" lon="5.75828">
        <ele>234</ele>
        <time>2011-05-18T07:32:34Z</time>
      </trkpt>
      <trkpt lat="45.15377" lon="5.7583">
        <ele>234</ele>
        <time>2011-05-18T07:32:35Z</time>
      </trkpt>
      <trkpt lat="45.15378" lon="5.75832">
        <ele>234</ele>
        <time>2011-05-18T07:32:36Z</time>
      </trkpt>
      <trkpt lat="45.1538" lon="5.75835">
        <ele>233</ele>
        <time>2011-05-18T07:32:37Z</time>
      </trkpt>
      <trkpt lat="45.15381" lon="5.75838">
        <ele>233</ele>
        <time>2011-05-18T07:32:38Z</time>
      </trkpt>
      <trkpt lat="45.15381" lon="5.7584">
        <ele>234</ele>
        <time>2011-05-18T07:32:39Z</time>
      </trkpt>
      <trkpt lat="45.15382" lon="5.75843">
        <ele>234</ele>
        <time>2011-05-18T07:32:40Z</time>
      </trkpt>
      <trkpt lat="45.15386" lon="5.75846">
        <ele>234</ele>
        <time>2011-05-18T07:32:41Z</time>
      </trkpt>
      <trkpt lat="45.15387" lon="5.75847">
        <ele>234</ele>
        <time>2011-05-18T07:32:42Z</time>
      </trkpt>
      <trkpt lat="45.15388" lon="5.75851">
        <ele>235</ele>
        <time>2011-05-18T07:32:43Z</time>
      </trkpt>
      <trkpt lat="45.15389" lon="5.75854">
        <ele>235</ele>
        <time>2011-05-18T07:32:44Z</time>
      </trkpt>
      <trkpt lat="45.15392" lon="5.75854">
        <ele>236</ele>
        <time>2011-05-18T07:32:45Z</time>
      </trkpt>
      <trkpt lat="45.15391" lon="5.75855">
        <ele>236</ele>
        <time>2011-05-18T07:32:46Z</time>
      </trkpt>
      <trkpt lat="45.15391" lon="5.75855">
        <ele>236</ele>
        <time>2011-05-18T07:32:47Z</time>
      </trkpt>
      <trkpt lat="45.15393" lon="5.75855">
        <ele>237</ele>
        <time>2011-05-18T07:32:48Z</time>
      </trkpt>
      <trkpt lat="45.15395" lon="5.75856">
        <ele>236</ele>
        <time>2011-05-18T07:32:49Z</time>
      </trkpt>
      <trkpt lat="45.15397" lon="5.75856">
        <ele>237</ele>
        <time>2011-05-18T07:32:50Z</time>
      </trkpt>
      <trkpt lat="45.15397" lon="5.75857">
        <ele>237</ele>
        <time>2011-05-18T07:32:51Z</time>
      </trkpt>
      <trkpt lat="45.15398" lon="5.75858">
        <ele>237</ele>
        <time>2011-05-18T07:32:52Z</time>
      </trkpt>
      <trkpt lat="45.15399" lon="5.75859">
        <ele>238</ele>
        <time>2011-05-18T07:32:53Z</time>
      </trkpt>
      <trkpt lat="45.154" lon="5.7586">
        <ele>238</ele>
        <time>2011-05-18T07:32:54Z</time>
      </trkpt>
      <trkpt lat="45.15399" lon="5.75862">
        <ele>238</ele>
        <time>2011-05-18T07:32:55Z</time>
      </trkpt>
      <trkpt lat="45.154" lon="5.75863">
        <ele>238</ele>
        <time>2011-05-18T07:32:56Z</time>
      </trkpt>
      <trkpt lat="45.154" lon="5.75866">
        <ele>239</ele>
        <time>2011-05-18T07:32:57Z</time>
      </trkpt>
      <trkpt lat="45.15402" lon="5.75867">
        <ele>239</ele>
        <time>2011-05-18T07:32:58Z</time>
      </trkpt>
      <trkpt lat="45.15402" lon="5.7587">
        <ele>239</ele>
        <time>2011-05-18T07:32:59Z</time>
      </trkpt>
      <trkpt lat="45.15403" lon="5.75872">
        <ele>239</ele>
        <time>2011-05-18T07:33:00Z</time>
      </trkpt>
      <trkpt lat="45.15406" lon="5.75874">
        <ele>239</ele>
        <time>2011-05-18T07:33:01Z</time>
      </trkpt>
      <trkpt lat="45.15408" lon="5.75878">
        <ele>240</ele>
        <time>2011-05-18T07:33:02Z</time>
      </trkpt>
      <trkpt lat="45.15413" lon="5.7588">
        <ele>241</ele>
        <time>2011-05-18T07:33:03Z</time>
      </trkpt>
      <trkpt lat="45.15416" lon="5.75881">
        <ele>241</ele>
        <time>2011-05-18T07:33:04Z</time>
      </trkpt>
      <trkpt lat="45.15419" lon="5.75881">
        <ele>242</ele>
        <time>2011-05-18T07:33:05Z</time>
      </trkpt>
      <trkpt lat="45.1542" lon="5.75882">
        <ele>243</ele>
        <time>2011-05-18T07:33:06Z</time>
      </trkpt>
      <trkpt lat="45.15421" lon="5.75883">
        <ele>244</ele>
        <time>2011-05-18T07:33:07Z</time>
      </trkpt>
      <trkpt lat="45.15421" lon="5.75885">
        <ele>244</ele>
        <time>2011-05-18T07:33:08Z</time>
      </trkpt>
      <trkpt lat="45.15422" lon="5.75888">
        <ele>244</ele>
        <time>2011-05-18T07:33:09Z</time>
      </trkpt>
      <trkpt lat="45.15423" lon="5.75891">
        <ele>243</ele>
        <time>2011-05-18T07:33:10Z</time>
      </trkpt>
      <trkpt lat="45.15423" lon="5.75892">
        <ele>244</ele>
        <time>2011-05-18T07:33:11Z</time>
      </trkpt>
      <trkpt lat="45.15424" lon="5.75895">
        <ele>244</ele>
        <time>2011-05-18T07:33:12Z</time>
      </trkpt>
      <trkpt lat="45.15426" lon="5.75898">
        <ele>244</ele>
        <time>2011-05-18T07:33:13Z</time>
      </trkpt>
      <trkpt lat="45.15426" lon="5.759">
        <ele>244</ele>
        <time>2011-05-18T07:33:14Z</time>
      </trkpt>
      <trkpt lat="45.15426" lon="5.75901">
        <ele>246</ele>
        <time>2011-05-18T07:33:15Z</time>
      </trkpt>
      <trkpt lat="45.15427" lon="5.75904">
        <ele>247</ele>
        <time>2011-05-18T07:33:16Z</time>
      </trkpt>
      <trkpt lat="45.15427" lon="5.75906">
        <ele>247</ele>
        <time>2011-05-18T07:33:17Z</time>
      </trkpt>
      <trkpt lat="45.15429" lon="5.75908">
        <ele>248</ele>
        <time>2011-05-18T07:33:18Z</time>
      </trkpt>
      <trkpt lat="45.15431" lon="5.7591">
        <ele>249</ele>
        <time>2011-05-18T07:33:19Z</time>
      </trkpt>
      <trkpt lat="45.15432" lon="5.75911">
        <ele>249</ele>
        <time>2011-05-18T07:33:20Z</time>
      </trkpt>
      <trkpt lat="45.15434" lon="5.75914">
        <ele>249</ele>
        <time>2011-05-18T07:33:21Z</time>
      </trkpt>
      <trkpt lat="45.15433" lon="5.7592">
        <ele>250</ele>
        <time>2011-05-18T07:33:22Z</time>
      </trkpt>
      <trkpt lat="45.15434" lon="5.75923">
        <ele>250</ele>
        <time>2011-05-18T07:33:23Z</time>
      </trkpt>
      <trkpt lat="45.15435" lon="5.75927">
        <ele>250</ele>
        <time>2011-05-18T07:33:24Z</time>
      </trkpt>
      <trkpt lat="45.15436" lon="5.75929">
        <ele>251</ele>
        <time>2011-05-18T07:33:25Z</time>
      </trkpt>
      <trkpt lat="45.15438" lon="5.75933">
        <ele>250</ele>
        <time>2011-05-18T07:33:26Z</time>
      </trkpt>
      <trkpt lat="45.15439" lon="5.75936">
        <ele>251</ele>
        <time>2011-05-18T07:33:27Z</time>
      </trkpt>
      <trkpt lat="45.1544" lon="5.75939">
        <ele>251</ele>
        <time>2011-05-18T07:33:28Z</time>
      </trkpt>
      <trkpt lat="45.1544" lon="5.75941">
        <ele>251</ele>
        <time>2011-05-18T07:33:29Z</time>
      </trkpt>
      <trkpt lat="45.15439" lon="5.75944">
        <ele>252</ele>
        <time>2011-05-18T07:33:30Z</time>
      </trkpt>
      <trkpt lat="45.15439" lon="5.75947">
        <ele>252</ele>
        <time>2011-05-18T07:33:31Z</time>
      </trkpt>
      <trkpt lat="45.15439" lon="5.75949">
        <ele>253</ele>
        <time>2011-05-18T07:33:32Z</time>
      </trkpt>
      <trkpt lat="45.1544" lon="5.7595">
        <ele>253</ele>
        <time>2011-05-18T07:33:33Z</time>
      </trkpt>
      <trkpt lat="45.15441" lon="5.75953">
        <ele>254</ele>
        <time>2011-05-18T07:33:34Z</time>
      </trkpt>
      <trkpt lat="45.15442" lon="5.75955">
        <ele>255</ele>
        <time>2011-05-18T07:33:35Z</time>
      </trkpt>
      <trkpt lat="45.15443" lon="5.75957">
        <ele>255</ele>
        <time>2011-05-18T07:33:36Z</time>
      </trkpt>
      <trkpt lat="45.15443" lon="5.7596">
        <ele>255</ele>
        <time>2011-05-18T07:33:37Z</time>
      </trkpt>
      <trkpt lat="45.15445" lon="5.75963">
        <ele>256</ele>
        <time>2011-05-18T07:33:38Z</time>
      </trkpt>
      <trkpt lat="45.15446" lon="5.75968">
        <ele>256</ele>
        <time>2011-05-18T07:33:39Z</time>
      </trkpt>
      <trkpt lat="45.15447" lon="5.75971">
        <ele>257</ele>
        <time>2011-05-18T07:33:40Z</time>
      </trkpt>
      <trkpt lat="45.15446" lon="5.75974">
        <ele>257</ele>
        <time>2011-05-18T07:33:41Z</time>
      </trkpt>
      <trkpt lat="45.15446" lon="5.75978">
        <ele>257</ele>
        <time>2011-05-18T07:33:42Z</time>
      </trkpt>
      <trkpt lat="45.15447" lon="5.75982">
        <ele>257</ele>
        <time>2011-05-18T07:33:43Z</time>
      </trkpt>
      <trkpt lat="45.15447" lon="5.75985">
        <ele>257</ele>
        <time>2011-05-18T07:33:44Z</time>
      </trkpt>
      <trkpt lat="45.15448" lon="5.75987">
        <ele>257</ele>
        <time>2011-05-18T07:33:45Z</time>
      </trkpt>
      <trkpt lat="45.15447" lon="5.75989">
        <ele>257</ele>
        <time>2011-05-18T07:33:46Z</time>
      </trkpt>
      <trkpt lat="45.15448" lon="5.75991">
        <ele>258</ele>
        <time>2011-05-18T07:33:47Z</time>
      </trkpt>
      <trkpt lat="45.15448" lon="5.75994">
        <ele>258</ele>
        <time>2011-05-18T07:33:48Z</time>
      </trkpt>
      <trkpt lat="45.15448" lon="5.75998">
        <ele>258</ele>
        <time>2011-05-18T07:33:49Z</time>
      </trkpt>
      <trkpt lat="45.15449" lon="5.76001">
        <ele>258</ele>
        <time>2011-05-18T07:33:50Z</time>
      </trkpt>
      <trkpt lat="45.15451" lon="5.76005">
        <ele>257</ele>
        <time>2011-05-18T07:33:51Z</time>
      </trkpt>
      <trkpt lat="45.15451" lon="5.76007">
        <ele>256</ele>
        <time>2011-05-18T07:33:52Z</time>
      </trkpt>
      <trkpt lat="45.15452" lon="5.76013">
        <ele>255</ele>
        <time>2011-05-18T07:33:53Z</time>
      </trkpt>
      <trkpt lat="45.15453" lon="5.76017">
        <ele>255</ele>
        <time>2011-05-18T07:33:54Z</time>
      </trkpt>
      <trkpt lat="45.15453" lon="5.7602">
        <ele>255</ele>
        <time>2011-05-18T07:33:55Z</time>
      </trkpt>
      <trkpt lat="45.15452" lon="5.76027">
        <ele>256</ele>
        <time>2011-05-18T07:33:56Z</time>
      </trkpt>
      <trkpt lat="45.15453" lon="5.7603">
        <ele>256</ele>
        <time>2011-05-18T07:33:57Z</time>
      </trkpt>
      <trkpt lat="45.15455" lon="5.76033">
        <ele>257</ele>
        <time>2011-05-18T07:33:58Z</time>
      </trkpt>
      <trkpt lat="45.15456" lon="5.76035">
        <ele>257</ele>
        <time>2011-05-18T07:33:59Z</time>
      </trkpt>
      <trkpt lat="45.15456" lon="5.76037">
        <ele>257</ele>
        <time>2011-05-18T07:34:00Z</time>
      </trkpt>
      <trkpt lat="45.15457" lon="5.76041">
        <ele>257</ele>
        <time>2011-05-18T07:34:01Z</time>
      </trkpt>
      <trkpt lat="45.15457" lon="5.76044">
        <ele>257</ele>
        <time>2011-05-18T07:34:02Z</time>
      </trkpt>
      <trkpt lat="45.15456" lon="5.76046">
        <ele>258</ele>
        <time>2011-05-18T07:34:03Z</time>
      </trkpt>
      <trkpt lat="45.15457" lon="5.76049">
        <ele>258</ele>
        <time>2011-05-18T07:34:04Z</time>
      </trkpt>
      <trkpt lat="45.15459" lon="5.76054">
        <ele>259</ele>
        <time>2011-05-18T07:34:05Z</time>
      </trkpt>
      <trkpt lat="45.1546" lon="5.76059">
        <ele>260</ele>
        <time>2011-05-18T07:34:06Z</time>
      </trkpt>
      <trkpt lat="45.1546" lon="5.76062">
        <ele>260</ele>
        <time>2011-05-18T07:34:07Z</time>
      </trkpt>
      <trkpt lat="45.15462" lon="5.76067">
        <ele>261</ele>
        <time>2011-05-18T07:34:08Z</time>
      </trkpt>
      <trkpt lat="45.15465" lon="5.76072">
        <ele>262</ele>
        <time>2011-05-18T07:34:09Z</time>
      </trkpt>
      <trkpt lat="45.15469" lon="5.76076">
        <ele>262</ele>
        <time>2011-05-18T07:34:10Z</time>
      </trkpt>
      <trkpt lat="45.15469" lon="5.76079">
        <ele>262</ele>
        <time>2011-05-18T07:34:11Z</time>
      </trkpt>
      <trkpt lat="45.15469" lon="5.7608">
        <ele>263</ele>
        <time>2011-05-18T07:34:12Z</time>
      </trkpt>
      <trkpt lat="45.1547" lon="5.76083">
        <ele>263</ele>
        <time>2011-05-18T07:34:13Z</time>
      </trkpt>
      <trkpt lat="45.1547" lon="5.76085">
        <ele>263</ele>
        <time>2011-05-18T07:34:14Z</time>
      </trkpt>
      <trkpt lat="45.15471" lon="5.76088">
        <ele>263</ele>
        <time>2011-05-18T07:34:15Z</time>
      </trkpt>
      <trkpt lat="45.15471" lon="5.7609">
        <ele>263</ele>
        <time>2011-05-18T07:34:16Z</time>
      </trkpt>
      <trkpt lat="45.15473" lon="5.76092">
        <ele>264</ele>
        <time>2011-05-18T07:34:17Z</time>
      </trkpt>
      <trkpt lat="45.15474" lon="5.76094">
        <ele>264</ele>
        <time>2011-05-18T07:34:18Z</time>
      </trkpt>
      <trkpt lat="45.15474" lon="5.76097">
        <ele>264</ele>
        <time>2011-05-18T07:34:19Z</time>
      </trkpt>
      <trkpt lat="45.15474" lon="5.76098">
        <ele>265</ele>
        <time>2011-05-18T07:34:20Z</time>
      </trkpt>
      <trkpt lat="45.15471" lon="5.761">
        <ele>265</ele>
        <time>2011-05-18T07:34:21Z</time>
      </trkpt>
      <trkpt lat="45.15469" lon="5.76102">
        <ele>265</ele>
        <time>2011-05-18T07:34:22Z</time>
      </trkpt>
      <trkpt lat="45.15464" lon="5.76106">
        <ele>265</ele>
        <time>2011-05-18T07:34:23Z</time>
      </trkpt>
      <trkpt lat="45.15463" lon="5.76107">
        <ele>265</ele>
        <time>2011-05-18T07:34:24Z</time>
      </trkpt>
      <trkpt lat="45.15462" lon="5.76109">
        <ele>264</ele>
        <time>2011-05-18T07:34:25Z</time>
      </trkpt>
      <trkpt lat="45.15461" lon="5.76112">
        <ele>264</ele>
        <time>2011-05-18T07:34:26Z</time>
      </trkpt>
      <trkpt lat="45.1546" lon="5.76112">
        <ele>265</ele>
        <time>2011-05-18T07:34:27Z</time>
      </trkpt>
      <trkpt lat="45.15458" lon="5.76114">
        <ele>264</ele>
        <time>2011-05-18T07:34:28Z</time>
      </trkpt>
      <trkpt lat="45.15458" lon="5.76114">
        <ele>265</ele>
        <time>2011-05-18T07:34:29Z</time>
      </trkpt>
      <trkpt lat="45.15458" lon="5.76116">
        <ele>265</ele>
        <time>2011-05-18T07:34:30Z</time>
      </trkpt>
      <trkpt lat="45.15459" lon="5.76118">
        <ele>265</ele>
        <time>2011-05-18T07:34:31Z</time>
      </trkpt>
      <trkpt lat="45.15459" lon="5.76119">
        <ele>264</ele>
        <time>2011-05-18T07:34:32Z</time>
      </trkpt>
      <trkpt lat="45.15459" lon="5.76121">
        <ele>264</ele>
        <time>2011-05-18T07:34:33Z</time>
      </trkpt>
      <trkpt lat="45.15459" lon="5.76123">
        <ele>263</ele>
        <time>2011-05-18T07:34:34Z</time>
      </trkpt>
      <trkpt lat="45.15456" lon="5.76126">
        <ele>263</ele>
        <time>2011-05-18T07:34:35Z</time>
      </trkpt>
      <trkpt lat="45.15456" lon="5.76128">
        <ele>261</ele>
        <time>2011-05-18T07:34:36Z</time>
      </trkpt>
      <trkpt lat="45.15456" lon="5.7613">
        <ele>261</ele>
        <time>2011-05-18T07:34:37Z</time>
      </trkpt>
      <trkpt lat="45.15453" lon="5.76132">
        <ele>262</ele>
        <time>2011-05-18T07:34:38Z</time>
      </trkpt>
      <trkpt lat="45.15453" lon="5.76134">
        <ele>262</ele>
        <time>2011-05-18T07:34:39Z</time>
      </trkpt>
      <trkpt lat="45.15451" lon="5.76138">
        <ele>262</ele>
        <time>2011-05-18T07:34:40Z</time>
      </trkpt>
      <trkpt lat="45.1545" lon="5.76141">
        <ele>262</ele>
        <time>2011-05-18T07:34:41Z</time>
      </trkpt>
      <trkpt lat="45.15448" lon="5.76143">
        <ele>262</ele>
        <time>2011-05-18T07:34:42Z</time>
      </trkpt>
      <trkpt lat="45.15448" lon="5.76145">
        <ele>261</ele>
        <time>2011-05-18T07:34:43Z</time>
      </trkpt>
      <trkpt lat="45.15447" lon="5.76147">
        <ele>261</ele>
        <time>2011-05-18T07:34:44Z</time>
      </trkpt>
      <trkpt lat="45.15445" lon="5.76147">
        <ele>260</ele>
        <time>2011-05-18T07:34:45Z</time>
      </trkpt>
      <trkpt lat="45.15443" lon="5.76147">
        <ele>261</ele>
        <time>2011-05-18T07:34:46Z</time>
      </trkpt>
      <trkpt lat="45.15439" lon="5.76147">
        <ele>260</ele>
        <time>2011-05-18T07:34:47Z</time>
      </trkpt>
      <trkpt lat="45.15438" lon="5.76147">
        <ele>258</ele>
        <time>2011-05-18T07:34:48Z</time>
      </trkpt>
      <trkpt lat="45.15436" lon="5.76147">
        <ele>258</ele>
        <time>2011-05-18T07:34:49Z</time>
      </trkpt>
      <trkpt lat="45.15435" lon="5.76148">
        <ele>258</ele>
        <time>2011-05-18T07:34:50Z</time>
      </trkpt>
      <trkpt lat="45.15433" lon="5.76149">
        <ele>259</ele>
        <time>2011-05-18T07:34:51Z</time>
      </trkpt>
      <trkpt lat="45.15432" lon="5.7615">
        <ele>259</ele>
        <time>2011-05-18T07:34:52Z</time>
      </trkpt>
      <trkpt lat="45.1543" lon="5.76152">
        <ele>259</ele>
        <time>2011-05-18T07:34:53Z</time>
      </trkpt>
      <trkpt lat="45.15427" lon="5.76154">
        <ele>259</ele>
        <time>2011-05-18T07:34:54Z</time>
      </trkpt>
      <trkpt lat="45.15424" lon="5.76155">
        <ele>259</ele>
        <time>2011-05-18T07:34:55Z</time>
      </trkpt>
      <trkpt lat="45.15423" lon="5.76156">
        <ele>259</ele>
        <time>2011-05-18T07:34:56Z</time>
      </trkpt>
      <trkpt lat="45.15421" lon="5.76156">
        <ele>259</ele>
        <time>2011-05-18T07:34:57Z</time>
      </trkpt>
      <trkpt lat="45.15419" lon="5.76158">
        <ele>260</ele>
        <time>2011-05-18T07:34:58Z</time>
      </trkpt>
      <trkpt lat="45.15418" lon="5.76159">
        <ele>260</ele>
        <time>2011-05-18T07:34:59Z</time>
      </trkpt>
      <trkpt lat="45.15416" lon="5.76158">
        <ele>260</ele>
        <time>2011-05-18T07:35:00Z</time>
      </trkpt>
      <trkpt lat="45.15412" lon="5.76159">
        <ele>261</ele>
        <time>2011-05-18T07:35:01Z</time>
      </trkpt>
      <trkpt lat="45.1541" lon="5.76155">
        <ele>261</ele>
        <time>2011-05-18T07:35:02Z</time>
      </trkpt>
      <trkpt lat="45.15407" lon="5.76158">
        <ele>262</ele>
        <time>2011-05-18T07:35:03Z</time>
      </trkpt>
      <trkpt lat="45.15405" lon="5.76159">
        <ele>262</ele>
        <time>2011-05-18T07:35:04Z</time>
      </trkpt>
      <trkpt lat="45.15405" lon="5.7616">
        <ele>262</ele>
        <time>2011-05-18T07:35:05Z</time>
      </trkpt>
      <trkpt lat="45.15403" lon="5.76161">
        <ele>262</ele>
        <time>2011-05-18T07:35:06Z</time>
      </trkpt>
      <trkpt lat="45.15403" lon="5.76162">
        <ele>262</ele>
        <time>2011-05-18T07:35:07Z</time>
      </trkpt>
      <trkpt lat="45.15402" lon="5.76162">
        <ele>262</ele>
        <time>2011-05-18T07:35:08Z</time>
      </trkpt>
      <trkpt lat="45.15402" lon="5.76163">
        <ele>262</ele>
        <time>2011-05-18T07:35:09Z</time>
      </trkpt>
      <trkpt lat="45.15401" lon="5.76165">
        <ele>262</ele>
        <time>2011-05-18T07:35:10Z</time>
      </trkpt>
      <trkpt lat="45.154" lon="5.76166">
        <ele>263</ele>
        <time>2011-05-18T07:35:11Z</time>
      </trkpt>
      <trkpt lat="45.15399" lon="5.76169">
        <ele>263</ele>
        <time>2011-05-18T07:35:12Z</time>
      </trkpt>
      <trkpt lat="45.15397" lon="5.7617">
        <ele>263</ele>
        <time>2011-05-18T07:35:13Z</time>
      </trkpt>
      <trkpt lat="45.15396" lon="5.76173">
        <ele>263</ele>
        <time>2011-05-18T07:35:14Z</time>
      </trkpt>
      <trkpt lat="45.15395" lon="5.76175">
        <ele>263</ele>
        <time>2011-05-18T07:35:15Z</time>
      </trkpt>
      <trkpt lat="45.15394" lon="5.76176">
        <ele>264</ele>
        <time>2011-05-18T07:35:16Z</time>
      </trkpt>
      <trkpt lat="45.15393" lon="5.76178">
        <ele>264</ele>
        <time>2011-05-18T07:35:17Z</time>
      </trkpt>
      <trkpt lat="45.15393" lon="5.76179">
        <ele>265</ele>
        <time>2011-05-18T07:35:18Z</time>
      </trkpt>
      <trkpt lat="45.1539" lon="5.7618">
        <ele>266</ele>
        <time>2011-05-18T07:35:19Z</time>
      </trkpt>
      <trkpt lat="45.15389" lon="5.76181">
        <ele>267</ele>
        <time>2011-05-18T07:35:20Z</time>
      </trkpt>
      <trkpt lat="45.15388" lon="5.76182">
        <ele>266</ele>
        <time>2011-05-18T07:35:21Z</time>
      </trkpt>
      <trkpt lat="45.15387" lon="5.76182">
        <ele>267</ele>
        <time>2011-05-18T07:35:22Z</time>
      </trkpt>
      <trkpt lat="45.15386" lon="5.76183">
        <ele>267</ele>
        <time>2011-05-18T07:35:23Z</time>
      </trkpt>
      <trkpt lat="45.15386" lon="5.76184">
        <ele>267</ele>
        <time>2011-05-18T07:35:24Z</time>
      </trkpt>
      <trkpt lat="45.15385" lon="5.76185">
        <ele>267</ele>
        <time>2011-05-18T07:35:25Z</time>
      </trkpt>
      <trkpt lat="45.15383" lon="5.76187">
        <ele>267</ele>
        <time>2011-05-18T07:35:26Z</time>
      </trkpt>
      <trkpt lat="45.15382" lon="5.76188">
        <ele>267</ele>
        <time>2011-05-18T07:35:27Z</time>
      </trkpt>
      <trkpt lat="45.15381" lon="5.76188">
        <ele>267</ele>
        <time>2011-05-18T07:35:28Z</time>
      </trkpt>
      <trkpt lat="45.1538" lon="5.76188">
        <ele>267</ele>
        <time>2011-05-18T07:35:29Z</time>
      </trkpt>
      <trkpt lat="45.15378" lon="5.76187">
        <ele>267</ele>
        <time>2011-05-18T07:35:30Z</time>
      </trkpt>
      <trkpt lat="45.15377" lon="5.76186">
        <ele>268</ele>
        <time>2011-05-18T07:35:31Z</time>
      </trkpt>
      <trkpt lat="45.15376" lon="5.76183">
        <ele>268</ele>
        <time>2011-05-18T07:35:32Z</time>
      </trkpt>
      <trkpt lat="45.15374" lon="5.76183">
        <ele>268</ele>
        <time>2011-05-18T07:35:33Z</time>
      </trkpt>
      <trkpt lat="45.15373" lon="5.76183">
        <ele>267</ele>
        <time>2011-05-18T07:35:34Z</time>
      </trkpt>
      <trkpt lat="45.15371" lon="5.76183">
        <ele>268</ele>
        <time>2011-05-18T07:35:35Z</time>
      </trkpt>
      <trkpt lat="45.1537" lon="5.76183">
        <ele>268</ele>
        <time>2011-05-18T07:35:36Z</time>
      </trkpt>
      <trkpt lat="45.15369" lon="5.76183">
        <ele>269</ele>
        <time>2011-05-18T07:35:37Z</time>
      </trkpt>
      <trkpt lat="45.15368" lon="5.76184">
        <ele>269</ele>
        <time>2011-05-18T07:35:38Z</time>
      </trkpt>
      <trkpt lat="45.15366" lon="5.76184">
        <ele>269</ele>
        <time>2011-05-18T07:35:39Z</time>
      </trkpt>
      <trkpt lat="45.15365" lon="5.76184">
        <ele>270</ele>
        <time>2011-05-18T07:35:40Z</time>
      </trkpt>
      <trkpt lat="45.15363" lon="5.76183">
        <ele>270</ele>
        <time>2011-05-18T07:35:41Z</time>
      </trkpt>
      <trkpt lat="45.15362" lon="5.76183">
        <ele>271</ele>
        <time>2011-05-18T07:35:42Z</time>
      </trkpt>
      <trkpt lat="45.1536" lon="5.76181">
        <ele>271</ele>
        <time>2011-05-18T07:35:43Z</time>
      </trkpt>
      <trkpt lat="45.15358" lon="5.7618">
        <ele>271</ele>
        <time>2011-05-18T07:35:44Z</time>
      </trkpt>
      <trkpt lat="45.15357" lon="5.76178">
        <ele>272</ele>
        <time>2011-05-18T07:35:45Z</time>
      </trkpt>
      <trkpt lat="45.15356" lon="5.76178">
        <ele>272</ele>
        <time>2011-05-18T07:35:46Z</time>
      </trkpt>
      <trkpt lat="45.15356" lon="5.76175">
        <ele>273</ele>
        <time>2011-05-18T07:35:47Z</time>
      </trkpt>
      <trkpt lat="45.15356" lon="5.76175">
        <ele>273</ele>
        <time>2011-05-18T07:35:48Z</time>
      </trkpt>
      <trkpt lat="45.15355" lon="5.76175">
        <ele>273</ele>
        <time>2011-05-18T07:35:49Z</time>
      </trkpt>
      <trkpt lat="45.15355" lon="5.76174">
        <ele>273</ele>
        <time>2011-05-18T07:35:50Z</time>
      </trkpt>
      <trkpt lat="45.15353" lon="5.76173">
        <ele>274</ele>
        <time>2011-05-18T07:35:51Z</time>
      </trkpt>
      <trkpt lat="45.1535" lon="5.76172">
        <ele>275</ele>
        <time>2011-05-18T07:35:52Z</time>
      </trkpt>
      <trkpt lat="45.15349" lon="5.76172">
        <ele>275</ele>
        <time>2011-05-18T07:35:53Z</time>
      </trkpt>
      <trkpt lat="45.15348" lon="5.76171">
        <ele>276</ele>
        <time>2011-05-18T07:35:54Z</time>
      </trkpt>
      <trkpt lat="45.15347" lon="5.76171">
        <ele>277</ele>
        <time>2011-05-18T07:35:55Z</time>
      </trkpt>
      <trkpt lat="45.15347" lon="5.7617">
        <ele>277</ele>
        <time>2011-05-18T07:35:56Z</time>
      </trkpt>
      <trkpt lat="45.15346" lon="5.7617">
        <ele>277</ele>
        <time>2011-05-18T07:35:57Z</time>
      </trkpt>
      <trkpt lat="45.15345" lon="5.7617">
        <ele>278</ele>
        <time>2011-05-18T07:35:58Z</time>
      </trkpt>
      <trkpt lat="45.15343" lon="5.76171">
        <ele>278</ele>
        <time>2011-05-18T07:35:59Z</time>
      </trkpt>
      <trkpt lat="45.15342" lon="5.7617">
        <ele>279</ele>
        <time>2011-05-18T07:36:00Z</time>
      </trkpt>
      <trkpt lat="45.1534" lon="5.76169">
        <ele>279</ele>
        <time>2011-05-18T07:36:01Z</time>
      </trkpt>
      <trkpt lat="45.1534" lon="5.76169">
        <ele>279</ele>
        <time>2011-05-18T07:36:02Z</time>
      </trkpt>
      <trkpt lat="45.15339" lon="5.76168">
        <ele>279</ele>
        <time>2011-05-18T07:36:03Z</time>
      </trkpt>
      <trkpt lat="45.15339" lon="5.76168">
        <ele>279</ele>
        <time>2011-05-18T07:36:03Z</time>
      </trkpt>
      <trkpt lat="45.15338" lon="5.76167">
        <ele>279</ele>
        <time>2011-05-18T07:36:05Z</time>
      </trkpt>
      <trkpt lat="45.15334" lon="5.76165">
        <ele>280</ele>
        <time>2011-05-18T07:36:06Z</time>
      </trkpt>
      <trkpt lat="45.15332" lon="5.76165">
        <ele>280</ele>
        <time>2011-05-18T07:36:07Z</time>
      </trkpt>
      <trkpt lat="45.15332" lon="5.76164">
        <ele>280</ele>
        <time>2011-05-18T07:36:08Z</time>
      </trkpt>
      <trkpt lat="45.1533" lon="5.76162">
        <ele>281</ele>
        <time>2011-05-18T07:36:09Z</time>
      </trkpt>
      <trkpt lat="45.15328" lon="5.76159">
        <ele>281</ele>
        <time>2011-05-18T07:36:10Z</time>
      </trkpt>
      <trkpt lat="45.15326" lon="5.76158">
        <ele>281</ele>
        <time>2011-05-18T07:36:11Z</time>
      </trkpt>
      <trkpt lat="45.15324" lon="5.76156">
        <ele>281</ele>
        <time>2011-05-18T07:36:12Z</time>
      </trkpt>
      <trkpt lat="45.15323" lon="5.76154">
        <ele>281</ele>
        <time>2011-05-18T07:36:13Z</time>
      </trkpt>
      <trkpt lat="45.15321" lon="5.76153">
        <ele>282</ele>
        <time>2011-05-18T07:36:14Z</time>
      </trkpt>
      <trkpt lat="45.1532" lon="5.76152">
        <ele>282</ele>
        <time>2011-05-18T07:36:15Z</time>
      </trkpt>
      <trkpt lat="45.15318" lon="5.76152">
        <ele>282</ele>
        <time>2011-05-18T07:36:16Z</time>
      </trkpt>
      <trkpt lat="45.15316" lon="5.76151">
        <ele>283</ele>
        <time>2011-05-18T07:36:17Z</time>
      </trkpt>
      <trkpt lat="45.15316" lon="5.7615">
        <ele>283</ele>
        <time>2011-05-18T07:36:18Z</time>
      </trkpt>
      <trkpt lat="45.15315" lon="5.76148">
        <ele>283</ele>
        <time>2011-05-18T07:36:19Z</time>
      </trkpt>
      <trkpt lat="45.15312" lon="5.76146">
        <ele>283</ele>
        <time>2011-05-18T07:36:20Z</time>
      </trkpt>
      <trkpt lat="45.15311" lon="5.76142">
        <ele>283</ele>
        <time>2011-05-18T07:36:21Z</time>
      </trkpt>
      <trkpt lat="45.15308" lon="5.76139">
        <ele>283</ele>
        <time>2011-05-18T07:36:22Z</time>
      </trkpt>
      <trkpt lat="45.15307" lon="5.76135">
        <ele>284</ele>
        <time>2011-05-18T07:36:23Z</time>
      </trkpt>
      <trkpt lat="45.15305" lon="5.76132">
        <ele>284</ele>
        <time>2011-05-18T07:36:24Z</time>
      </trkpt>
      <trkpt lat="45.15303" lon="5.7613">
        <ele>284</ele>
        <time>2011-05-18T07:36:25Z</time>
      </trkpt>
      <trkpt lat="45.153" lon="5.76128">
        <ele>284</ele>
        <time>2011-05-18T07:36:26Z</time>
      </trkpt>
      <trkpt lat="45.15298" lon="5.76126">
        <ele>284</ele>
        <time>2011-05-18T07:36:27Z</time>
      </trkpt>
      <trkpt lat="45.15296" lon="5.76125">
        <ele>284</ele>
        <time>2011-05-18T07:36:28Z</time>
      </trkpt>
      <trkpt lat="45.15295" lon="5.76123">
        <ele>285</ele>
        <time>2011-05-18T07:36:29Z</time>
      </trkpt>
      <trkpt lat="45.15294" lon="5.76122">
        <ele>285</ele>
        <time>2011-05-18T07:36:30Z</time>
      </trkpt>
      <trkpt lat="45.15293" lon="5.76121">
        <ele>285</ele>
        <time>2011-05-18T07:36:31Z</time>
      </trkpt>
      <trkpt lat="45.15292" lon="5.76119">
        <ele>286</ele>
        <time>2011-05-18T07:36:32Z</time>
      </trkpt>
      <trkpt lat="45.15291" lon="5.76118">
        <ele>286</ele>
        <time>2011-05-18T07:36:33Z</time>
      </trkpt>
      <trkpt lat="45.1529" lon="5.76117">
        <ele>286</ele>
        <time>2011-05-18T07:36:34Z</time>
      </trkpt>
      <trkpt lat="45.15289" lon="5.76116">
        <ele>287</ele>
        <time>2011-05-18T07:36:35Z</time>
      </trkpt>
      <trkpt lat="45.15288" lon="5.76115">
        <ele>287</ele>
        <time>2011-05-18T07:36:36Z</time>
      </trkpt>
      <trkpt lat="45.15287" lon="5.76115">
        <ele>288</ele>
        <time>2011-05-18T07:36:37Z</time>
      </trkpt>
      <trkpt lat="45.15285" lon="5.76115">
        <ele>288</ele>
        <time>2011-05-18T07:36:38Z</time>
      </trkpt>
      <trkpt lat="45.15284" lon="5.76115">
        <ele>288</ele>
        <time>2011-05-18T07:36:39Z</time>
      </trkpt>
      <trkpt lat="45.15284" lon="5.76113">
        <ele>289</ele>
        <time>2011-05-18T07:36:40Z</time>
      </trkpt>
      <trkpt lat="45.15276" lon="5.76107">
        <ele>287</ele>
        <time>2011-05-18T07:36:41Z</time>
      </trkpt>
      <trkpt lat="45.15275" lon="5.76103">
        <ele>288</ele>
        <time>2011-05-18T07:36:42Z</time>
      </trkpt>
      <trkpt lat="45.15274" lon="5.76101">
        <ele>288</ele>
        <time>2011-05-18T07:36:43Z</time>
      </trkpt>
      <trkpt lat="45.15273" lon="5.76098">
        <ele>289</ele>
        <time>2011-05-18T07:36:44Z</time>
      </trkpt>
      <trkpt lat="45.15271" lon="5.76097">
        <ele>290</ele>
        <time>2011-05-18T07:36:45Z</time>
      </trkpt>
      <trkpt lat="45.1527" lon="5.76095">
        <ele>291</ele>
        <time>2011-05-18T07:36:46Z</time>
      </trkpt>
      <trkpt lat="45.15269" lon="5.76094">
        <ele>292</ele>
        <time>2011-05-18T07:36:47Z</time>
      </trkpt>
      <trkpt lat="45.15268" lon="5.76093">
        <ele>292</ele>
        <time>2011-05-18T07:36:48Z</time>
      </trkpt>
      <trkpt lat="45.15267" lon="5.76092">
        <ele>293</ele>
        <time>2011-05-18T07:36:49Z</time>
      </trkpt>
      <trkpt lat="45.15266" lon="5.7609">
        <ele>293</ele>
        <time>2011-05-18T07:36:50Z</time>
      </trkpt>
      <trkpt lat="45.15264" lon="5.76088">
        <ele>293</ele>
        <time>2011-05-18T07:36:51Z</time>
      </trkpt>
      <trkpt lat="45.15262" lon="5.76087">
        <ele>293</ele>
        <time>2011-05-18T07:36:52Z</time>
      </trkpt>
      <trkpt lat="45.15259" lon="5.76085">
        <ele>294</ele>
        <time>2011-05-18T07:36:53Z</time>
      </trkpt>
      <trkpt lat="45.15257" lon="5.76083">
        <ele>294</ele>
        <time>2011-05-18T07:36:54Z</time>
      </trkpt>
      <trkpt lat="45.15255" lon="5.76081">
        <ele>295</ele>
        <time>2011-05-18T07:36:55Z</time>
      </trkpt>
      <trkpt lat="45.15252" lon="5.76077">
        <ele>294</ele>
        <time>2011-05-18T07:36:56Z</time>
      </trkpt>
      <trkpt lat="45.15249" lon="5.76074">
        <ele>295</ele>
        <time>2011-05-18T07:36:57Z</time>
      </trkpt>
      <trkpt lat="45.15248" lon="5.76071">
        <ele>295</ele>
        <time>2011-05-18T07:36:58Z</time>
      </trkpt>
      <trkpt lat="45.15247" lon="5.76069">
        <ele>294</ele>
        <time>2011-05-18T07:36:59Z</time>
      </trkpt>
      <trkpt lat="45.15245" lon="5.76067">
        <ele>295</ele>
        <time>2011-05-18T07:37:00Z</time>
      </trkpt>
      <trkpt lat="45.15244" lon="5.76064">
        <ele>295</ele>
        <time>2011-05-18T07:37:01Z</time>
      </trkpt>
      <trkpt lat="45.15244" lon="5.76061">
        <ele>295</ele>
        <time>2011-05-18T07:37:02Z</time>
      </trkpt>
      <trkpt lat="45.1524" lon="5.76057">
        <ele>295</ele>
        <time>2011-05-18T07:37:03Z</time>
      </trkpt>
      <trkpt lat="45.15238" lon="5.76054">
        <ele>295</ele>
        <time>2011-05-18T07:37:04Z</time>
      </trkpt>
      <trkpt lat="45.15236" lon="5.76051">
        <ele>296</ele>
        <time>2011-05-18T07:37:05Z</time>
      </trkpt>
      <trkpt lat="45.15235" lon="5.76049">
        <ele>296</ele>
        <time>2011-05-18T07:37:06Z</time>
      </trkpt>
      <trkpt lat="45.15233" lon="5.76046">
        <ele>296</ele>
        <time>2011-05-18T07:37:07Z</time>
      </trkpt>
      <trkpt lat="45.15231" lon="5.76044">
        <ele>296</ele>
        <time>2011-05-18T07:37:08Z</time>
      </trkpt>
      <trkpt lat="45.15229" lon="5.7604">
        <ele>296</ele>
        <time>2011-05-18T07:37:09Z</time>
      </trkpt>
      <trkpt lat="45.15228" lon="5.76038">
        <ele>297</ele>
        <time>2011-05-18T07:37:10Z</time>
      </trkpt>
      <trkpt lat="45.15227" lon="5.76036">
        <ele>297</ele>
        <time>2011-05-18T07:37:11Z</time>
      </trkpt>
      <trkpt lat="45.15226" lon="5.76034">
        <ele>297</ele>
        <time>2011-05-18T07:37:12Z</time>
      </trkpt>
      <trkpt lat="45.15224" lon="5.76032">
        <ele>298</ele>
        <time>2011-05-18T07:37:13Z</time>
      </trkpt>
      <trkpt lat="45.15222" lon="5.7603">
        <ele>298</ele>
        <time>2011-05-18T07:37:14Z</time>
      </trkpt>
      <trkpt lat="45.15218" lon="5.76029">
        <ele>298</ele>
        <time>2011-05-18T07:37:15Z</time>
      </trkpt>
      <trkpt lat="45.15217" lon="5.76027">
        <ele>298</ele>
        <time>2011-05-18T07:37:16Z</time>
      </trkpt>
      <trkpt lat="45.1521" lon="5.7602">
        <ele>298</ele>
        <time>2011-05-18T07:37:17Z</time>
      </trkpt>
      <trkpt lat="45.15207" lon="5.76018">
        <ele>298</ele>
        <time>2011-05-18T07:37:18Z</time>
      </trkpt>
      <trkpt lat="45.15207" lon="5.76015">
        <ele>297</ele>
        <time>2011-05-18T07:37:19Z</time>
      </trkpt>
      <trkpt lat="45.15206" lon="5.76012">
        <ele>297</ele>
        <time>2011-05-18T07:37:20Z</time>
      </trkpt>
      <trkpt lat="45.15206" lon="5.76008">
        <ele>297</ele>
        <time>2011-05-18T07:37:21Z</time>
      </trkpt>
      <trkpt lat="45.15205" lon="5.76006">
        <ele>297</ele>
        <time>2011-05-18T07:37:22Z</time>
      </trkpt>
      <trkpt lat="45.15206" lon="5.76002">
        <ele>296</ele>
        <time>2011-05-18T07:37:23Z</time>
      </trkpt>
      <trkpt lat="45.15204" lon="5.76">
        <ele>296</ele>
        <time>2011-05-18T07:37:24Z</time>
      </trkpt>
      <trkpt lat="45.15204" lon="5.75996">
        <ele>296</ele>
        <time>2011-05-18T07:37:25Z</time>
      </trkpt>
      <trkpt lat="45.15204" lon="5.75994">
        <ele>296</ele>
        <time>2011-05-18T07:37:26Z</time>
      </trkpt>
      <trkpt lat="45.15204" lon="5.75992">
        <ele>296</ele>
        <time>2011-05-18T07:37:27Z</time>
      </trkpt>
      <trkpt lat="45.15203" lon="5.75992">
        <ele>296</ele>
        <time>2011-05-18T07:37:28Z</time>
      </trkpt>
      <trkpt lat="45.15203" lon="5.75991">
        <ele>296</ele>
        <time>2011-05-18T07:37:29Z</time>
      </trkpt>
      <trkpt lat="45.15204" lon="5.75989">
        <ele>295</ele>
        <time>2011-05-18T07:37:30Z</time>
      </trkpt>
      <trkpt lat="45.15205" lon="5.75986">
        <ele>295</ele>
        <time>2011-05-18T07:37:31Z</time>
      </trkpt>
      <trkpt lat="45.15207" lon="5.75983">
        <ele>294</ele>
        <time>2011-05-18T07:37:32Z</time>
      </trkpt>
      <trkpt lat="45.15206" lon="5.75979">
        <ele>294</ele>
        <time>2011-05-18T07:37:33Z</time>
      </trkpt>
      <trkpt lat="45.15206" lon="5.75976">
        <ele>294</ele>
        <time>2011-05-18T07:37:34Z</time>
      </trkpt>
      <trkpt lat="45.1521" lon="5.75972">
        <ele>291</ele>
        <time>2011-05-18T07:37:35Z</time>
      </trkpt>
      <trkpt lat="45.15209" lon="5.7597">
        <ele>290</ele>
        <time>2011-05-18T07:37:36Z</time>
      </trkpt>
      <trkpt lat="45.15211" lon="5.75966">
        <ele>290</ele>
        <time>2011-05-18T07:37:37Z</time>
      </trkpt>
      <trkpt lat="45.1521" lon="5.75963">
        <ele>289</ele>
        <time>2011-05-18T07:37:38Z</time>
      </trkpt>
      <trkpt lat="45.15211" lon="5.7596">
        <ele>289</ele>
        <time>2011-05-18T07:37:39Z</time>
      </trkpt>
      <trkpt lat="45.1521" lon="5.75958">
        <ele>289</ele>
        <time>2011-05-18T07:37:40Z</time>
      </trkpt>
      <trkpt lat="45.15206" lon="5.75953">
        <ele>288</ele>
        <time>2011-05-18T07:37:41Z</time>
      </trkpt>
      <trkpt lat="45.15206" lon="5.75952">
        <ele>287</ele>
        <time>2011-05-18T07:37:42Z</time>
      </trkpt>
      <trkpt lat="45.15205" lon="5.75948">
        <ele>286</ele>
        <time>2011-05-18T07:37:43Z</time>
      </trkpt>
      <trkpt lat="45.15205" lon="5.75944">
        <ele>286</ele>
        <time>2011-05-18T07:37:44Z</time>
      </trkpt>
      <trkpt lat="45.15205" lon="5.75941">
        <ele>286</ele>
        <time>2011-05-18T07:37:45Z</time>
      </trkpt>
      <trkpt lat="45.15205" lon="5.75938">
        <ele>285</ele>
        <time>2011-05-18T07:37:46Z</time>
      </trkpt>
      <trkpt lat="45.15205" lon="5.75936">
        <ele>285</ele>
        <time>2011-05-18T07:37:47Z</time>
      </trkpt>
      <trkpt lat="45.15205" lon="5.75934">
        <ele>285</ele>
        <time>2011-05-18T07:37:48Z</time>
      </trkpt>
      <trkpt lat="45.15205" lon="5.75932">
        <ele>285</ele>
        <time>2011-05-18T07:37:49Z</time>
      </trkpt>
      <trkpt lat="45.15205" lon="5.7593">
        <ele>284</ele>
        <time>2011-05-18T07:37:50Z</time>
      </trkpt>
      <trkpt lat="45.15204" lon="5.75927">
        <ele>284</ele>
        <time>2011-05-18T07:37:51Z</time>
      </trkpt>
      <trkpt lat="45.15201" lon="5.75923">
        <ele>283</ele>
        <time>2011-05-18T07:37:52Z</time>
      </trkpt>
      <trkpt lat="45.15198" lon="5.75922">
        <ele>283</ele>
        <time>2011-05-18T07:37:53Z</time>
      </trkpt>
      <trkpt lat="45.15196" lon="5.75919">
        <ele>283</ele>
        <time>2011-05-18T07:37:54Z</time>
      </trkpt>
      <trkpt lat="45.15195" lon="5.75917">
        <ele>282</ele>
        <time>2011-05-18T07:37:55Z</time>
      </trkpt>
      <trkpt lat="45.15193" lon="5.75915">
        <ele>282</ele>
        <time>2011-05-18T07:37:56Z</time>
      </trkpt>
      <trkpt lat="45.15192" lon="5.75913">
        <ele>282</ele>
        <time>2011-05-18T07:37:57Z</time>
      </trkpt>
      <trkpt lat="45.15191" lon="5.75911">
        <ele>282</ele>
        <time>2011-05-18T07:37:58Z</time>
      </trkpt>
      <trkpt lat="45.15191" lon="5.75907">
        <ele>282</ele>
        <time>2011-05-18T07:37:59Z</time>
      </trkpt>
      <trkpt lat="45.15191" lon="5.75905">
        <ele>282</ele>
        <time>2011-05-18T07:38:00Z</time>
      </trkpt>
      <trkpt lat="45.15189" lon="5.75903">
        <ele>281</ele>
        <time>2011-05-18T07:38:01Z</time>
      </trkpt>
      <trkpt lat="45.15188" lon="5.75899">
        <ele>281</ele>
        <time>2011-05-18T07:38:02Z</time>
      </trkpt>
      <trkpt lat="45.15187" lon="5.75895">
        <ele>281</ele>
        <time>2011-05-18T07:38:03Z</time>
      </trkpt>
      <trkpt lat="45.15187" lon="5.75895">
        <ele>281</ele>
        <time>2011-05-18T07:38:03Z</time>
      </trkpt>
      <trkpt lat="45.15185" lon="5.75889">
        <ele>280</ele>
        <time>2011-05-18T07:38:05Z</time>
      </trkpt>
      <trkpt lat="45.15184" lon="5.75887">
        <ele>280</ele>
        <time>2011-05-18T07:38:06Z</time>
      </trkpt>
      <trkpt lat="45.15184" lon="5.75885">
        <ele>280</ele>
        <time>2011-05-18T07:38:07Z</time>
      </trkpt>
      <trkpt lat="45.15183" lon="5.75883">
        <ele>280</ele>
        <time>2011-05-18T07:38:08Z</time>
      </trkpt>
      <trkpt lat="45.15183" lon="5.75883">
        <ele>279</ele>
        <time>2011-05-18T07:38:09Z</time>
      </trkpt>
      <trkpt lat="45.15183" lon="5.75881">
        <ele>279</ele>
        <time>2011-05-18T07:38:10Z</time>
      </trkpt>
      <trkpt lat="45.15184" lon="5.75878">
        <ele>280</ele>
        <time>2011-05-18T07:38:11Z</time>
      </trkpt>
      <trkpt lat="45.15184" lon="5.75876">
        <ele>280</ele>
        <time>2011-05-18T07:38:12Z</time>
      </trkpt>
      <trkpt lat="45.15184" lon="5.75874">
        <ele>280</ele>
        <time>2011-05-18T07:38:13Z</time>
      </trkpt>
      <trkpt lat="45.15183" lon="5.75873">
        <ele>280</ele>
        <time>2011-05-18T07:38:14Z</time>
      </trkpt>
      <trkpt lat="45.15183" lon="5.75871">
        <ele>281</ele>
        <time>2011-05-18T07:38:15Z</time>
      </trkpt>
      <trkpt lat="45.15184" lon="5.75868">
        <ele>280</ele>
        <time>2011-05-18T07:38:16Z</time>
      </trkpt>
      <trkpt lat="45.15184" lon="5.75866">
        <ele>281</ele>
        <time>2011-05-18T07:38:17Z</time>
      </trkpt>
      <trkpt lat="45.15183" lon="5.75865">
        <ele>281</ele>
        <time>2011-05-18T07:38:18Z</time>
      </trkpt>
      <trkpt lat="45.15184" lon="5.75861">
        <ele>281</ele>
        <time>2011-05-18T07:38:19Z</time>
      </trkpt>
      <trkpt lat="45.15182" lon="5.75857">
        <ele>282</ele>
        <time>2011-05-18T07:38:20Z</time>
      </trkpt>
      <trkpt lat="45.15181" lon="5.75853">
        <ele>282</ele>
        <time>2011-05-18T07:38:21Z</time>
      </trkpt>
      <trkpt lat="45.15182" lon="5.75851">
        <ele>282</ele>
        <time>2011-05-18T07:38:22Z</time>
      </trkpt>
      <trkpt lat="45.15183" lon="5.7585">
        <ele>282</ele>
        <time>2011-05-18T07:38:23Z</time>
      </trkpt>
      <trkpt lat="45.15181" lon="5.75846">
        <ele>281</ele>
        <time>2011-05-18T07:38:24Z</time>
      </trkpt>
      <trkpt lat="45.15179" lon="5.75842">
        <ele>282</ele>
        <time>2011-05-18T07:38:25Z</time>
      </trkpt>
      <trkpt lat="45.15178" lon="5.75838">
        <ele>282</ele>
        <time>2011-05-18T07:38:26Z</time>
      </trkpt>
      <trkpt lat="45.15177" lon="5.75834">
        <ele>282</ele>
        <time>2011-05-18T07:38:27Z</time>
      </trkpt>
      <trkpt lat="45.15175" lon="5.75828">
        <ele>282</ele>
        <time>2011-05-18T07:38:28Z</time>
      </trkpt>
      <trkpt lat="45.15172" lon="5.75823">
        <ele>282</ele>
        <time>2011-05-18T07:38:29Z</time>
      </trkpt>
      <trkpt lat="45.1517" lon="5.75821">
        <ele>283</ele>
        <time>2011-05-18T07:38:30Z</time>
      </trkpt>
      <trkpt lat="45.15168" lon="5.75817">
        <ele>283</ele>
        <time>2011-05-18T07:38:31Z</time>
      </trkpt>
      <trkpt lat="45.15165" lon="5.75812">
        <ele>283</ele>
        <time>2011-05-18T07:38:32Z</time>
      </trkpt>
      <trkpt lat="45.1516" lon="5.75807">
        <ele>282</ele>
        <time>2011-05-18T07:38:33Z</time>
      </trkpt>
      <trkpt lat="45.15158" lon="5.75804">
        <ele>282</ele>
        <time>2011-05-18T07:38:34Z</time>
      </trkpt>
      <trkpt lat="45.15157" lon="5.75801">
        <ele>282</ele>
        <time>2011-05-18T07:38:35Z</time>
      </trkpt>
      <trkpt lat="45.15155" lon="5.75799">
        <ele>282</ele>
        <time>2011-05-18T07:38:36Z</time>
      </trkpt>
      <trkpt lat="45.15153" lon="5.75796">
        <ele>282</ele>
        <time>2011-05-18T07:38:37Z</time>
      </trkpt>
      <trkpt lat="45.15152" lon="5.75793">
        <ele>281</ele>
        <time>2011-05-18T07:38:38Z</time>
      </trkpt>
      <trkpt lat="45.1515" lon="5.75788">
        <ele>281</ele>
        <time>2011-05-18T07:38:39Z</time>
      </trkpt>
      <trkpt lat="45.15149" lon="5.75785">
        <ele>281</ele>
        <time>2011-05-18T07:38:40Z</time>
      </trkpt>
      <trkpt lat="45.15148" lon="5.7578">
        <ele>280</ele>
        <time>2011-05-18T07:38:41Z</time>
      </trkpt>
      <trkpt lat="45.15146" lon="5.75778">
        <ele>280</ele>
        <time>2011-05-18T07:38:42Z</time>
      </trkpt>
      <trkpt lat="45.15146" lon="5.75776">
        <ele>280</ele>
        <time>2011-05-18T07:38:43Z</time>
      </trkpt>
      <trkpt lat="45.15145" lon="5.75772">
        <ele>280</ele>
        <time>2011-05-18T07:38:44Z</time>
      </trkpt>
      <trkpt lat="45.15145" lon="5.75771">
        <ele>280</ele>
        <time>2011-05-18T07:38:45Z</time>
      </trkpt>
      <trkpt lat="45.15142" lon="5.75766">
        <ele>280</ele>
        <time>2011-05-18T07:38:46Z</time>
      </trkpt>
      <trkpt lat="45.15139" lon="5.75763">
        <ele>280</ele>
        <time>2011-05-18T07:38:47Z</time>
      </trkpt>
      <trkpt lat="45.15138" lon="5.7576">
        <ele>280</ele>
        <time>2011-05-18T07:38:48Z</time>
      </trkpt>
      <trkpt lat="45.15135" lon="5.75757">
        <ele>280</ele>
        <time>2011-05-18T07:38:49Z</time>
      </trkpt>
      <trkpt lat="45.15134" lon="5.75753">
        <ele>280</ele>
        <time>2011-05-18T07:38:50Z</time>
      </trkpt>
      <trkpt lat="45.15131" lon="5.75748">
        <ele>280</ele>
        <time>2011-05-18T07:38:51Z</time>
      </trkpt>
      <trkpt lat="45.15131" lon="5.75745">
        <ele>280</ele>
        <time>2011-05-18T07:38:52Z</time>
      </trkpt>
      <trkpt lat="45.15131" lon="5.75741">
        <ele>280</ele>
        <time>2011-05-18T07:38:53Z</time>
      </trkpt>
      <trkpt lat="45.1513" lon="5.75738">
        <ele>280</ele>
        <time>2011-05-18T07:38:54Z</time>
      </trkpt>
      <trkpt lat="45.15129" lon="5.75737">
        <ele>280</ele>
        <time>2011-05-18T07:38:55Z</time>
      </trkpt>
      <trkpt lat="45.15127" lon="5.75732">
        <ele>282</ele>
        <time>2011-05-18T07:38:56Z</time>
      </trkpt>
      <trkpt lat="45.15126" lon="5.75729">
        <ele>282</ele>
        <time>2011-05-18T07:38:57Z</time>
      </trkpt>
      <trkpt lat="45.15124" lon="5.75727">
        <ele>282</ele>
        <time>2011-05-18T07:38:58Z</time>
      </trkpt>
      <trkpt lat="45.15124" lon="5.75724">
        <ele>282</ele>
        <time>2011-05-18T07:38:59Z</time>
      </trkpt>
      <trkpt lat="45.15125" lon="5.75722">
        <ele>282</ele>
        <time>2011-05-18T07:39:00Z</time>
      </trkpt>
      <trkpt lat="45.15125" lon="5.75719">
        <ele>282</ele>
        <time>2011-05-18T07:39:01Z</time>
      </trkpt>
      <trkpt lat="45.15126" lon="5.75716">
        <ele>282</ele>
        <time>2011-05-18T07:39:02Z</time>
      </trkpt>
      <trkpt lat="45.15126" lon="5.75712">
        <ele>282</ele>
        <time>2011-05-18T07:39:03Z</time>
      </trkpt>
      <trkpt lat="45.15125" lon="5.7571">
        <ele>282</ele>
        <time>2011-05-18T07:39:04Z</time>
      </trkpt>
      <trkpt lat="45.15125" lon="5.75707">
        <ele>282</ele>
        <time>2011-05-18T07:39:05Z</time>
      </trkpt>
      <trkpt lat="45.15125" lon="5.75704">
        <ele>281</ele>
        <time>2011-05-18T07:39:06Z</time>
      </trkpt>
      <trkpt lat="45.15125" lon="5.75702">
        <ele>281</ele>
        <time>2011-05-18T07:39:07Z</time>
      </trkpt>
      <trkpt lat="45.15125" lon="5.75699">
        <ele>281</ele>
        <time>2011-05-18T07:39:08Z</time>
      </trkpt>
      <trkpt lat="45.15124" lon="5.75695">
        <ele>282</ele>
        <time>2011-05-18T07:39:09Z</time>
      </trkpt>
      <trkpt lat="45.15122" lon="5.75693">
        <ele>282</ele>
        <time>2011-05-18T07:39:10Z</time>
      </trkpt>
      <trkpt lat="45.15122" lon="5.75691">
        <ele>282</ele>
        <time>2011-05-18T07:39:11Z</time>
      </trkpt>
      <trkpt lat="45.1512" lon="5.75688">
        <ele>282</ele>
        <time>2011-05-18T07:39:12Z</time>
      </trkpt>
      <trkpt lat="45.15119" lon="5.75685">
        <ele>282</ele>
        <time>2011-05-18T07:39:13Z</time>
      </trkpt>
      <trkpt lat="45.15118" lon="5.75681">
        <ele>281</ele>
        <time>2011-05-18T07:39:14Z</time>
      </trkpt>
      <trkpt lat="45.15114" lon="5.75677">
        <ele>280</ele>
        <time>2011-05-18T07:39:15Z</time>
      </trkpt>
      <trkpt lat="45.15112" lon="5.75673">
        <ele>280</ele>
        <time>2011-05-18T07:39:16Z</time>
      </trkpt>
      <trkpt lat="45.15109" lon="5.75669">
        <ele>280</ele>
        <time>2011-05-18T07:39:17Z</time>
      </trkpt>
      <trkpt lat="45.15107" lon="5.75665">
        <ele>280</ele>
        <time>2011-05-18T07:39:18Z</time>
      </trkpt>
      <trkpt lat="45.15106" lon="5.75663">
        <ele>279</ele>
        <time>2011-05-18T07:39:19Z</time>
      </trkpt>
      <trkpt lat="45.15105" lon="5.7566">
        <ele>279</ele>
        <time>2011-05-18T07:39:20Z</time>
      </trkpt>
      <trkpt lat="45.15104" lon="5.75655">
        <ele>279</ele>
        <time>2011-05-18T07:39:21Z</time>
      </trkpt>
      <trkpt lat="45.15101" lon="5.75652">
        <ele>278</ele>
        <time>2011-05-18T07:39:22Z</time>
      </trkpt>
      <trkpt lat="45.151" lon="5.75649">
        <ele>278</ele>
        <time>2011-05-18T07:39:23Z</time>
      </trkpt>
      <trkpt lat="45.15099" lon="5.75646">
        <ele>277</ele>
        <time>2011-05-18T07:39:24Z</time>
      </trkpt>
      <trkpt lat="45.15099" lon="5.75643">
        <ele>277</ele>
        <time>2011-05-18T07:39:25Z</time>
      </trkpt>
      <trkpt lat="45.15099" lon="5.75639">
        <ele>277</ele>
        <time>2011-05-18T07:39:26Z</time>
      </trkpt>
      <trkpt lat="45.15098" lon="5.75637">
        <ele>276</ele>
        <time>2011-05-18T07:39:27Z</time>
      </trkpt>
      <trkpt lat="45.15097" lon="5.75633">
        <ele>276</ele>
        <time>2011-05-18T07:39:28Z</time>
      </trkpt>
      <trkpt lat="45.15096" lon="5.7563">
        <ele>276</ele>
        <time>2011-05-18T07:39:29Z</time>
      </trkpt>
      <trkpt lat="45.15094" lon="5.75627">
        <ele>275</ele>
        <time>2011-05-18T07:39:30Z</time>
      </trkpt>
      <trkpt lat="45.15096" lon="5.75623">
        <ele>274</ele>
        <time>2011-05-18T07:39:31Z</time>
      </trkpt>
      <trkpt lat="45.15096" lon="5.7562">
        <ele>274</ele>
        <time>2011-05-18T07:39:32Z</time>
      </trkpt>
      <trkpt lat="45.15096" lon="5.75617">
        <ele>273</ele>
        <time>2011-05-18T07:39:33Z</time>
      </trkpt>
      <trkpt lat="45.15095" lon="5.75613">
        <ele>273</ele>
        <time>2011-05-18T07:39:34Z</time>
      </trkpt>
      <trkpt lat="45.15093" lon="5.7561">
        <ele>272</ele>
        <time>2011-05-18T07:39:35Z</time>
      </trkpt>
      <trkpt lat="45.15091" lon="5.75605">
        <ele>272</ele>
        <time>2011-05-18T07:39:36Z</time>
      </trkpt>
      <trkpt lat="45.15091" lon="5.756">
        <ele>271</ele>
        <time>2011-05-18T07:39:37Z</time>
      </trkpt>
      <trkpt lat="45.15091" lon="5.75596">
        <ele>271</ele>
        <time>2011-05-18T07:39:38Z</time>
      </trkpt>
      <trkpt lat="45.15092" lon="5.75592">
        <ele>270</ele>
        <time>2011-05-18T07:39:39Z</time>
      </trkpt>
      <trkpt lat="45.15091" lon="5.75585">
        <ele>271</ele>
        <time>2011-05-18T07:39:40Z</time>
      </trkpt>
      <trkpt lat="45.15091" lon="5.75581">
        <ele>271</ele>
        <time>2011-05-18T07:39:41Z</time>
      </trkpt>
      <trkpt lat="45.15091" lon="5.75576">
        <ele>271</ele>
        <time>2011-05-18T07:39:42Z</time>
      </trkpt>
      <trkpt lat="45.15089" lon="5.7557">
        <ele>270</ele>
        <time>2011-05-18T07:39:43Z</time>
      </trkpt>
      <trkpt lat="45.1509" lon="5.75564">
        <ele>270</ele>
        <time>2011-05-18T07:39:44Z</time>
      </trkpt>
      <trkpt lat="45.1509" lon="5.75559">
        <ele>270</ele>
        <time>2011-05-18T07:39:45Z</time>
      </trkpt>
      <trkpt lat="45.1509" lon="5.75555">
        <ele>270</ele>
        <time>2011-05-18T07:39:46Z</time>
      </trkpt>
      <trkpt lat="45.1509" lon="5.75551">
        <ele>270</ele>
        <time>2011-05-18T07:39:47Z</time>
      </trkpt>
      <trkpt lat="45.15089" lon="5.75547">
        <ele>269</ele>
        <time>2011-05-18T07:39:48Z</time>
      </trkpt>
      <trkpt lat="45.15088" lon="5.75542">
        <ele>268</ele>
        <time>2011-05-18T07:39:49Z</time>
      </trkpt>
      <trkpt lat="45.15088" lon="5.75537">
        <ele>268</ele>
        <time>2011-05-18T07:39:50Z</time>
      </trkpt>
      <trkpt lat="45.15087" lon="5.75532">
        <ele>268</ele>
        <time>2011-05-18T07:39:51Z</time>
      </trkpt>
      <trkpt lat="45.15086" lon="5.75529">
        <ele>267</ele>
        <time>2011-05-18T07:39:52Z</time>
      </trkpt>
      <trkpt lat="45.15086" lon="5.75526">
        <ele>267</ele>
        <time>2011-05-18T07:39:53Z</time>
      </trkpt>
      <trkpt lat="45.15085" lon="5.75522">
        <ele>266</ele>
        <time>2011-05-18T07:39:54Z</time>
      </trkpt>
      <trkpt lat="45.15085" lon="5.75518">
        <ele>266</ele>
        <time>2011-05-18T07:39:55Z</time>
      </trkpt>
      <trkpt lat="45.15083" lon="5.75516">
        <ele>265</ele>
        <time>2011-05-18T07:39:56Z</time>
      </trkpt>
      <trkpt lat="45.15082" lon="5.75513">
        <ele>266</ele>
        <time>2011-05-18T07:39:57Z</time>
      </trkpt>
      <trkpt lat="45.15081" lon="5.75509">
        <ele>266</ele>
        <time>2011-05-18T07:39:58Z</time>
      </trkpt>
      <trkpt lat="45.1508" lon="5.75507">
        <ele>265</ele>
        <time>2011-05-18T07:39:59Z</time>
      </trkpt>
      <trkpt lat="45.1508" lon="5.75505">
        <ele>265</ele>
        <time>2011-05-18T07:40:00Z</time>
      </trkpt>
      <trkpt lat="45.15078" lon="5.75502">
        <ele>264</ele>
        <time>2011-05-18T07:40:01Z</time>
      </trkpt>
      <trkpt lat="45.15077" lon="5.755">
        <ele>264</ele>
        <time>2011-05-18T07:40:02Z</time>
      </trkpt>
      <trkpt lat="45.15075" lon="5.75495">
        <ele>264</ele>
        <time>2011-05-18T07:40:03Z</time>
      </trkpt>
      <trkpt lat="45.15074" lon="5.75491">
        <ele>263</ele>
        <time>2011-05-18T07:40:04Z</time>
      </trkpt>
      <trkpt lat="45.15073" lon="5.75488">
        <ele>263</ele>
        <time>2011-05-18T07:40:05Z</time>
      </trkpt>
      <trkpt lat="45.15072" lon="5.75484">
        <ele>263</ele>
        <time>2011-05-18T07:40:06Z</time>
      </trkpt>
      <trkpt lat="45.1507" lon="5.75481">
        <ele>262</ele>
        <time>2011-05-18T07:40:07Z</time>
      </trkpt>
      <trkpt lat="45.1507" lon="5.75479">
        <ele>262</ele>
        <time>2011-05-18T07:40:08Z</time>
      </trkpt>
      <trkpt lat="45.15067" lon="5.75471">
        <ele>266</ele>
        <time>2011-05-18T07:40:09Z</time>
      </trkpt>
      <trkpt lat="45.15067" lon="5.7547">
        <ele>267</ele>
        <time>2011-05-18T07:40:10Z</time>
      </trkpt>
      <trkpt lat="45.15068" lon="5.75471">
        <ele>267</ele>
        <time>2011-05-18T07:40:11Z</time>
      </trkpt>
      <trkpt lat="45.15069" lon="5.75473">
        <ele>267</ele>
        <time>2011-05-18T07:40:12Z</time>
      </trkpt>
      <trkpt lat="45.1507" lon="5.75475">
        <ele>267</ele>
        <time>2011-05-18T07:40:13Z</time>
      </trkpt>
      <trkpt lat="45.15072" lon="5.75475">
        <ele>267</ele>
        <time>2011-05-18T07:40:14Z</time>
      </trkpt>
      <trkpt lat="45.15073" lon="5.75476">
        <ele>267</ele>
        <time>2011-05-18T07:40:15Z</time>
      </trkpt>
      <trkpt lat="45.15075" lon="5.7548">
        <ele>266</ele>
        <time>2011-05-18T07:40:16Z</time>
      </trkpt>
      <trkpt lat="45.15078" lon="5.75484">
        <ele>265</ele>
        <time>2011-05-18T07:40:17Z</time>
      </trkpt>
      <trkpt lat="45.15079" lon="5.75488">
        <ele>265</ele>
        <time>2011-05-18T07:40:18Z</time>
      </trkpt>
      <trkpt lat="45.15081" lon="5.75491">
        <ele>265</ele>
        <time>2011-05-18T07:40:19Z</time>
      </trkpt>
      <trkpt lat="45.15082" lon="5.75495">
        <ele>266</ele>
        <time>2011-05-18T07:40:20Z</time>
      </trkpt>
      <trkpt lat="45.15082" lon="5.75499">
        <ele>265</ele>
        <time>2011-05-18T07:40:21Z</time>
      </trkpt>
      <trkpt lat="45.15083" lon="5.75503">
        <ele>265</ele>
        <time>2011-05-18T07:40:22Z</time>
      </trkpt>
      <trkpt lat="45.15085" lon="5.75506">
        <ele>265</ele>
        <time>2011-05-18T07:40:23Z</time>
      </trkpt>
      <trkpt lat="45.15086" lon="5.75509">
        <ele>265</ele>
        <time>2011-05-18T07:40:24Z</time>
      </trkpt>
      <trkpt lat="45.15088" lon="5.75514">
        <ele>264</ele>
        <time>2011-05-18T07:40:25Z</time>
      </trkpt>
      <trkpt lat="45.15089" lon="5.75518">
        <ele>263</ele>
        <time>2011-05-18T07:40:26Z</time>
      </trkpt>
      <trkpt lat="45.1509" lon="5.75521">
        <ele>264</ele>
        <time>2011-05-18T07:40:27Z</time>
      </trkpt>
      <trkpt lat="45.15092" lon="5.75525">
        <ele>265</ele>
        <time>2011-05-18T07:40:28Z</time>
      </trkpt>
      <trkpt lat="45.15092" lon="5.7553">
        <ele>265</ele>
        <time>2011-05-18T07:40:29Z</time>
      </trkpt>
      <trkpt lat="45.15091" lon="5.75535">
        <ele>266</ele>
        <time>2011-05-18T07:40:30Z</time>
      </trkpt>
      <trkpt lat="45.15093" lon="5.75538">
        <ele>266</ele>
        <time>2011-05-18T07:40:31Z</time>
      </trkpt>
      <trkpt lat="45.15094" lon="5.75542">
        <ele>266</ele>
        <time>2011-05-18T07:40:32Z</time>
      </trkpt>
      <trkpt lat="45.15094" lon="5.75546">
        <ele>267</ele>
        <time>2011-05-18T07:40:33Z</time>
      </trkpt>
      <trkpt lat="45.15095" lon="5.75549">
        <ele>268</ele>
        <time>2011-05-18T07:40:34Z</time>
      </trkpt>
      <trkpt lat="45.15096" lon="5.75553">
        <ele>269</ele>
        <time>2011-05-18T07:40:35Z</time>
      </trkpt>
      <trkpt lat="45.15097" lon="5.75557">
        <ele>268</ele>
        <time>2011-05-18T07:40:36Z</time>
      </trkpt>
      <trkpt lat="45.15097" lon="5.7556">
        <ele>268</ele>
        <time>2011-05-18T07:40:37Z</time>
      </trkpt>
      <trkpt lat="45.15098" lon="5.75562">
        <ele>269</ele>
        <time>2011-05-18T07:40:38Z</time>
      </trkpt>
      <trkpt lat="45.15099" lon="5.75565">
        <ele>268</ele>
        <time>2011-05-18T07:40:39Z</time>
      </trkpt>
      <trkpt lat="45.151" lon="5.75567">
        <ele>268</ele>
        <time>2011-05-18T07:40:40Z</time>
      </trkpt>
      <trkpt lat="45.15101" lon="5.75569">
        <ele>269</ele>
        <time>2011-05-18T07:40:41Z</time>
      </trkpt>
      <trkpt lat="45.15102" lon="5.75571">
        <ele>269</ele>
        <time>2011-05-18T07:40:42Z</time>
      </trkpt>
      <trkpt lat="45.15102" lon="5.75573">
        <ele>269</ele>
        <time>2011-05-18T07:40:43Z</time>
      </trkpt>
      <trkpt lat="45.15101" lon="5.75576">
        <ele>269</ele>
        <time>2011-05-18T07:40:44Z</time>
      </trkpt>
      <trkpt lat="45.15101" lon="5.75578">
        <ele>270</ele>
        <time>2011-05-18T07:40:45Z</time>
      </trkpt>
      <trkpt lat="45.151" lon="5.75584">
        <ele>270</ele>
        <time>2011-05-18T07:40:46Z</time>
      </trkpt>
      <trkpt lat="45.151" lon="5.75588">
        <ele>270</ele>
        <time>2011-05-18T07:40:47Z</time>
      </trkpt>
      <trkpt lat="45.15102" lon="5.7559">
        <ele>270</ele>
        <time>2011-05-18T07:40:48Z</time>
      </trkpt>
      <trkpt lat="45.15105" lon="5.75593">
        <ele>270</ele>
        <time>2011-05-18T07:40:49Z</time>
      </trkpt>
      <trkpt lat="45.15109" lon="5.75596">
        <ele>271</ele>
        <time>2011-05-18T07:40:50Z</time>
      </trkpt>
      <trkpt lat="45.15112" lon="5.756">
        <ele>271</ele>
        <time>2011-05-18T07:40:51Z</time>
      </trkpt>
      <trkpt lat="45.15107" lon="5.75606">
        <ele>272</ele>
        <time>2011-05-18T07:40:52Z</time>
      </trkpt>
      <trkpt lat="45.15107" lon="5.7561">
        <ele>272</ele>
        <time>2011-05-18T07:40:53Z</time>
      </trkpt>
      <trkpt lat="45.15107" lon="5.75612">
        <ele>272</ele>
        <time>2011-05-18T07:40:54Z</time>
      </trkpt>
      <trkpt lat="45.15107" lon="5.75614">
        <ele>273</ele>
        <time>2011-05-18T07:40:55Z</time>
      </trkpt>
      <trkpt lat="45.15109" lon="5.75616">
        <ele>273</ele>
        <time>2011-05-18T07:40:56Z</time>
      </trkpt>
      <trkpt lat="45.15109" lon="5.75618">
        <ele>273</ele>
        <time>2011-05-18T07:40:57Z</time>
      </trkpt>
      <trkpt lat="45.15112" lon="5.75621">
        <ele>273</ele>
        <time>2011-05-18T07:40:58Z</time>
      </trkpt>
      <trkpt lat="45.15113" lon="5.75623">
        <ele>273</ele>
        <time>2011-05-18T07:40:59Z</time>
      </trkpt>
      <trkpt lat="45.15112" lon="5.75627">
        <ele>273</ele>
        <time>2011-05-18T07:41:00Z</time>
      </trkpt>
      <trkpt lat="45.15114" lon="5.75629">
        <ele>273</ele>
        <time>2011-05-18T07:41:01Z</time>
      </trkpt>
      <trkpt lat="45.15115" lon="5.75631">
        <ele>273</ele>
        <time>2011-05-18T07:41:02Z</time>
      </trkpt>
      <trkpt lat="45.15116" lon="5.75634">
        <ele>273</ele>
        <time>2011-05-18T07:41:03Z</time>
      </trkpt>
      <trkpt lat="45.15116" lon="5.75638">
        <ele>273</ele>
        <time>2011-05-18T07:41:04Z</time>
      </trkpt>
      <trkpt lat="45.15116" lon="5.75641">
        <ele>273</ele>
        <time>2011-05-18T07:41:05Z</time>
      </trkpt>
      <trkpt lat="45.15117" lon="5.75645">
        <ele>273</ele>
        <time>2011-05-18T07:41:06Z</time>
      </trkpt>
      <trkpt lat="45.15118" lon="5.75649">
        <ele>273</ele>
        <time>2011-05-18T07:41:07Z</time>
      </trkpt>
      <trkpt lat="45.15118" lon="5.75653">
        <ele>273</ele>
        <time>2011-05-18T07:41:08Z</time>
      </trkpt>
      <trkpt lat="45.15118" lon="5.7566">
        <ele>273</ele>
        <time>2011-05-18T07:41:09Z</time>
      </trkpt>
      <trkpt lat="45.15118" lon="5.75663">
        <ele>273</ele>
        <time>2011-05-18T07:41:10Z</time>
      </trkpt>
      <trkpt lat="45.15118" lon="5.75665">
        <ele>273</ele>
        <time>2011-05-18T07:41:11Z</time>
      </trkpt>
      <trkpt lat="45.1512" lon="5.75666">
        <ele>272</ele>
        <time>2011-05-18T07:41:12Z</time>
      </trkpt>
      <trkpt lat="45.1512" lon="5.75668">
        <ele>272</ele>
        <time>2011-05-18T07:41:13Z</time>
      </trkpt>
      <trkpt lat="45.15119" lon="5.7567">
        <ele>272</ele>
        <time>2011-05-18T07:41:14Z</time>
      </trkpt>
      <trkpt lat="45.15118" lon="5.75672">
        <ele>272</ele>
        <time>2011-05-18T07:41:15Z</time>
      </trkpt>
      <trkpt lat="45.15117" lon="5.75674">
        <ele>272</ele>
        <time>2011-05-18T07:41:16Z</time>
      </trkpt>
      <trkpt lat="45.15117" lon="5.75676">
        <ele>272</ele>
        <time>2011-05-18T07:41:17Z</time>
      </trkpt>
      <trkpt lat="45.15118" lon="5.75678">
        <ele>272</ele>
        <time>2011-05-18T07:41:18Z</time>
      </trkpt>
      <trkpt lat="45.15119" lon="5.75682">
        <ele>271</ele>
        <time>2011-05-18T07:41:19Z</time>
      </trkpt>
      <trkpt lat="45.1512" lon="5.75683">
        <ele>271</ele>
        <time>2011-05-18T07:41:20Z</time>
      </trkpt>
      <trkpt lat="45.15121" lon="5.75685">
        <ele>271</ele>
        <time>2011-05-18T07:41:21Z</time>
      </trkpt>
      <trkpt lat="45.15123" lon="5.75689">
        <ele>271</ele>
        <time>2011-05-18T07:41:22Z</time>
      </trkpt>
      <trkpt lat="45.15126" lon="5.75691">
        <ele>271</ele>
        <time>2011-05-18T07:41:23Z</time>
      </trkpt>
      <trkpt lat="45.15127" lon="5.75693">
        <ele>271</ele>
        <time>2011-05-18T07:41:24Z</time>
      </trkpt>
      <trkpt lat="45.15127" lon="5.75695">
        <ele>270</ele>
        <time>2011-05-18T07:41:25Z</time>
      </trkpt>
      <trkpt lat="45.15128" lon="5.75697">
        <ele>271</ele>
        <time>2011-05-18T07:41:26Z</time>
      </trkpt>
      <trkpt lat="45.15131" lon="5.757">
        <ele>271</ele>
        <time>2011-05-18T07:41:27Z</time>
      </trkpt>
      <trkpt lat="45.15133" lon="5.75704">
        <ele>270</ele>
        <time>2011-05-18T07:41:28Z</time>
      </trkpt>
      <trkpt lat="45.15131" lon="5.75712">
        <ele>271</ele>
        <time>2011-05-18T07:41:29Z</time>
      </trkpt>
      <trkpt lat="45.15134" lon="5.75717">
        <ele>271</ele>
        <time>2011-05-18T07:41:30Z</time>
      </trkpt>
      <trkpt lat="45.15136" lon="5.75719">
        <ele>271</ele>
        <time>2011-05-18T07:41:31Z</time>
      </trkpt>
      <trkpt lat="45.15136" lon="5.75722">
        <ele>271</ele>
        <time>2011-05-18T07:41:32Z</time>
      </trkpt>
      <trkpt lat="45.15138" lon="5.75723">
        <ele>271</ele>
        <time>2011-05-18T07:41:33Z</time>
      </trkpt>
      <trkpt lat="45.15139" lon="5.75725">
        <ele>271</ele>
        <time>2011-05-18T07:41:34Z</time>
      </trkpt>
      <trkpt lat="45.1514" lon="5.75728">
        <ele>271</ele>
        <time>2011-05-18T07:41:35Z</time>
      </trkpt>
      <trkpt lat="45.15141" lon="5.7573">
        <ele>271</ele>
        <time>2011-05-18T07:41:36Z</time>
      </trkpt>
      <trkpt lat="45.15141" lon="5.75733">
        <ele>271</ele>
        <time>2011-05-18T07:41:37Z</time>
      </trkpt>
      <trkpt lat="45.15141" lon="5.75736">
        <ele>270</ele>
        <time>2011-05-18T07:41:38Z</time>
      </trkpt>
      <trkpt lat="45.15143" lon="5.75738">
        <ele>270</ele>
        <time>2011-05-18T07:41:39Z</time>
      </trkpt>
      <trkpt lat="45.15144" lon="5.7574">
        <ele>270</ele>
        <time>2011-05-18T07:41:40Z</time>
      </trkpt>
      <trkpt lat="45.15146" lon="5.75742">
        <ele>270</ele>
        <time>2011-05-18T07:41:41Z</time>
      </trkpt>
      <trkpt lat="45.15147" lon="5.75745">
        <ele>269</ele>
        <time>2011-05-18T07:41:42Z</time>
      </trkpt>
      <trkpt lat="45.15147" lon="5.75748">
        <ele>269</ele>
        <time>2011-05-18T07:41:43Z</time>
      </trkpt>
      <trkpt lat="45.15147" lon="5.75749">
        <ele>269</ele>
        <time>2011-05-18T07:41:44Z</time>
      </trkpt>
      <trkpt lat="45.15148" lon="5.75752">
        <ele>268</ele>
        <time>2011-05-18T07:41:45Z</time>
      </trkpt>
      <trkpt lat="45.15149" lon="5.75756">
        <ele>268</ele>
        <time>2011-05-18T07:41:46Z</time>
      </trkpt>
      <trkpt lat="45.15151" lon="5.75758">
        <ele>267</ele>
        <time>2011-05-18T07:41:47Z</time>
      </trkpt>
      <trkpt lat="45.15151" lon="5.75761">
        <ele>267</ele>
        <time>2011-05-18T07:41:48Z</time>
      </trkpt>
      <trkpt lat="45.1515" lon="5.75763">
        <ele>267</ele>
        <time>2011-05-18T07:41:49Z</time>
      </trkpt>
      <trkpt lat="45.15151" lon="5.75766">
        <ele>266</ele>
        <time>2011-05-18T07:41:50Z</time>
      </trkpt>
      <trkpt lat="45.15157" lon="5.7579">
        <ele>266</ele>
        <time>2011-05-18T07:41:51Z</time>
      </trkpt>
      <trkpt lat="45.15157" lon="5.75795">
        <ele>266</ele>
        <time>2011-05-18T07:41:52Z</time>
      </trkpt>
      <trkpt lat="45.15158" lon="5.75799">
        <ele>264</ele>
        <time>2011-05-18T07:41:53Z</time>
      </trkpt>
      <trkpt lat="45.15158" lon="5.75802">
        <ele>264</ele>
        <time>2011-05-18T07:41:54Z</time>
      </trkpt>
      <trkpt lat="45.15159" lon="5.75807">
        <ele>263</ele>
        <time>2011-05-18T07:41:55Z</time>
      </trkpt>
      <trkpt lat="45.15159" lon="5.75809">
        <ele>262</ele>
        <time>2011-05-18T07:41:56Z</time>
      </trkpt>
      <trkpt lat="45.15159" lon="5.75812">
        <ele>262</ele>
        <time>2011-05-18T07:41:57Z</time>
      </trkpt>
      <trkpt lat="45.1516" lon="5.75814">
        <ele>261</ele>
        <time>2011-05-18T07:41:58Z</time>
      </trkpt>
      <trkpt lat="45.1516" lon="5.75819">
        <ele>261</ele>
        <time>2011-05-18T07:41:59Z</time>
      </trkpt>
      <trkpt lat="45.1516" lon="5.75822">
        <ele>261</ele>
        <time>2011-05-18T07:42:00Z</time>
      </trkpt>
      <trkpt lat="45.1516" lon="5.75824">
        <ele>261</ele>
        <time>2011-05-18T07:42:01Z</time>
      </trkpt>
      <trkpt lat="45.15161" lon="5.75828">
        <ele>260</ele>
        <time>2011-05-18T07:42:02Z</time>
      </trkpt>
      <trkpt lat="45.15161" lon="5.75831">
        <ele>260</ele>
        <time>2011-05-18T07:42:03Z</time>
      </trkpt>
      <trkpt lat="45.15162" lon="5.75833">
        <ele>259</ele>
        <time>2011-05-18T07:42:04Z</time>
      </trkpt>
      <trkpt lat="45.15164" lon="5.75835">
        <ele>259</ele>
        <time>2011-05-18T07:42:05Z</time>
      </trkpt>
      <trkpt lat="45.15165" lon="5.75837">
        <ele>259</ele>
        <time>2011-05-18T07:42:06Z</time>
      </trkpt>
      <trkpt lat="45.15166" lon="5.75839">
        <ele>258</ele>
        <time>2011-05-18T07:42:07Z</time>
      </trkpt>
      <trkpt lat="45.15168" lon="5.75838">
        <ele>258</ele>
        <time>2011-05-18T07:42:08Z</time>
      </trkpt>
      <trkpt lat="45.15169" lon="5.7584">
        <ele>257</ele>
        <time>2011-05-18T07:42:09Z</time>
      </trkpt>
      <trkpt lat="45.15171" lon="5.75848">
        <ele>258</ele>
        <time>2011-05-18T07:42:10Z</time>
      </trkpt>
      <trkpt lat="45.15173" lon="5.75851">
        <ele>257</ele>
        <time>2011-05-18T07:42:11Z</time>
      </trkpt>
      <trkpt lat="45.15177" lon="5.75851">
        <ele>257</ele>
        <time>2011-05-18T07:42:12Z</time>
      </trkpt>
      <trkpt lat="45.15178" lon="5.75854">
        <ele>256</ele>
        <time>2011-05-18T07:42:13Z</time>
      </trkpt>
      <trkpt lat="45.15182" lon="5.75856">
        <ele>256</ele>
        <time>2011-05-18T07:42:14Z</time>
      </trkpt>
      <trkpt lat="45.15186" lon="5.7586">
        <ele>256</ele>
        <time>2011-05-18T07:42:15Z</time>
      </trkpt>
      <trkpt lat="45.15189" lon="5.75863">
        <ele>256</ele>
        <time>2011-05-18T07:42:16Z</time>
      </trkpt>
      <trkpt lat="45.15191" lon="5.75867">
        <ele>255</ele>
        <time>2011-05-18T07:42:17Z</time>
      </trkpt>
      <trkpt lat="45.15193" lon="5.7587">
        <ele>255</ele>
        <time>2011-05-18T07:42:18Z</time>
      </trkpt>
      <trkpt lat="45.15193" lon="5.75872">
        <ele>255</ele>
        <time>2011-05-18T07:42:19Z</time>
      </trkpt>
      <trkpt lat="45.15193" lon="5.75874">
        <ele>254</ele>
        <time>2011-05-18T07:42:20Z</time>
      </trkpt>
      <trkpt lat="45.15194" lon="5.75875">
        <ele>254</ele>
        <time>2011-05-18T07:42:21Z</time>
      </trkpt>
      <trkpt lat="45.15194" lon="5.75878">
        <ele>253</ele>
        <time>2011-05-18T07:42:22Z</time>
      </trkpt>
      <trkpt lat="45.15196" lon="5.75879">
        <ele>253</ele>
        <time>2011-05-18T07:42:23Z</time>
      </trkpt>
      <trkpt lat="45.15198" lon="5.75881">
        <ele>252</ele>
        <time>2011-05-18T07:42:24Z</time>
      </trkpt>
      <trkpt lat="45.15201" lon="5.75883">
        <ele>252</ele>
        <time>2011-05-18T07:42:25Z</time>
      </trkpt>
      <trkpt lat="45.15202" lon="5.75887">
        <ele>251</ele>
        <time>2011-05-18T07:42:26Z</time>
      </trkpt>
      <trkpt lat="45.15203" lon="5.75889">
        <ele>251</ele>
        <time>2011-05-18T07:42:27Z</time>
      </trkpt>
      <trkpt lat="45.15205" lon="5.75894">
        <ele>251</ele>
        <time>2011-05-18T07:42:28Z</time>
      </trkpt>
      <trkpt lat="45.15205" lon="5.75897">
        <ele>250</ele>
        <time>2011-05-18T07:42:29Z</time>
      </trkpt>
      <trkpt lat="45.15205" lon="5.75899">
        <ele>249</ele>
        <time>2011-05-18T07:42:30Z</time>
      </trkpt>
      <trkpt lat="45.15205" lon="5.75902">
        <ele>249</ele>
        <time>2011-05-18T07:42:31Z</time>
      </trkpt>
      <trkpt lat="45.15206" lon="5.75905">
        <ele>249</ele>
        <time>2011-05-18T07:42:32Z</time>
      </trkpt>
      <trkpt lat="45.15207" lon="5.75907">
        <ele>248</ele>
        <time>2011-05-18T07:42:33Z</time>
      </trkpt>
      <trkpt lat="45.15208" lon="5.7591">
        <ele>248</ele>
        <time>2011-05-18T07:42:34Z</time>
      </trkpt>
      <trkpt lat="45.15209" lon="5.75913">
        <ele>247</ele>
        <time>2011-05-18T07:42:35Z</time>
      </trkpt>
      <trkpt lat="45.15209" lon="5.75916">
        <ele>246</ele>
        <time>2011-05-18T07:42:36Z</time>
      </trkpt>
      <trkpt lat="45.15209" lon="5.75918">
        <ele>246</ele>
        <time>2011-05-18T07:42:37Z</time>
      </trkpt>
      <trkpt lat="45.15209" lon="5.75918">
        <ele>245</ele>
        <time>2011-05-18T07:42:38Z</time>
      </trkpt>
      <trkpt lat="45.15208" lon="5.75926">
        <ele>245</ele>
        <time>2011-05-18T07:42:39Z</time>
      </trkpt>
      <trkpt lat="45.15204" lon="5.75927">
        <ele>245</ele>
        <time>2011-05-18T07:42:40Z</time>
      </trkpt>
      <trkpt lat="45.15201" lon="5.75929">
        <ele>244</ele>
        <time>2011-05-18T07:42:41Z</time>
      </trkpt>
      <trkpt lat="45.15198" lon="5.75938">
        <ele>243</ele>
        <time>2011-05-18T07:42:42Z</time>
      </trkpt>
      <trkpt lat="45.15205" lon="5.75942">
        <ele>242</ele>
        <time>2011-05-18T07:42:43Z</time>
      </trkpt>
      <trkpt lat="45.15208" lon="5.75943">
        <ele>242</ele>
        <time>2011-05-18T07:42:44Z</time>
      </trkpt>
      <trkpt lat="45.15207" lon="5.75946">
        <ele>241</ele>
        <time>2011-05-18T07:42:45Z</time>
      </trkpt>
      <trkpt lat="45.1521" lon="5.75948">
        <ele>241</ele>
        <time>2011-05-18T07:42:46Z</time>
      </trkpt>
      <trkpt lat="45.15213" lon="5.7595">
        <ele>241</ele>
        <time>2011-05-18T07:42:47Z</time>
      </trkpt>
      <trkpt lat="45.15216" lon="5.75951">
        <ele>240</ele>
        <time>2011-05-18T07:42:48Z</time>
      </trkpt>
      <trkpt lat="45.15217" lon="5.75953">
        <ele>240</ele>
        <time>2011-05-18T07:42:49Z</time>
      </trkpt>
      <trkpt lat="45.15217" lon="5.75954">
        <ele>239</ele>
        <time>2011-05-18T07:42:50Z</time>
      </trkpt>
      <trkpt lat="45.15217" lon="5.75956">
        <ele>239</ele>
        <time>2011-05-18T07:42:51Z</time>
      </trkpt>
      <trkpt lat="45.15218" lon="5.75958">
        <ele>238</ele>
        <time>2011-05-18T07:42:52Z</time>
      </trkpt>
      <trkpt lat="45.15219" lon="5.75959">
        <ele>238</ele>
        <time>2011-05-18T07:42:53Z</time>
      </trkpt>
      <trkpt lat="45.1522" lon="5.75961">
        <ele>238</ele>
        <time>2011-05-18T07:42:54Z</time>
      </trkpt>
      <trkpt lat="45.1522" lon="5.75964">
        <ele>237</ele>
        <time>2011-05-18T07:42:55Z</time>
      </trkpt>
      <trkpt lat="45.15221" lon="5.75967">
        <ele>237</ele>
        <time>2011-05-18T07:42:56Z</time>
      </trkpt>
      <trkpt lat="45.15223" lon="5.75969">
        <ele>237</ele>
        <time>2011-05-18T07:42:57Z</time>
      </trkpt>
      <trkpt lat="45.15226" lon="5.75971">
        <ele>237</ele>
        <time>2011-05-18T07:42:58Z</time>
      </trkpt>
      <trkpt lat="45.15229" lon="5.75974">
        <ele>236</ele>
        <time>2011-05-18T07:42:59Z</time>
      </trkpt>
      <trkpt lat="45.15233" lon="5.7599">
        <ele>239</ele>
        <time>2011-05-18T07:43:00Z</time>
      </trkpt>
      <trkpt lat="45.15235" lon="5.75994">
        <ele>239</ele>
        <time>2011-05-18T07:43:01Z</time>
      </trkpt>
      <trkpt lat="45.15233" lon="5.75998">
        <ele>238</ele>
        <time>2011-05-18T07:43:02Z</time>
      </trkpt>
      <trkpt lat="45.15236" lon="5.76">
        <ele>238</ele>
        <time>2011-05-18T07:43:03Z</time>
      </trkpt>
      <trkpt lat="45.15238" lon="5.76002">
        <ele>238</ele>
        <time>2011-05-18T07:43:04Z</time>
      </trkpt>
      <trkpt lat="45.15239" lon="5.76005">
        <ele>237</ele>
        <time>2011-05-18T07:43:05Z</time>
      </trkpt>
      <trkpt lat="45.15241" lon="5.76007">
        <ele>237</ele>
        <time>2011-05-18T07:43:06Z</time>
      </trkpt>
      <trkpt lat="45.15242" lon="5.76009">
        <ele>236</ele>
        <time>2011-05-18T07:43:07Z</time>
      </trkpt>
      <trkpt lat="45.15244" lon="5.7601">
        <ele>236</ele>
        <time>2011-05-18T07:43:08Z</time>
      </trkpt>
      <trkpt lat="45.15246" lon="5.76012">
        <ele>235</ele>
        <time>2011-05-18T07:43:09Z</time>
      </trkpt>
      <trkpt lat="45.15248" lon="5.76015">
        <ele>235</ele>
        <time>2011-05-18T07:43:10Z</time>
      </trkpt>
      <trkpt lat="45.1525" lon="5.76024">
        <ele>235</ele>
        <time>2011-05-18T07:43:11Z</time>
      </trkpt>
      <trkpt lat="45.15251" lon="5.76025">
        <ele>235</ele>
        <time>2011-05-18T07:43:12Z</time>
      </trkpt>
      <trkpt lat="45.15256" lon="5.76026">
        <ele>234</ele>
        <time>2011-05-18T07:43:13Z</time>
      </trkpt>
      <trkpt lat="45.15257" lon="5.76031">
        <ele>234</ele>
        <time>2011-05-18T07:43:14Z</time>
      </trkpt>
      <trkpt lat="45.15258" lon="5.76034">
        <ele>233</ele>
        <time>2011-05-18T07:43:15Z</time>
      </trkpt>
      <trkpt lat="45.15258" lon="5.76037">
        <ele>233</ele>
        <time>2011-05-18T07:43:16Z</time>
      </trkpt>
      <trkpt lat="45.1526" lon="5.76039">
        <ele>233</ele>
        <time>2011-05-18T07:43:17Z</time>
      </trkpt>
      <trkpt lat="45.15262" lon="5.76041">
        <ele>233</ele>
        <time>2011-05-18T07:43:18Z</time>
      </trkpt>
      <trkpt lat="45.15265" lon="5.76045">
        <ele>232</ele>
        <time>2011-05-18T07:43:19Z</time>
      </trkpt>
      <trkpt lat="45.15268" lon="5.76048">
        <ele>232</ele>
        <time>2011-05-18T07:43:20Z</time>
      </trkpt>
      <trkpt lat="45.1527" lon="5.7605">
        <ele>231</ele>
        <time>2011-05-18T07:43:21Z</time>
      </trkpt>
      <trkpt lat="45.1527" lon="5.76053">
        <ele>231</ele>
        <time>2011-05-18T07:43:22Z</time>
      </trkpt>
      <trkpt lat="45.15273" lon="5.76056">
        <ele>231</ele>
        <time>2011-05-18T07:43:23Z</time>
      </trkpt>
      <trkpt lat="45.15276" lon="5.7606">
        <ele>230</ele>
        <time>2011-05-18T07:43:24Z</time>
      </trkpt>
      <trkpt lat="45.15278" lon="5.76062">
        <ele>230</ele>
        <time>2011-05-18T07:43:25Z</time>
      </trkpt>
      <trkpt lat="45.15281" lon="5.76064">
        <ele>230</ele>
        <time>2011-05-18T07:43:26Z</time>
      </trkpt>
      <trkpt lat="45.15283" lon="5.76066">
        <ele>229</ele>
        <time>2011-05-18T07:43:27Z</time>
      </trkpt>
      <trkpt lat="45.15285" lon="5.76069">
        <ele>229</ele>
        <time>2011-05-18T07:43:28Z</time>
      </trkpt>
      <trkpt lat="45.15288" lon="5.76072">
        <ele>229</ele>
        <time>2011-05-18T07:43:29Z</time>
      </trkpt>
      <trkpt lat="45.15289" lon="5.76073">
        <ele>229</ele>
        <time>2011-05-18T07:43:30Z</time>
      </trkpt>
      <trkpt lat="45.15292" lon="5.76074">
        <ele>229</ele>
        <time>2011-05-18T07:43:31Z</time>
      </trkpt>
      <trkpt lat="45.15294" lon="5.76075">
        <ele>229</ele>
        <time>2011-05-18T07:43:32Z</time>
      </trkpt>
      <trkpt lat="45.15295" lon="5.76076">
        <ele>228</ele>
        <time>2011-05-18T07:43:33Z</time>
      </trkpt>
      <trkpt lat="45.15296" lon="5.76075">
        <ele>228</ele>
        <time>2011-05-18T07:43:34Z</time>
      </trkpt>
      <trkpt lat="45.15297" lon="5.76077">
        <ele>228</ele>
        <time>2011-05-18T07:43:35Z</time>
      </trkpt>
      <trkpt lat="45.15299" lon="5.76079">
        <ele>227</ele>
        <time>2011-05-18T07:43:36Z</time>
      </trkpt>
      <trkpt lat="45.15302" lon="5.76082">
        <ele>227</ele>
        <time>2011-05-18T07:43:37Z</time>
      </trkpt>
      <trkpt lat="45.15303" lon="5.76084">
        <ele>227</ele>
        <time>2011-05-18T07:43:38Z</time>
      </trkpt>
      <trkpt lat="45.15303" lon="5.76087">
        <ele>227</ele>
        <time>2011-05-18T07:43:39Z</time>
      </trkpt>
      <trkpt lat="45.15305" lon="5.76088">
        <ele>226</ele>
        <time>2011-05-18T07:43:40Z</time>
      </trkpt>
      <trkpt lat="45.15307" lon="5.7609">
        <ele>226</ele>
        <time>2011-05-18T07:43:41Z</time>
      </trkpt>
      <trkpt lat="45.15308" lon="5.76093">
        <ele>226</ele>
        <time>2011-05-18T07:43:42Z</time>
      </trkpt>
      <trkpt lat="45.1531" lon="5.76095">
        <ele>226</ele>
        <time>2011-05-18T07:43:43Z</time>
      </trkpt>
      <trkpt lat="45.15311" lon="5.76098">
        <ele>226</ele>
        <time>2011-05-18T07:43:44Z</time>
      </trkpt>
      <trkpt lat="45.15312" lon="5.76102">
        <ele>225</ele>
        <time>2011-05-18T07:43:45Z</time>
      </trkpt>
      <trkpt lat="45.15314" lon="5.76105">
        <ele>225</ele>
        <time>2011-05-18T07:43:46Z</time>
      </trkpt>
      <trkpt lat="45.15316" lon="5.76108">
        <ele>225</ele>
        <time>2011-05-18T07:43:47Z</time>
      </trkpt>
      <trkpt lat="45.15316" lon="5.76111">
        <ele>224</ele>
        <time>2011-05-18T07:43:48Z</time>
      </trkpt>
      <trkpt lat="45.15316" lon="5.76113">
        <ele>224</ele>
        <time>2011-05-18T07:43:49Z</time>
      </trkpt>
      <trkpt lat="45.15317" lon="5.76114">
        <ele>224</ele>
        <time>2011-05-18T07:43:50Z</time>
      </trkpt>
      <trkpt lat="45.15319" lon="5.76115">
        <ele>224</ele>
        <time>2011-05-18T07:43:51Z</time>
      </trkpt>
      <trkpt lat="45.15321" lon="5.76115">
        <ele>224</ele>
        <time>2011-05-18T07:43:52Z</time>
      </trkpt>
      <trkpt lat="45.15323" lon="5.76117">
        <ele>224</ele>
        <time>2011-05-18T07:43:53Z</time>
      </trkpt>
      <trkpt lat="45.15324" lon="5.76118">
        <ele>224</ele>
        <time>2011-05-18T07:43:54Z</time>
      </trkpt>
      <trkpt lat="45.15327" lon="5.7612">
        <ele>224</ele>
        <time>2011-05-18T07:43:55Z</time>
      </trkpt>
      <trkpt lat="45.15333" lon="5.76122">
        <ele>224</ele>
        <time>2011-05-18T07:43:56Z</time>
      </trkpt>
      <trkpt lat="45.15336" lon="5.76122">
        <ele>224</ele>
        <time>2011-05-18T07:43:57Z</time>
      </trkpt>
      <trkpt lat="45.15337" lon="5.76123">
        <ele>224</ele>
        <time>2011-05-18T07:43:58Z</time>
      </trkpt>
      <trkpt lat="45.1534" lon="5.76126">
        <ele>224</ele>
        <time>2011-05-18T07:43:59Z</time>
      </trkpt>
      <trkpt lat="45.15337" lon="5.7613">
        <ele>224</ele>
        <time>2011-05-18T07:44:00Z</time>
      </trkpt>
      <trkpt lat="45.1534" lon="5.76132">
        <ele>224</ele>
        <time>2011-05-18T07:44:01Z</time>
      </trkpt>
      <trkpt lat="45.15343" lon="5.76133">
        <ele>224</ele>
        <time>2011-05-18T07:44:02Z</time>
      </trkpt>
      <trkpt lat="45.15349" lon="5.76134">
        <ele>223</ele>
        <time>2011-05-18T07:44:03Z</time>
      </trkpt>
      <trkpt lat="45.15355" lon="5.76135">
        <ele>223</ele>
        <time>2011-05-18T07:44:04Z</time>
      </trkpt>
      <trkpt lat="45.15357" lon="5.76136">
        <ele>223</ele>
        <time>2011-05-18T07:44:05Z</time>
      </trkpt>
      <trkpt lat="45.15359" lon="5.76137">
        <ele>223</ele>
        <time>2011-05-18T07:44:06Z</time>
      </trkpt>
      <trkpt lat="45.15362" lon="5.7614">
        <ele>223</ele>
        <time>2011-05-18T07:44:07Z</time>
      </trkpt>
      <trkpt lat="45.15365" lon="5.76141">
        <ele>223</ele>
        <time>2011-05-18T07:44:08Z</time>
      </trkpt>
      <trkpt lat="45.1537" lon="5.76144">
        <ele>223</ele>
        <time>2011-05-18T07:44:09Z</time>
      </trkpt>
      <trkpt lat="45.15372" lon="5.76146">
        <ele>223</ele>
        <time>2011-05-18T07:44:10Z</time>
      </trkpt>
      <trkpt lat="45.15375" lon="5.76148">
        <ele>223</ele>
        <time>2011-05-18T07:44:11Z</time>
      </trkpt>
      <trkpt lat="45.15387" lon="5.76168">
        <ele>225</ele>
        <time>2011-05-18T07:44:12Z</time>
      </trkpt>
      <trkpt lat="45.15394" lon="5.76179">
        <ele>225</ele>
        <time>2011-05-18T07:44:13Z</time>
      </trkpt>
      <trkpt lat="45.15395" lon="5.7618">
        <ele>225</ele>
        <time>2011-05-18T07:44:14Z</time>
      </trkpt>
      <trkpt lat="45.15398" lon="5.76184">
        <ele>226</ele>
        <time>2011-05-18T07:44:15Z</time>
      </trkpt>
      <trkpt lat="45.1541" lon="5.76194">
        <ele>227</ele>
        <time>2011-05-18T07:44:16Z</time>
      </trkpt>
      <trkpt lat="45.15414" lon="5.76192">
        <ele>227</ele>
        <time>2011-05-18T07:44:17Z</time>
      </trkpt>
      <trkpt lat="45.15416" lon="5.76195">
        <ele>228</ele>
        <time>2011-05-18T07:44:18Z</time>
      </trkpt>
      <trkpt lat="45.15421" lon="5.76193">
        <ele>229</ele>
        <time>2011-05-18T07:44:19Z</time>
      </trkpt>
      <trkpt lat="45.15424" lon="5.76191">
        <ele>229</ele>
        <time>2011-05-18T07:44:20Z</time>
      </trkpt>
      <trkpt lat="45.15427" lon="5.76189">
        <ele>230</ele>
        <time>2011-05-18T07:44:21Z</time>
      </trkpt>
      <trkpt lat="45.15429" lon="5.76186">
        <ele>230</ele>
        <time>2011-05-18T07:44:22Z</time>
      </trkpt>
      <trkpt lat="45.15431" lon="5.76184">
        <ele>230</ele>
        <time>2011-05-18T07:44:23Z</time>
      </trkpt>
      <trkpt lat="45.15432" lon="5.76181">
        <ele>230</ele>
        <time>2011-05-18T07:44:24Z</time>
      </trkpt>
      <trkpt lat="45.15434" lon="5.7618">
        <ele>231</ele>
        <time>2011-05-18T07:44:25Z</time>
      </trkpt>
      <trkpt lat="45.15436" lon="5.76179">
        <ele>231</ele>
        <time>2011-05-18T07:44:26Z</time>
      </trkpt>
      <trkpt lat="45.15435" lon="5.76182">
        <ele>230</ele>
        <time>2011-05-18T07:44:27Z</time>
      </trkpt>
      <trkpt lat="45.15437" lon="5.76181">
        <ele>231</ele>
        <time>2011-05-18T07:44:28Z</time>
      </trkpt>
      <trkpt lat="45.15439" lon="5.76181">
        <ele>231</ele>
        <time>2011-05-18T07:44:29Z</time>
      </trkpt>
      <trkpt lat="45.15442" lon="5.76175">
        <ele>231</ele>
        <time>2011-05-18T07:44:30Z</time>
      </trkpt>
      <trkpt lat="45.15443" lon="5.76173">
        <ele>231</ele>
        <time>2011-05-18T07:44:31Z</time>
      </trkpt>
      <trkpt lat="45.15445" lon="5.7617">
        <ele>231</ele>
        <time>2011-05-18T07:44:32Z</time>
      </trkpt>
      <trkpt lat="45.15448" lon="5.76167">
        <ele>231</ele>
        <time>2011-05-18T07:44:33Z</time>
      </trkpt>
      <trkpt lat="45.1545" lon="5.76165">
        <ele>231</ele>
        <time>2011-05-18T07:44:34Z</time>
      </trkpt>
      <trkpt lat="45.15451" lon="5.76164">
        <ele>231</ele>
        <time>2011-05-18T07:44:35Z</time>
      </trkpt>
      <trkpt lat="45.15453" lon="5.76162">
        <ele>231</ele>
        <time>2011-05-18T07:44:36Z</time>
      </trkpt>
      <trkpt lat="45.15456" lon="5.76157">
        <ele>232</ele>
        <time>2011-05-18T07:44:37Z</time>
      </trkpt>
      <trkpt lat="45.15458" lon="5.76155">
        <ele>232</ele>
        <time>2011-05-18T07:44:38Z</time>
      </trkpt>
      <trkpt lat="45.15461" lon="5.76151">
        <ele>232</ele>
        <time>2011-05-18T07:44:39Z</time>
      </trkpt>
      <trkpt lat="45.15463" lon="5.76148">
        <ele>232</ele>
        <time>2011-05-18T07:44:40Z</time>
      </trkpt>
      <trkpt lat="45.15464" lon="5.76145">
        <ele>232</ele>
        <time>2011-05-18T07:44:41Z</time>
      </trkpt>
      <trkpt lat="45.15466" lon="5.76143">
        <ele>231</ele>
        <time>2011-05-18T07:44:42Z</time>
      </trkpt>
      <trkpt lat="45.15466" lon="5.7614">
        <ele>232</ele>
        <time>2011-05-18T07:44:43Z</time>
      </trkpt>
      <trkpt lat="45.15468" lon="5.76139">
        <ele>232</ele>
        <time>2011-05-18T07:44:44Z</time>
      </trkpt>
      <trkpt lat="45.15469" lon="5.76135">
        <ele>233</ele>
        <time>2011-05-18T07:44:45Z</time>
      </trkpt>
      <trkpt lat="45.15472" lon="5.76131">
        <ele>233</ele>
        <time>2011-05-18T07:44:46Z</time>
      </trkpt>
      <trkpt lat="45.15475" lon="5.7613">
        <ele>232</ele>
        <time>2011-05-18T07:44:47Z</time>
      </trkpt>
      <trkpt lat="45.15478" lon="5.76127">
        <ele>233</ele>
        <time>2011-05-18T07:44:48Z</time>
      </trkpt>
      <trkpt lat="45.15482" lon="5.76124">
        <ele>233</ele>
        <time>2011-05-18T07:44:49Z</time>
      </trkpt>
      <trkpt lat="45.15484" lon="5.76122">
        <ele>233</ele>
        <time>2011-05-18T07:44:50Z</time>
      </trkpt>
      <trkpt lat="45.15487" lon="5.76121">
        <ele>233</ele>
        <time>2011-05-18T07:44:51Z</time>
      </trkpt>
      <trkpt lat="45.1549" lon="5.76118">
        <ele>232</ele>
        <time>2011-05-18T07:44:52Z</time>
      </trkpt>
      <trkpt lat="45.1549" lon="5.76115">
        <ele>232</ele>
        <time>2011-05-18T07:44:53Z</time>
      </trkpt>
      <trkpt lat="45.1549" lon="5.76112">
        <ele>232</ele>
        <time>2011-05-18T07:44:54Z</time>
      </trkpt>
      <trkpt lat="45.15488" lon="5.76109">
        <ele>232</ele>
        <time>2011-05-18T07:44:55Z</time>
      </trkpt>
      <trkpt lat="45.15485" lon="5.76105">
        <ele>231</ele>
        <time>2011-05-18T07:44:56Z</time>
      </trkpt>
      <trkpt lat="45.15484" lon="5.76102">
        <ele>231</ele>
        <time>2011-05-18T07:44:57Z</time>
      </trkpt>
      <trkpt lat="45.15482" lon="5.76098">
        <ele>232</ele>
        <time>2011-05-18T07:44:58Z</time>
      </trkpt>
      <trkpt lat="45.1548" lon="5.76094">
        <ele>232</ele>
        <time>2011-05-18T07:44:59Z</time>
      </trkpt>
      <trkpt lat="45.15477" lon="5.76091">
        <ele>232</ele>
        <time>2011-05-18T07:45:00Z</time>
      </trkpt>
      <trkpt lat="45.15473" lon="5.76086">
        <ele>236</ele>
        <time>2011-05-18T07:45:01Z</time>
      </trkpt>
      <trkpt lat="45.15472" lon="5.76084">
        <ele>237</ele>
        <time>2011-05-18T07:45:02Z</time>
      </trkpt>
      <trkpt lat="45.15471" lon="5.76081">
        <ele>237</ele>
        <time>2011-05-18T07:45:03Z</time>
      </trkpt>
      <trkpt lat="45.15469" lon="5.76078">
        <ele>238</ele>
        <time>2011-05-18T07:45:04Z</time>
      </trkpt>
      <trkpt lat="45.15468" lon="5.76075">
        <ele>238</ele>
        <time>2011-05-18T07:45:05Z</time>
      </trkpt>
      <trkpt lat="45.15467" lon="5.7607">
        <ele>238</ele>
        <time>2011-05-18T07:45:06Z</time>
      </trkpt>
      <trkpt lat="45.15466" lon="5.76064">
        <ele>240</ele>
        <time>2011-05-18T07:45:07Z</time>
      </trkpt>
      <trkpt lat="45.15466" lon="5.7606">
        <ele>239</ele>
        <time>2011-05-18T07:45:08Z</time>
      </trkpt>
      <trkpt lat="45.15465" lon="5.76058">
        <ele>240</ele>
        <time>2011-05-18T07:45:09Z</time>
      </trkpt>
      <trkpt lat="45.15464" lon="5.76056">
        <ele>240</ele>
        <time>2011-05-18T07:45:10Z</time>
      </trkpt>
      <trkpt lat="45.15463" lon="5.76051">
        <ele>240</ele>
        <time>2011-05-18T07:45:11Z</time>
      </trkpt>
      <trkpt lat="45.15463" lon="5.76048">
        <ele>240</ele>
        <time>2011-05-18T07:45:12Z</time>
      </trkpt>
      <trkpt lat="45.15463" lon="5.76044">
        <ele>239</ele>
        <time>2011-05-18T07:45:13Z</time>
      </trkpt>
      <trkpt lat="45.15462" lon="5.76041">
        <ele>240</ele>
        <time>2011-05-18T07:45:14Z</time>
      </trkpt>
      <trkpt lat="45.15459" lon="5.76039">
        <ele>240</ele>
        <time>2011-05-18T07:45:15Z</time>
      </trkpt>
      <trkpt lat="45.15457" lon="5.76033">
        <ele>239</ele>
        <time>2011-05-18T07:45:16Z</time>
      </trkpt>
      <trkpt lat="45.15455" lon="5.76029">
        <ele>240</ele>
        <time>2011-05-18T07:45:17Z</time>
      </trkpt>
      <trkpt lat="45.15453" lon="5.76024">
        <ele>240</ele>
        <time>2011-05-18T07:45:18Z</time>
      </trkpt>
      <trkpt lat="45.15452" lon="5.76021">
        <ele>240</ele>
        <time>2011-05-18T07:45:19Z</time>
      </trkpt>
      <trkpt lat="45.15452" lon="5.76013">
        <ele>241</ele>
        <time>2011-05-18T07:45:20Z</time>
      </trkpt>
      <trkpt lat="45.15451" lon="5.76009">
        <ele>242</ele>
        <time>2011-05-18T07:45:21Z</time>
      </trkpt>
      <trkpt lat="45.15449" lon="5.76006">
        <ele>242</ele>
        <time>2011-05-18T07:45:22Z</time>
      </trkpt>
      <trkpt lat="45.15449" lon="5.76002">
        <ele>241</ele>
        <time>2011-05-18T07:45:23Z</time>
      </trkpt>
      <trkpt lat="45.15448" lon="5.75999">
        <ele>241</ele>
        <time>2011-05-18T07:45:24Z</time>
      </trkpt>
      <trkpt lat="45.15447" lon="5.75994">
        <ele>242</ele>
        <time>2011-05-18T07:45:25Z</time>
      </trkpt>
      <trkpt lat="45.15443" lon="5.75989">
        <ele>241</ele>
        <time>2011-05-18T07:45:26Z</time>
      </trkpt>
      <trkpt lat="45.15442" lon="5.75987">
        <ele>241</ele>
        <time>2011-05-18T07:45:27Z</time>
      </trkpt>
      <trkpt lat="45.15442" lon="5.75984">
        <ele>240</ele>
        <time>2011-05-18T07:45:28Z</time>
      </trkpt>
      <trkpt lat="45.1544" lon="5.75982">
        <ele>240</ele>
        <time>2011-05-18T07:45:29Z</time>
      </trkpt>
      <trkpt lat="45.15439" lon="5.75979">
        <ele>240</ele>
        <time>2011-05-18T07:45:30Z</time>
      </trkpt>
      <trkpt lat="45.15439" lon="5.75976">
        <ele>240</ele>
        <time>2011-05-18T07:45:31Z</time>
      </trkpt>
      <trkpt lat="45.15437" lon="5.75974">
        <ele>241</ele>
        <time>2011-05-18T07:45:32Z</time>
      </trkpt>
      <trkpt lat="45.15437" lon="5.75972">
        <ele>241</ele>
        <time>2011-05-18T07:45:33Z</time>
      </trkpt>
      <trkpt lat="45.15437" lon="5.7597">
        <ele>241</ele>
        <time>2011-05-18T07:45:34Z</time>
      </trkpt>
      <trkpt lat="45.15436" lon="5.75968">
        <ele>241</ele>
        <time>2011-05-18T07:45:35Z</time>
      </trkpt>
      <trkpt lat="45.15436" lon="5.75966">
        <ele>242</ele>
        <time>2011-05-18T07:45:36Z</time>
      </trkpt>
      <trkpt lat="45.15436" lon="5.75963">
        <ele>242</ele>
        <time>2011-05-18T07:45:37Z</time>
      </trkpt>
      <trkpt lat="45.15437" lon="5.75959">
        <ele>243</ele>
        <time>2011-05-18T07:45:38Z</time>
      </trkpt>
      <trkpt lat="45.15438" lon="5.75956">
        <ele>242</ele>
        <time>2011-05-18T07:45:39Z</time>
      </trkpt>
      <trkpt lat="45.15438" lon="5.75953">
        <ele>243</ele>
        <time>2011-05-18T07:45:40Z</time>
      </trkpt>
      <trkpt lat="45.15437" lon="5.7595">
        <ele>243</ele>
        <time>2011-05-18T07:45:41Z</time>
      </trkpt>
      <trkpt lat="45.15436" lon="5.75947">
        <ele>242</ele>
        <time>2011-05-18T07:45:42Z</time>
      </trkpt>
      <trkpt lat="45.15435" lon="5.75944">
        <ele>243</ele>
        <time>2011-05-18T07:45:43Z</time>
      </trkpt>
      <trkpt lat="45.15433" lon="5.7594">
        <ele>243</ele>
        <time>2011-05-18T07:45:44Z</time>
      </trkpt>
      <trkpt lat="45.15432" lon="5.75935">
        <ele>243</ele>
        <time>2011-05-18T07:45:45Z</time>
      </trkpt>
      <trkpt lat="45.15431" lon="5.7593">
        <ele>244</ele>
        <time>2011-05-18T07:45:46Z</time>
      </trkpt>
      <trkpt lat="45.15431" lon="5.75926">
        <ele>244</ele>
        <time>2011-05-18T07:45:47Z</time>
      </trkpt>
      <trkpt lat="45.1543" lon="5.75923">
        <ele>244</ele>
        <time>2011-05-18T07:45:48Z</time>
      </trkpt>
      <trkpt lat="45.15429" lon="5.7592">
        <ele>244</ele>
        <time>2011-05-18T07:45:49Z</time>
      </trkpt>
      <trkpt lat="45.15429" lon="5.75914">
        <ele>244</ele>
        <time>2011-05-18T07:45:50Z</time>
      </trkpt>
      <trkpt lat="45.15429" lon="5.7591">
        <ele>245</ele>
        <time>2011-05-18T07:45:51Z</time>
      </trkpt>
      <trkpt lat="45.15429" lon="5.75905">
        <ele>245</ele>
        <time>2011-05-18T07:45:52Z</time>
      </trkpt>
      <trkpt lat="45.15429" lon="5.75901">
        <ele>245</ele>
        <time>2011-05-18T07:45:53Z</time>
      </trkpt>
      <trkpt lat="45.15426" lon="5.75897">
        <ele>245</ele>
        <time>2011-05-18T07:45:54Z</time>
      </trkpt>
      <trkpt lat="45.15423" lon="5.75893">
        <ele>245</ele>
        <time>2011-05-18T07:45:55Z</time>
      </trkpt>
      <trkpt lat="45.15421" lon="5.7589">
        <ele>245</ele>
        <time>2011-05-18T07:45:56Z</time>
      </trkpt>
      <trkpt lat="45.1542" lon="5.75886">
        <ele>245</ele>
        <time>2011-05-18T07:45:57Z</time>
      </trkpt>
      <trkpt lat="45.15419" lon="5.75883">
        <ele>245</ele>
        <time>2011-05-18T07:45:58Z</time>
      </trkpt>
      <trkpt lat="45.15418" lon="5.7588">
        <ele>245</ele>
        <time>2011-05-18T07:45:59Z</time>
      </trkpt>
      <trkpt lat="45.15416" lon="5.75877">
        <ele>245</ele>
        <time>2011-05-18T07:46:00Z</time>
      </trkpt>
      <trkpt lat="45.15414" lon="5.75875">
        <ele>245</ele>
        <time>2011-05-18T07:46:01Z</time>
      </trkpt>
      <trkpt lat="45.15413" lon="5.75874">
        <ele>245</ele>
        <time>2011-05-18T07:46:02Z</time>
      </trkpt>
      <trkpt lat="45.15411" lon="5.75873">
        <ele>245</ele>
        <time>2011-05-18T07:46:03Z</time>
      </trkpt>
      <trkpt lat="45.15409" lon="5.75874">
        <ele>245</ele>
        <time>2011-05-18T07:46:04Z</time>
      </trkpt>
      <trkpt lat="45.15407" lon="5.75875">
        <ele>245</ele>
        <time>2011-05-18T07:46:05Z</time>
      </trkpt>
      <trkpt lat="45.15406" lon="5.75876">
        <ele>245</ele>
        <time>2011-05-18T07:46:06Z</time>
      </trkpt>
      <trkpt lat="45.15405" lon="5.75875">
        <ele>245</ele>
        <time>2011-05-18T07:46:07Z</time>
      </trkpt>
      <trkpt lat="45.15405" lon="5.75874">
        <ele>244</ele>
        <time>2011-05-18T07:46:08Z</time>
      </trkpt>
      <trkpt lat="45.15405" lon="5.75873">
        <ele>245</ele>
        <time>2011-05-18T07:46:09Z</time>
      </trkpt>
      <trkpt lat="45.15405" lon="5.75873">
        <ele>245</ele>
        <time>2011-05-18T07:46:10Z</time>
      </trkpt>
      <trkpt lat="45.15405" lon="5.75872">
        <ele>245</ele>
        <time>2011-05-18T07:46:11Z</time>
      </trkpt>
      <trkpt lat="45.15405" lon="5.75872">
        <ele>245</ele>
        <time>2011-05-18T07:46:12Z</time>
      </trkpt>
      <trkpt lat="45.15405" lon="5.75872">
        <ele>245</ele>
        <time>2011-05-18T07:46:13Z</time>
      </trkpt>
      <trkpt lat="45.15404" lon="5.75872">
        <ele>245</ele>
        <time>2011-05-18T07:46:14Z</time>
      </trkpt>
      <trkpt lat="45.15404" lon="5.75872">
        <ele>245</ele>
        <time>2011-05-18T07:46:15Z</time>
      </trkpt>
      <trkpt lat="45.15404" lon="5.75871">
        <ele>245</ele>
        <time>2011-05-18T07:46:16Z</time>
      </trkpt>
      <trkpt lat="45.15403" lon="5.75869">
        <ele>246</ele>
        <time>2011-05-18T07:46:17Z</time>
      </trkpt>
      <trkpt lat="45.15397" lon="5.75854">
        <ele>248</ele>
        <time>2011-05-18T07:46:18Z</time>
      </trkpt>
      <trkpt lat="45.15395" lon="5.75851">
        <ele>248</ele>
        <time>2011-05-18T07:46:19Z</time>
      </trkpt>
      <trkpt lat="45.15395" lon="5.75845">
        <ele>248</ele>
        <time>2011-05-18T07:46:20Z</time>
      </trkpt>
      <trkpt lat="45.15394" lon="5.75842">
        <ele>248</ele>
        <time>2011-05-18T07:46:21Z</time>
      </trkpt>
      <trkpt lat="45.15393" lon="5.75839">
        <ele>247</ele>
        <time>2011-05-18T07:46:22Z</time>
      </trkpt>
      <trkpt lat="45.15391" lon="5.75841">
        <ele>247</ele>
        <time>2011-05-18T07:46:23Z</time>
      </trkpt>
      <trkpt lat="45.15389" lon="5.75838">
        <ele>247</ele>
        <time>2011-05-18T07:46:24Z</time>
      </trkpt>
      <trkpt lat="45.15388" lon="5.75834">
        <ele>246</ele>
        <time>2011-05-18T07:46:25Z</time>
      </trkpt>
      <trkpt lat="45.15377" lon="5.75817">
        <ele>249</ele>
        <time>2011-05-18T07:46:26Z</time>
      </trkpt>
      <trkpt lat="45.15379" lon="5.75805">
        <ele>249</ele>
        <time>2011-05-18T07:46:27Z</time>
      </trkpt>
      <trkpt lat="45.15383" lon="5.75786">
        <ele>248</ele>
        <time>2011-05-18T07:46:28Z</time>
      </trkpt>
      <trkpt lat="45.15386" lon="5.75773">
        <ele>247</ele>
        <time>2011-05-18T07:46:29Z</time>
      </trkpt>
      <trkpt lat="45.15385" lon="5.75768">
        <ele>247</ele>
        <time>2011-05-18T07:46:30Z</time>
      </trkpt>
      <trkpt lat="45.15385" lon="5.75765">
        <ele>247</ele>
        <time>2011-05-18T07:46:31Z</time>
      </trkpt>
      <trkpt lat="45.15383" lon="5.75763">
        <ele>247</ele>
        <time>2011-05-18T07:46:32Z</time>
      </trkpt>
      <trkpt lat="45.15381" lon="5.75762">
        <ele>247</ele>
        <time>2011-05-18T07:46:33Z</time>
      </trkpt>
      <trkpt lat="45.15381" lon="5.7576">
        <ele>247</ele>
        <time>2011-05-18T07:46:34Z</time>
      </trkpt>
      <trkpt lat="45.15379" lon="5.75756">
        <ele>247</ele>
        <time>2011-05-18T07:46:35Z</time>
      </trkpt>
      <trkpt lat="45.1538" lon="5.75755">
        <ele>247</ele>
        <time>2011-05-18T07:46:36Z</time>
      </trkpt>
      <trkpt lat="45.15382" lon="5.75752">
        <ele>247</ele>
        <time>2011-05-18T07:46:37Z</time>
      </trkpt>
      <trkpt lat="45.15383" lon="5.75749">
        <ele>247</ele>
        <time>2011-05-18T07:46:38Z</time>
      </trkpt>
      <trkpt lat="45.15385" lon="5.75747">
        <ele>247</ele>
        <time>2011-05-18T07:46:39Z</time>
      </trkpt>
      <trkpt lat="45.15384" lon="5.75745">
        <ele>248</ele>
        <time>2011-05-18T07:46:40Z</time>
      </trkpt>
      <trkpt lat="45.15385" lon="5.75747">
        <ele>248</ele>
        <time>2011-05-18T07:46:41Z</time>
      </trkpt>
      <trkpt lat="45.15386" lon="5.75749">
        <ele>248</ele>
        <time>2011-05-18T07:46:42Z</time>
      </trkpt>
      <trkpt lat="45.15386" lon="5.75751">
        <ele>247</ele>
        <time>2011-05-18T07:46:43Z</time>
      </trkpt>
      <trkpt lat="45.15385" lon="5.75753">
        <ele>247</ele>
        <time>2011-05-18T07:46:44Z</time>
      </trkpt>
      <trkpt lat="45.15387" lon="5.75756">
        <ele>247</ele>
        <time>2011-05-18T07:46:45Z</time>
      </trkpt>
      <trkpt lat="45.15389" lon="5.7576">
        <ele>247</ele>
        <time>2011-05-18T07:46:46Z</time>
      </trkpt>
      <trkpt lat="45.15389" lon="5.75763">
        <ele>247</ele>
        <time>2011-05-18T07:46:47Z</time>
      </trkpt>
      <trkpt lat="45.15391" lon="5.75766">
        <ele>247</ele>
        <time>2011-05-18T07:46:48Z</time>
      </trkpt>
      <trkpt lat="45.15393" lon="5.75766">
        <ele>247</ele>
        <time>2011-05-18T07:46:49Z</time>
      </trkpt>
      <trkpt lat="45.15395" lon="5.75766">
        <ele>246</ele>
        <time>2011-05-18T07:46:50Z</time>
      </trkpt>
      <trkpt lat="45.15397" lon="5.75762">
        <ele>246</ele>
        <time>2011-05-18T07:46:51Z</time>
      </trkpt>
      <trkpt lat="45.15395" lon="5.7576">
        <ele>245</ele>
        <time>2011-05-18T07:46:52Z</time>
      </trkpt>
      <trkpt lat="45.15397" lon="5.75758">
        <ele>244</ele>
        <time>2011-05-18T07:46:53Z</time>
      </trkpt>
      <trkpt lat="45.15399" lon="5.75756">
        <ele>244</ele>
        <time>2011-05-18T07:46:54Z</time>
      </trkpt>
      <trkpt lat="45.15401" lon="5.75752">
        <ele>244</ele>
        <time>2011-05-18T07:46:55Z</time>
      </trkpt>
      <trkpt lat="45.15403" lon="5.75751">
        <ele>243</ele>
        <time>2011-05-18T07:46:56Z</time>
      </trkpt>
      <trkpt lat="45.15404" lon="5.7575">
        <ele>242</ele>
        <time>2011-05-18T07:46:57Z</time>
      </trkpt>
      <trkpt lat="45.15406" lon="5.75748">
        <ele>242</ele>
        <time>2011-05-18T07:46:58Z</time>
      </trkpt>
      <trkpt lat="45.1541" lon="5.75746">
        <ele>238</ele>
        <time>2011-05-18T07:46:59Z</time>
      </trkpt>
      <trkpt lat="45.15411" lon="5.75742">
        <ele>237</ele>
        <time>2011-05-18T07:47:00Z</time>
      </trkpt>
      <trkpt lat="45.15413" lon="5.75741">
        <ele>235</ele>
        <time>2011-05-18T07:47:01Z</time>
      </trkpt>
      <trkpt lat="45.15416" lon="5.75737">
        <ele>234</ele>
        <time>2011-05-18T07:47:02Z</time>
      </trkpt>
      <trkpt lat="45.15419" lon="5.75735">
        <ele>233</ele>
        <time>2011-05-18T07:47:03Z</time>
      </trkpt>
      <trkpt lat="45.1542" lon="5.75732">
        <ele>233</ele>
        <time>2011-05-18T07:47:04Z</time>
      </trkpt>
      <trkpt lat="45.15423" lon="5.75729">
        <ele>231</ele>
        <time>2011-05-18T07:47:05Z</time>
      </trkpt>
      <trkpt lat="45.15424" lon="5.75727">
        <ele>230</ele>
        <time>2011-05-18T07:47:06Z</time>
      </trkpt>
      <trkpt lat="45.15427" lon="5.75725">
        <ele>230</ele>
        <time>2011-05-18T07:47:07Z</time>
      </trkpt>
      <trkpt lat="45.15428" lon="5.75723">
        <ele>228</ele>
        <time>2011-05-18T07:47:08Z</time>
      </trkpt>
      <trkpt lat="45.15431" lon="5.75722">
        <ele>228</ele>
        <time>2011-05-18T07:47:09Z</time>
      </trkpt>
      <trkpt lat="45.15435" lon="5.75721">
        <ele>227</ele>
        <time>2011-05-18T07:47:10Z</time>
      </trkpt>
      <trkpt lat="45.15439" lon="5.75721">
        <ele>226</ele>
        <time>2011-05-18T07:47:11Z</time>
      </trkpt>
      <trkpt lat="45.15442" lon="5.75719">
        <ele>227</ele>
        <time>2011-05-18T07:47:12Z</time>
      </trkpt>
      <trkpt lat="45.15446" lon="5.75719">
        <ele>227</ele>
        <time>2011-05-18T07:47:13Z</time>
      </trkpt>
      <trkpt lat="45.15449" lon="5.75719">
        <ele>227</ele>
        <time>2011-05-18T07:47:14Z</time>
      </trkpt>
      <trkpt lat="45.15452" lon="5.7572">
        <ele>226</ele>
        <time>2011-05-18T07:47:15Z</time>
      </trkpt>
      <trkpt lat="45.15456" lon="5.75721">
        <ele>226</ele>
        <time>2011-05-18T07:47:16Z</time>
      </trkpt>
      <trkpt lat="45.15461" lon="5.75723">
        <ele>225</ele>
        <time>2011-05-18T07:47:17Z</time>
      </trkpt>
      <trkpt lat="45.15467" lon="5.75724">
        <ele>225</ele>
        <time>2011-05-18T07:47:18Z</time>
      </trkpt>
      <trkpt lat="45.15472" lon="5.75724">
        <ele>225</ele>
        <time>2011-05-18T07:47:19Z</time>
      </trkpt>
      <trkpt lat="45.15476" lon="5.75725">
        <ele>225</ele>
        <time>2011-05-18T07:47:20Z</time>
      </trkpt>
      <trkpt lat="45.15479" lon="5.75726">
        <ele>225</ele>
        <time>2011-05-18T07:47:21Z</time>
      </trkpt>
      <trkpt lat="45.15481" lon="5.7573">
        <ele>224</ele>
        <time>2011-05-18T07:47:22Z</time>
      </trkpt>
      <trkpt lat="45.15484" lon="5.75731">
        <ele>224</ele>
        <time>2011-05-18T07:47:23Z</time>
      </trkpt>
      <trkpt lat="45.15488" lon="5.75732">
        <ele>224</ele>
        <time>2011-05-18T07:47:24Z</time>
      </trkpt>
      <trkpt lat="45.1549" lon="5.75732">
        <ele>224</ele>
        <time>2011-05-18T07:47:25Z</time>
      </trkpt>
      <trkpt lat="45.15492" lon="5.75733">
        <ele>224</ele>
        <time>2011-05-18T07:47:26Z</time>
      </trkpt>
      <trkpt lat="45.15494" lon="5.75733">
        <ele>223</ele>
        <time>2011-05-18T07:47:27Z</time>
      </trkpt>
      <trkpt lat="45.15497" lon="5.75734">
        <ele>223</ele>
        <time>2011-05-18T07:47:28Z</time>
      </trkpt>
      <trkpt lat="45.15499" lon="5.75734">
        <ele>223</ele>
        <time>2011-05-18T07:47:29Z</time>
      </trkpt>
      <trkpt lat="45.15502" lon="5.75734">
        <ele>223</ele>
        <time>2011-05-18T07:47:30Z</time>
      </trkpt>
      <trkpt lat="45.15505" lon="5.75735">
        <ele>223</ele>
        <time>2011-05-18T07:47:31Z</time>
      </trkpt>
      <trkpt lat="45.15508" lon="5.75735">
        <ele>223</ele>
        <time>2011-05-18T07:47:32Z</time>
      </trkpt>
      <trkpt lat="45.1551" lon="5.75734">
        <ele>224</ele>
        <time>2011-05-18T07:47:33Z</time>
      </trkpt>
      <trkpt lat="45.15516" lon="5.75734">
        <ele>221</ele>
        <time>2011-05-18T07:47:34Z</time>
      </trkpt>
      <trkpt lat="45.15518" lon="5.75735">
        <ele>220</ele>
        <time>2011-05-18T07:47:35Z</time>
      </trkpt>
      <trkpt lat="45.15522" lon="5.75735">
        <ele>219</ele>
        <time>2011-05-18T07:47:36Z</time>
      </trkpt>
      <trkpt lat="45.15524" lon="5.75735">
        <ele>220</ele>
        <time>2011-05-18T07:47:37Z</time>
      </trkpt>
      <trkpt lat="45.15527" lon="5.75735">
        <ele>220</ele>
        <time>2011-05-18T07:47:38Z</time>
      </trkpt>
      <trkpt lat="45.15529" lon="5.75735">
        <ele>220</ele>
        <time>2011-05-18T07:47:39Z</time>
      </trkpt>
      <trkpt lat="45.1553" lon="5.75735">
        <ele>220</ele>
        <time>2011-05-18T07:47:40Z</time>
      </trkpt>
      <trkpt lat="45.15533" lon="5.75735">
        <ele>220</ele>
        <time>2011-05-18T07:47:41Z</time>
      </trkpt>
      <trkpt lat="45.15535" lon="5.75736">
        <ele>219</ele>
        <time>2011-05-18T07:47:42Z</time>
      </trkpt>
      <trkpt lat="45.15538" lon="5.75736">
        <ele>220</ele>
        <time>2011-05-18T07:47:43Z</time>
      </trkpt>
      <trkpt lat="45.15541" lon="5.75737">
        <ele>220</ele>
        <time>2011-05-18T07:47:44Z</time>
      </trkpt>
      <trkpt lat="45.15543" lon="5.75737">
        <ele>220</ele>
        <time>2011-05-18T07:47:45Z</time>
      </trkpt>
      <trkpt lat="45.15545" lon="5.75738">
        <ele>220</ele>
        <time>2011-05-18T07:47:46Z</time>
      </trkpt>
      <trkpt lat="45.15546" lon="5.75738">
        <ele>220</ele>
        <time>2011-05-18T07:47:47Z</time>
      </trkpt>
      <trkpt lat="45.15548" lon="5.75738">
        <ele>220</ele>
        <time>2011-05-18T07:47:48Z</time>
      </trkpt>
      <trkpt lat="45.15552" lon="5.75739">
        <ele>219</ele>
        <time>2011-05-18T07:47:49Z</time>
      </trkpt>
      <trkpt lat="45.15555" lon="5.75739">
        <ele>220</ele>
        <time>2011-05-18T07:47:50Z</time>
      </trkpt>
      <trkpt lat="45.15556" lon="5.75737">
        <ele>220</ele>
        <time>2011-05-18T07:47:51Z</time>
      </trkpt>
      <trkpt lat="45.15559" lon="5.75735">
        <ele>221</ele>
        <time>2011-05-18T07:47:52Z</time>
      </trkpt>
      <trkpt lat="45.15561" lon="5.75734">
        <ele>221</ele>
        <time>2011-05-18T07:47:53Z</time>
      </trkpt>
      <trkpt lat="45.15564" lon="5.75732">
        <ele>221</ele>
        <time>2011-05-18T07:47:54Z</time>
      </trkpt>
      <trkpt lat="45.15566" lon="5.75729">
        <ele>221</ele>
        <time>2011-05-18T07:47:55Z</time>
      </trkpt>
      <trkpt lat="45.15569" lon="5.75726">
        <ele>222</ele>
        <time>2011-05-18T07:47:56Z</time>
      </trkpt>
      <trkpt lat="45.15573" lon="5.75725">
        <ele>221</ele>
        <time>2011-05-18T07:47:57Z</time>
      </trkpt>
      <trkpt lat="45.15575" lon="5.75723">
        <ele>221</ele>
        <time>2011-05-18T07:47:58Z</time>
      </trkpt>
      <trkpt lat="45.15581" lon="5.75724">
        <ele>226</ele>
        <time>2011-05-18T07:47:59Z</time>
      </trkpt>
      <trkpt lat="45.15584" lon="5.75723">
        <ele>227</ele>
        <time>2011-05-18T07:48:00Z</time>
      </trkpt>
      <trkpt lat="45.15589" lon="5.75723">
        <ele>231</ele>
        <time>2011-05-18T07:48:01Z</time>
      </trkpt>
      <trkpt lat="45.15593" lon="5.75722">
        <ele>232</ele>
        <time>2011-05-18T07:48:02Z</time>
      </trkpt>
      <trkpt lat="45.15595" lon="5.75719">
        <ele>233</ele>
        <time>2011-05-18T07:48:03Z</time>
      </trkpt>
      <trkpt lat="45.156" lon="5.75719">
        <ele>235</ele>
        <time>2011-05-18T07:48:04Z</time>
      </trkpt>
      <trkpt lat="45.15605" lon="5.75716">
        <ele>238</ele>
        <time>2011-05-18T07:48:05Z</time>
      </trkpt>
      <trkpt lat="45.15609" lon="5.75714">
        <ele>238</ele>
        <time>2011-05-18T07:48:06Z</time>
      </trkpt>
      <trkpt lat="45.15621" lon="5.75702">
        <ele>242</ele>
        <time>2011-05-18T07:48:07Z</time>
      </trkpt>
      <trkpt lat="45.15619" lon="5.757">
        <ele>241</ele>
        <time>2011-05-18T07:48:08Z</time>
      </trkpt>
      <trkpt lat="45.15617" lon="5.75697">
        <ele>241</ele>
        <time>2011-05-18T07:48:09Z</time>
      </trkpt>
      <trkpt lat="45.15617" lon="5.75694">
        <ele>241</ele>
        <time>2011-05-18T07:48:10Z</time>
      </trkpt>
      <trkpt lat="45.15618" lon="5.75693">
        <ele>241</ele>
        <time>2011-05-18T07:48:11Z</time>
      </trkpt>
      <trkpt lat="45.15619" lon="5.75692">
        <ele>242</ele>
        <time>2011-05-18T07:48:12Z</time>
      </trkpt>
      <trkpt lat="45.1562" lon="5.7569">
        <ele>243</ele>
        <time>2011-05-18T07:48:13Z</time>
      </trkpt>
      <trkpt lat="45.15626" lon="5.75686">
        <ele>245</ele>
        <time>2011-05-18T07:48:14Z</time>
      </trkpt>
      <trkpt lat="45.1563" lon="5.75684">
        <ele>245</ele>
        <time>2011-05-18T07:48:15Z</time>
      </trkpt>
      <trkpt lat="45.15632" lon="5.75682">
        <ele>246</ele>
        <time>2011-05-18T07:48:16Z</time>
      </trkpt>
      <trkpt lat="45.15634" lon="5.75679">
        <ele>247</ele>
        <time>2011-05-18T07:48:17Z</time>
      </trkpt>
      <trkpt lat="45.15635" lon="5.75675">
        <ele>249</ele>
        <time>2011-05-18T07:48:18Z</time>
      </trkpt>
      <trkpt lat="45.15635" lon="5.75672">
        <ele>250</ele>
        <time>2011-05-18T07:48:19Z</time>
      </trkpt>
      <trkpt lat="45.15637" lon="5.7567">
        <ele>250</ele>
        <time>2011-05-18T07:48:20Z</time>
      </trkpt>
      <trkpt lat="45.15638" lon="5.75669">
        <ele>250</ele>
        <time>2011-05-18T07:48:21Z</time>
      </trkpt>
      <trkpt lat="45.15638" lon="5.75666">
        <ele>249</ele>
        <time>2011-05-18T07:48:22Z</time>
      </trkpt>
      <trkpt lat="45.1564" lon="5.75663">
        <ele>245</ele>
        <time>2011-05-18T07:48:23Z</time>
      </trkpt>
      <trkpt lat="45.15641" lon="5.75661">
        <ele>245</ele>
        <time>2011-05-18T07:48:24Z</time>
      </trkpt>
      <trkpt lat="45.15643" lon="5.75657">
        <ele>247</ele>
        <time>2011-05-18T07:48:25Z</time>
      </trkpt>
      <trkpt lat="45.15646" lon="5.75655">
        <ele>248</ele>
        <time>2011-05-18T07:48:26Z</time>
      </trkpt>
      <trkpt lat="45.15647" lon="5.75652">
        <ele>249</ele>
        <time>2011-05-18T07:48:27Z</time>
      </trkpt>
      <trkpt lat="45.15649" lon="5.75649">
        <ele>250</ele>
        <time>2011-05-18T07:48:28Z</time>
      </trkpt>
      <trkpt lat="45.15651" lon="5.75646">
        <ele>249</ele>
        <time>2011-05-18T07:48:29Z</time>
      </trkpt>
      <trkpt lat="45.15654" lon="5.75645">
        <ele>249</ele>
        <time>2011-05-18T07:48:30Z</time>
      </trkpt>
      <trkpt lat="45.15657" lon="5.75644">
        <ele>248</ele>
        <time>2011-05-18T07:48:31Z</time>
      </trkpt>
      <trkpt lat="45.15659" lon="5.75642">
        <ele>246</ele>
        <time>2011-05-18T07:48:32Z</time>
      </trkpt>
      <trkpt lat="45.15661" lon="5.75639">
        <ele>247</ele>
        <time>2011-05-18T07:48:33Z</time>
      </trkpt>
      <trkpt lat="45.15663" lon="5.75636">
        <ele>247</ele>
        <time>2011-05-18T07:48:34Z</time>
      </trkpt>
      <trkpt lat="45.15665" lon="5.75634">
        <ele>247</ele>
        <time>2011-05-18T07:48:35Z</time>
      </trkpt>
      <trkpt lat="45.15667" lon="5.7563">
        <ele>247</ele>
        <time>2011-05-18T07:48:36Z</time>
      </trkpt>
      <trkpt lat="45.15669" lon="5.75625">
        <ele>248</ele>
        <time>2011-05-18T07:48:37Z</time>
      </trkpt>
      <trkpt lat="45.1567" lon="5.75621">
        <ele>248</ele>
        <time>2011-05-18T07:48:38Z</time>
      </trkpt>
      <trkpt lat="45.15672" lon="5.75617">
        <ele>249</ele>
        <time>2011-05-18T07:48:39Z</time>
      </trkpt>
      <trkpt lat="45.15673" lon="5.75613">
        <ele>250</ele>
        <time>2011-05-18T07:48:40Z</time>
      </trkpt>
      <trkpt lat="45.15674" lon="5.75609">
        <ele>250</ele>
        <time>2011-05-18T07:48:41Z</time>
      </trkpt>
      <trkpt lat="45.15675" lon="5.75606">
        <ele>251</ele>
        <time>2011-05-18T07:48:42Z</time>
      </trkpt>
      <trkpt lat="45.15677" lon="5.75603">
        <ele>251</ele>
        <time>2011-05-18T07:48:43Z</time>
      </trkpt>
      <trkpt lat="45.15679" lon="5.75599">
        <ele>251</ele>
        <time>2011-05-18T07:48:44Z</time>
      </trkpt>
      <trkpt lat="45.15681" lon="5.75597">
        <ele>250</ele>
        <time>2011-05-18T07:48:45Z</time>
      </trkpt>
      <trkpt lat="45.15683" lon="5.75594">
        <ele>251</ele>
        <time>2011-05-18T07:48:46Z</time>
      </trkpt>
      <trkpt lat="45.15682" lon="5.7559">
        <ele>251</ele>
        <time>2011-05-18T07:48:47Z</time>
      </trkpt>
      <trkpt lat="45.1568" lon="5.75587">
        <ele>250</ele>
        <time>2011-05-18T07:48:48Z</time>
      </trkpt>
      <trkpt lat="45.15678" lon="5.75584">
        <ele>250</ele>
        <time>2011-05-18T07:48:49Z</time>
      </trkpt>
      <trkpt lat="45.15677" lon="5.7558">
        <ele>248</ele>
        <time>2011-05-18T07:48:50Z</time>
      </trkpt>
      <trkpt lat="45.15674" lon="5.75578">
        <ele>248</ele>
        <time>2011-05-18T07:48:51Z</time>
      </trkpt>
      <trkpt lat="45.15672" lon="5.75573">
        <ele>247</ele>
        <time>2011-05-18T07:48:52Z</time>
      </trkpt>
      <trkpt lat="45.1567" lon="5.7557">
        <ele>247</ele>
        <time>2011-05-18T07:48:53Z</time>
      </trkpt>
      <trkpt lat="45.15667" lon="5.75566">
        <ele>247</ele>
        <time>2011-05-18T07:48:54Z</time>
      </trkpt>
      <trkpt lat="45.15666" lon="5.75564">
        <ele>247</ele>
        <time>2011-05-18T07:48:55Z</time>
      </trkpt>
      <trkpt lat="45.15663" lon="5.75561">
        <ele>246</ele>
        <time>2011-05-18T07:48:56Z</time>
      </trkpt>
      <trkpt lat="45.15661" lon="5.75558">
        <ele>246</ele>
        <time>2011-05-18T07:48:57Z</time>
      </trkpt>
      <trkpt lat="45.15656" lon="5.75553">
        <ele>244</ele>
        <time>2011-05-18T07:48:58Z</time>
      </trkpt>
      <trkpt lat="45.15653" lon="5.75549">
        <ele>244</ele>
        <time>2011-05-18T07:48:59Z</time>
      </trkpt>
      <trkpt lat="45.15651" lon="5.75543">
        <ele>244</ele>
        <time>2011-05-18T07:49:00Z</time>
      </trkpt>
      <trkpt lat="45.15649" lon="5.75538">
        <ele>243</ele>
        <time>2011-05-18T07:49:01Z</time>
      </trkpt>
      <trkpt lat="45.15646" lon="5.75533">
        <ele>243</ele>
        <time>2011-05-18T07:49:02Z</time>
      </trkpt>
      <trkpt lat="45.15643" lon="5.75529">
        <ele>242</ele>
        <time>2011-05-18T07:49:03Z</time>
      </trkpt>
      <trkpt lat="45.15643" lon="5.75525">
        <ele>242</ele>
        <time>2011-05-18T07:49:04Z</time>
      </trkpt>
      <trkpt lat="45.15643" lon="5.75521">
        <ele>242</ele>
        <time>2011-05-18T07:49:05Z</time>
      </trkpt>
      <trkpt lat="45.15644" lon="5.75518">
        <ele>241</ele>
        <time>2011-05-18T07:49:06Z</time>
      </trkpt>
      <trkpt lat="45.15644" lon="5.75515">
        <ele>241</ele>
        <time>2011-05-18T07:49:07Z</time>
      </trkpt>
      <trkpt lat="45.15645" lon="5.75512">
        <ele>239</ele>
        <time>2011-05-18T07:49:08Z</time>
      </trkpt>
      <trkpt lat="45.15647" lon="5.7551">
        <ele>238</ele>
        <time>2011-05-18T07:49:09Z</time>
      </trkpt>
      <trkpt lat="45.15649" lon="5.75507">
        <ele>238</ele>
        <time>2011-05-18T07:49:10Z</time>
      </trkpt>
      <trkpt lat="45.15654" lon="5.75504">
        <ele>237</ele>
        <time>2011-05-18T07:49:11Z</time>
      </trkpt>
      <trkpt lat="45.15656" lon="5.75501">
        <ele>237</ele>
        <time>2011-05-18T07:49:12Z</time>
      </trkpt>
      <trkpt lat="45.1566" lon="5.755">
        <ele>237</ele>
        <time>2011-05-18T07:49:13Z</time>
      </trkpt>
      <trkpt lat="45.15663" lon="5.75498">
        <ele>237</ele>
        <time>2011-05-18T07:49:14Z</time>
      </trkpt>
      <trkpt lat="45.15667" lon="5.75497">
        <ele>237</ele>
        <time>2011-05-18T07:49:15Z</time>
      </trkpt>
      <trkpt lat="45.1567" lon="5.75494">
        <ele>238</ele>
        <time>2011-05-18T07:49:16Z</time>
      </trkpt>
      <trkpt lat="45.15674" lon="5.7549">
        <ele>238</ele>
        <time>2011-05-18T07:49:17Z</time>
      </trkpt>
      <trkpt lat="45.15677" lon="5.75488">
        <ele>238</ele>
        <time>2011-05-18T07:49:18Z</time>
      </trkpt>
      <trkpt lat="45.1568" lon="5.75486">
        <ele>237</ele>
        <time>2011-05-18T07:49:19Z</time>
      </trkpt>
      <trkpt lat="45.15682" lon="5.75484">
        <ele>237</ele>
        <time>2011-05-18T07:49:20Z</time>
      </trkpt>
      <trkpt lat="45.15685" lon="5.75481">
        <ele>238</ele>
        <time>2011-05-18T07:49:21Z</time>
      </trkpt>
      <trkpt lat="45.15687" lon="5.75479">
        <ele>238</ele>
        <time>2011-05-18T07:49:22Z</time>
      </trkpt>
      <trkpt lat="45.15691" lon="5.75478">
        <ele>239</ele>
        <time>2011-05-18T07:49:23Z</time>
      </trkpt>
      <trkpt lat="45.15693" lon="5.75476">
        <ele>239</ele>
        <time>2011-05-18T07:49:24Z</time>
      </trkpt>
      <trkpt lat="45.15694" lon="5.75474">
        <ele>238</ele>
        <time>2011-05-18T07:49:25Z</time>
      </trkpt>
      <trkpt lat="45.15697" lon="5.75473">
        <ele>237</ele>
        <time>2011-05-18T07:49:26Z</time>
      </trkpt>
      <trkpt lat="45.15699" lon="5.75471">
        <ele>237</ele>
        <time>2011-05-18T07:49:27Z</time>
      </trkpt>
      <trkpt lat="45.15702" lon="5.75468">
        <ele>237</ele>
        <time>2011-05-18T07:49:28Z</time>
      </trkpt>
      <trkpt lat="45.15705" lon="5.75465">
        <ele>236</ele>
        <time>2011-05-18T07:49:29Z</time>
      </trkpt>
      <trkpt lat="45.15707" lon="5.75464">
        <ele>236</ele>
        <time>2011-05-18T07:49:30Z</time>
      </trkpt>
      <trkpt lat="45.15708" lon="5.75461">
        <ele>235</ele>
        <time>2011-05-18T07:49:31Z</time>
      </trkpt>
      <trkpt lat="45.1571" lon="5.75459">
        <ele>235</ele>
        <time>2011-05-18T07:49:32Z</time>
      </trkpt>
      <trkpt lat="45.15712" lon="5.75456">
        <ele>235</ele>
        <time>2011-05-18T07:49:33Z</time>
      </trkpt>
      <trkpt lat="45.15714" lon="5.75454">
        <ele>235</ele>
        <time>2011-05-18T07:49:34Z</time>
      </trkpt>
      <trkpt lat="45.15715" lon="5.75453">
        <ele>235</ele>
        <time>2011-05-18T07:49:35Z</time>
      </trkpt>
      <trkpt lat="45.15718" lon="5.7545">
        <ele>235</ele>
        <time>2011-05-18T07:49:36Z</time>
      </trkpt>
      <trkpt lat="45.15719" lon="5.75448">
        <ele>235</ele>
        <time>2011-05-18T07:49:37Z</time>
      </trkpt>
      <trkpt lat="45.15722" lon="5.75446">
        <ele>235</ele>
        <time>2011-05-18T07:49:38Z</time>
      </trkpt>
      <trkpt lat="45.15724" lon="5.75446">
        <ele>234</ele>
        <time>2011-05-18T07:49:39Z</time>
      </trkpt>
      <trkpt lat="45.15725" lon="5.75444">
        <ele>234</ele>
        <time>2011-05-18T07:49:40Z</time>
      </trkpt>
      <trkpt lat="45.15727" lon="5.75441">
        <ele>234</ele>
        <time>2011-05-18T07:49:41Z</time>
      </trkpt>
      <trkpt lat="45.15728" lon="5.75438">
        <ele>234</ele>
        <time>2011-05-18T07:49:42Z</time>
      </trkpt>
      <trkpt lat="45.1573" lon="5.75436">
        <ele>234</ele>
        <time>2011-05-18T07:49:43Z</time>
      </trkpt>
      <trkpt lat="45.15729" lon="5.7543">
        <ele>234</ele>
        <time>2011-05-18T07:49:44Z</time>
      </trkpt>
      <trkpt lat="45.1573" lon="5.75426">
        <ele>234</ele>
        <time>2011-05-18T07:49:45Z</time>
      </trkpt>
      <trkpt lat="45.15729" lon="5.75421">
        <ele>234</ele>
        <time>2011-05-18T07:49:46Z</time>
      </trkpt>
      <trkpt lat="45.15729" lon="5.75418">
        <ele>233</ele>
        <time>2011-05-18T07:49:47Z</time>
      </trkpt>
      <trkpt lat="45.15728" lon="5.75415">
        <ele>233</ele>
        <time>2011-05-18T07:49:48Z</time>
      </trkpt>
      <trkpt lat="45.15726" lon="5.7541">
        <ele>233</ele>
        <time>2011-05-18T07:49:49Z</time>
      </trkpt>
      <trkpt lat="45.15725" lon="5.75406">
        <ele>233</ele>
        <time>2011-05-18T07:49:50Z</time>
      </trkpt>
      <trkpt lat="45.15723" lon="5.75402">
        <ele>233</ele>
        <time>2011-05-18T07:49:51Z</time>
      </trkpt>
      <trkpt lat="45.15722" lon="5.75398">
        <ele>233</ele>
        <time>2011-05-18T07:49:52Z</time>
      </trkpt>
      <trkpt lat="45.15722" lon="5.75394">
        <ele>232</ele>
        <time>2011-05-18T07:49:53Z</time>
      </trkpt>
      <trkpt lat="45.1572" lon="5.7539">
        <ele>232</ele>
        <time>2011-05-18T07:49:54Z</time>
      </trkpt>
      <trkpt lat="45.1572" lon="5.75386">
        <ele>232</ele>
        <time>2011-05-18T07:49:55Z</time>
      </trkpt>
      <trkpt lat="45.1572" lon="5.75382">
        <ele>232</ele>
        <time>2011-05-18T07:49:56Z</time>
      </trkpt>
      <trkpt lat="45.1572" lon="5.75379">
        <ele>232</ele>
        <time>2011-05-18T07:49:57Z</time>
      </trkpt>
      <trkpt lat="45.15721" lon="5.75376">
        <ele>232</ele>
        <time>2011-05-18T07:49:58Z</time>
      </trkpt>
      <trkpt lat="45.15723" lon="5.75372">
        <ele>232</ele>
        <time>2011-05-18T07:49:59Z</time>
      </trkpt>
      <trkpt lat="45.15724" lon="5.75369">
        <ele>231</ele>
        <time>2011-05-18T07:50:00Z</time>
      </trkpt>
      <trkpt lat="45.15726" lon="5.75366">
        <ele>231</ele>
        <time>2011-05-18T07:50:01Z</time>
      </trkpt>
      <trkpt lat="45.15728" lon="5.75364">
        <ele>231</ele>
        <time>2011-05-18T07:50:02Z</time>
      </trkpt>
      <trkpt lat="45.1573" lon="5.75362">
        <ele>231</ele>
        <time>2011-05-18T07:50:03Z</time>
      </trkpt>
      <trkpt lat="45.15731" lon="5.7536">
        <ele>231</ele>
        <time>2011-05-18T07:50:04Z</time>
      </trkpt>
      <trkpt lat="45.15733" lon="5.75359">
        <ele>231</ele>
        <time>2011-05-18T07:50:05Z</time>
      </trkpt>
      <trkpt lat="45.15736" lon="5.75357">
        <ele>231</ele>
        <time>2011-05-18T07:50:06Z</time>
      </trkpt>
      <trkpt lat="45.15738" lon="5.75353">
        <ele>231</ele>
        <time>2011-05-18T07:50:07Z</time>
      </trkpt>
      <trkpt lat="45.15742" lon="5.75353">
        <ele>231</ele>
        <time>2011-05-18T07:50:08Z</time>
      </trkpt>
      <trkpt lat="45.15745" lon="5.75351">
        <ele>231</ele>
        <time>2011-05-18T07:50:09Z</time>
      </trkpt>
      <trkpt lat="45.15748" lon="5.75349">
        <ele>231</ele>
        <time>2011-05-18T07:50:10Z</time>
      </trkpt>
      <trkpt lat="45.15751" lon="5.75346">
        <ele>231</ele>
        <time>2011-05-18T07:50:11Z</time>
      </trkpt>
      <trkpt lat="45.15754" lon="5.75343">
        <ele>230</ele>
        <time>2011-05-18T07:50:12Z</time>
      </trkpt>
      <trkpt lat="45.15757" lon="5.7534">
        <ele>230</ele>
        <time>2011-05-18T07:50:13Z</time>
      </trkpt>
      <trkpt lat="45.15759" lon="5.75336">
        <ele>230</ele>
        <time>2011-05-18T07:50:14Z</time>
      </trkpt>
      <trkpt lat="45.15761" lon="5.75333">
        <ele>230</ele>
        <time>2011-05-18T07:50:15Z</time>
      </trkpt>
      <trkpt lat="45.15763" lon="5.75331">
        <ele>230</ele>
        <time>2011-05-18T07:50:16Z</time>
      </trkpt>
      <trkpt lat="45.15765" lon="5.75329">
        <ele>230</ele>
        <time>2011-05-18T07:50:17Z</time>
      </trkpt>
      <trkpt lat="45.15768" lon="5.75326">
        <ele>230</ele>
        <time>2011-05-18T07:50:18Z</time>
      </trkpt>
      <trkpt lat="45.1577" lon="5.75323">
        <ele>229</ele>
        <time>2011-05-18T07:50:19Z</time>
      </trkpt>
      <trkpt lat="45.15773" lon="5.75319">
        <ele>229</ele>
        <time>2011-05-18T07:50:20Z</time>
      </trkpt>
      <trkpt lat="45.15774" lon="5.75316">
        <ele>229</ele>
        <time>2011-05-18T07:50:21Z</time>
      </trkpt>
      <trkpt lat="45.15776" lon="5.75314">
        <ele>229</ele>
        <time>2011-05-18T07:50:22Z</time>
      </trkpt>
      <trkpt lat="45.15778" lon="5.75312">
        <ele>229</ele>
        <time>2011-05-18T07:50:23Z</time>
      </trkpt>
      <trkpt lat="45.15781" lon="5.7531">
        <ele>229</ele>
        <time>2011-05-18T07:50:24Z</time>
      </trkpt>
      <trkpt lat="45.15785" lon="5.75308">
        <ele>229</ele>
        <time>2011-05-18T07:50:25Z</time>
      </trkpt>
      <trkpt lat="45.15787" lon="5.75307">
        <ele>228</ele>
        <time>2011-05-18T07:50:26Z</time>
      </trkpt>
      <trkpt lat="45.1579" lon="5.75305">
        <ele>228</ele>
        <time>2011-05-18T07:50:27Z</time>
      </trkpt>
      <trkpt lat="45.15794" lon="5.75303">
        <ele>227</ele>
        <time>2011-05-18T07:50:28Z</time>
      </trkpt>
      <trkpt lat="45.15797" lon="5.75302">
        <ele>226</ele>
        <time>2011-05-18T07:50:29Z</time>
      </trkpt>
      <trkpt lat="45.15799" lon="5.753">
        <ele>226</ele>
        <time>2011-05-18T07:50:30Z</time>
      </trkpt>
      <trkpt lat="45.15802" lon="5.75297">
        <ele>227</ele>
        <time>2011-05-18T07:50:31Z</time>
      </trkpt>
      <trkpt lat="45.15804" lon="5.75296">
        <ele>227</ele>
        <time>2011-05-18T07:50:32Z</time>
      </trkpt>
      <trkpt lat="45.15809" lon="5.75295">
        <ele>227</ele>
        <time>2011-05-18T07:50:33Z</time>
      </trkpt>
      <trkpt lat="45.15812" lon="5.75294">
        <ele>226</ele>
        <time>2011-05-18T07:50:34Z</time>
      </trkpt>
      <trkpt lat="45.15814" lon="5.75292">
        <ele>227</ele>
        <time>2011-05-18T07:50:35Z</time>
      </trkpt>
      <trkpt lat="45.15816" lon="5.7529">
        <ele>227</ele>
        <time>2011-05-18T07:50:36Z</time>
      </trkpt>
      <trkpt lat="45.15819" lon="5.75289">
        <ele>227</ele>
        <time>2011-05-18T07:50:37Z</time>
      </trkpt>
      <trkpt lat="45.15822" lon="5.75287">
        <ele>227</ele>
        <time>2011-05-18T07:50:38Z</time>
      </trkpt>
      <trkpt lat="45.15825" lon="5.75285">
        <ele>227</ele>
        <time>2011-05-18T07:50:39Z</time>
      </trkpt>
      <trkpt lat="45.15828" lon="5.75282">
        <ele>227</ele>
        <time>2011-05-18T07:50:40Z</time>
      </trkpt>
      <trkpt lat="45.1583" lon="5.75279">
        <ele>227</ele>
        <time>2011-05-18T07:50:41Z</time>
      </trkpt>
      <trkpt lat="45.15834" lon="5.75277">
        <ele>225</ele>
        <time>2011-05-18T07:50:42Z</time>
      </trkpt>
      <trkpt lat="45.15834" lon="5.75275">
        <ele>223</ele>
        <time>2011-05-18T07:50:43Z</time>
      </trkpt>
      <trkpt lat="45.15836" lon="5.75272">
        <ele>222</ele>
        <time>2011-05-18T07:50:44Z</time>
      </trkpt>
      <trkpt lat="45.1584" lon="5.7527">
        <ele>223</ele>
        <time>2011-05-18T07:50:45Z</time>
      </trkpt>
      <trkpt lat="45.15842" lon="5.75268">
        <ele>221</ele>
        <time>2011-05-18T07:50:46Z</time>
      </trkpt>
      <trkpt lat="45.15844" lon="5.75265">
        <ele>220</ele>
        <time>2011-05-18T07:50:47Z</time>
      </trkpt>
      <trkpt lat="45.15846" lon="5.75264">
        <ele>220</ele>
        <time>2011-05-18T07:50:48Z</time>
      </trkpt>
      <trkpt lat="45.15848" lon="5.75261">
        <ele>220</ele>
        <time>2011-05-18T07:50:49Z</time>
      </trkpt>
      <trkpt lat="45.15851" lon="5.75259">
        <ele>220</ele>
        <time>2011-05-18T07:50:50Z</time>
      </trkpt>
      <trkpt lat="45.15852" lon="5.75257">
        <ele>219</ele>
        <time>2011-05-18T07:50:51Z</time>
      </trkpt>
      <trkpt lat="45.15855" lon="5.75254">
        <ele>218</ele>
        <time>2011-05-18T07:50:52Z</time>
      </trkpt>
      <trkpt lat="45.15857" lon="5.75252">
        <ele>217</ele>
        <time>2011-05-18T07:50:53Z</time>
      </trkpt>
      <trkpt lat="45.15859" lon="5.75249">
        <ele>217</ele>
        <time>2011-05-18T07:50:54Z</time>
      </trkpt>
      <trkpt lat="45.15862" lon="5.75246">
        <ele>218</ele>
        <time>2011-05-18T07:50:55Z</time>
      </trkpt>
      <trkpt lat="45.15869" lon="5.75245">
        <ele>221</ele>
        <time>2011-05-18T07:50:56Z</time>
      </trkpt>
      <trkpt lat="45.15873" lon="5.75243">
        <ele>223</ele>
        <time>2011-05-18T07:50:57Z</time>
      </trkpt>
      <trkpt lat="45.15875" lon="5.75241">
        <ele>224</ele>
        <time>2011-05-18T07:50:58Z</time>
      </trkpt>
      <trkpt lat="45.15878" lon="5.75238">
        <ele>225</ele>
        <time>2011-05-18T07:50:59Z</time>
      </trkpt>
      <trkpt lat="45.15881" lon="5.75235">
        <ele>225</ele>
        <time>2011-05-18T07:51:00Z</time>
      </trkpt>
      <trkpt lat="45.15883" lon="5.75231">
        <ele>226</ele>
        <time>2011-05-18T07:51:01Z</time>
      </trkpt>
      <trkpt lat="45.15887" lon="5.75226">
        <ele>225</ele>
        <time>2011-05-18T07:51:02Z</time>
      </trkpt>
      <trkpt lat="45.1589" lon="5.75223">
        <ele>226</ele>
        <time>2011-05-18T07:51:03Z</time>
      </trkpt>
      <trkpt lat="45.15893" lon="5.75221">
        <ele>226</ele>
        <time>2011-05-18T07:51:04Z</time>
      </trkpt>
      <trkpt lat="45.15894" lon="5.75217">
        <ele>227</ele>
        <time>2011-05-18T07:51:05Z</time>
      </trkpt>
      <trkpt lat="45.15896" lon="5.75215">
        <ele>227</ele>
        <time>2011-05-18T07:51:06Z</time>
      </trkpt>
      <trkpt lat="45.15897" lon="5.75212">
        <ele>228</ele>
        <time>2011-05-18T07:51:07Z</time>
      </trkpt>
      <trkpt lat="45.15898" lon="5.7521">
        <ele>229</ele>
        <time>2011-05-18T07:51:08Z</time>
      </trkpt>
      <trkpt lat="45.159" lon="5.75208">
        <ele>229</ele>
        <time>2011-05-18T07:51:09Z</time>
      </trkpt>
      <trkpt lat="45.15902" lon="5.75205">
        <ele>230</ele>
        <time>2011-05-18T07:51:10Z</time>
      </trkpt>
      <trkpt lat="45.15905" lon="5.75202">
        <ele>230</ele>
        <time>2011-05-18T07:51:11Z</time>
      </trkpt>
      <trkpt lat="45.15908" lon="5.75198">
        <ele>230</ele>
        <time>2011-05-18T07:51:12Z</time>
      </trkpt>
      <trkpt lat="45.15909" lon="5.75194">
        <ele>230</ele>
        <time>2011-05-18T07:51:13Z</time>
      </trkpt>
      <trkpt lat="45.15912" lon="5.75191">
        <ele>230</ele>
        <time>2011-05-18T07:51:14Z</time>
      </trkpt>
      <trkpt lat="45.15914" lon="5.75188">
        <ele>230</ele>
        <time>2011-05-18T07:51:15Z</time>
      </trkpt>
      <trkpt lat="45.15915" lon="5.75186">
        <ele>230</ele>
        <time>2011-05-18T07:51:16Z</time>
      </trkpt>
      <trkpt lat="45.15917" lon="5.75183">
        <ele>231</ele>
        <time>2011-05-18T07:51:17Z</time>
      </trkpt>
      <trkpt lat="45.15921" lon="5.75182">
        <ele>230</ele>
        <time>2011-05-18T07:51:18Z</time>
      </trkpt>
      <trkpt lat="45.15923" lon="5.7518">
        <ele>230</ele>
        <time>2011-05-18T07:51:19Z</time>
      </trkpt>
      <trkpt lat="45.15925" lon="5.75179">
        <ele>230</ele>
        <time>2011-05-18T07:51:20Z</time>
      </trkpt>
      <trkpt lat="45.15927" lon="5.75177">
        <ele>230</ele>
        <time>2011-05-18T07:51:21Z</time>
      </trkpt>
      <trkpt lat="45.15929" lon="5.75174">
        <ele>230</ele>
        <time>2011-05-18T07:51:22Z</time>
      </trkpt>
      <trkpt lat="45.15931" lon="5.75172">
        <ele>231</ele>
        <time>2011-05-18T07:51:23Z</time>
      </trkpt>
      <trkpt lat="45.15934" lon="5.7517">
        <ele>231</ele>
        <time>2011-05-18T07:51:24Z</time>
      </trkpt>
      <trkpt lat="45.15936" lon="5.75169">
        <ele>231</ele>
        <time>2011-05-18T07:51:25Z</time>
      </trkpt>
      <trkpt lat="45.15938" lon="5.75166">
        <ele>231</ele>
        <time>2011-05-18T07:51:26Z</time>
      </trkpt>
      <trkpt lat="45.1594" lon="5.75164">
        <ele>231</ele>
        <time>2011-05-18T07:51:27Z</time>
      </trkpt>
      <trkpt lat="45.15942" lon="5.75162">
        <ele>232</ele>
        <time>2011-05-18T07:51:28Z</time>
      </trkpt>
      <trkpt lat="45.15941" lon="5.75159">
        <ele>230</ele>
        <time>2011-05-18T07:51:29Z</time>
      </trkpt>
      <trkpt lat="45.15944" lon="5.75155">
        <ele>230</ele>
        <time>2011-05-18T07:51:30Z</time>
      </trkpt>
      <trkpt lat="45.15945" lon="5.75153">
        <ele>230</ele>
        <time>2011-05-18T07:51:31Z</time>
      </trkpt>
      <trkpt lat="45.15947" lon="5.75151">
        <ele>230</ele>
        <time>2011-05-18T07:51:32Z</time>
      </trkpt>
      <trkpt lat="45.15948" lon="5.75148">
        <ele>229</ele>
        <time>2011-05-18T07:51:33Z</time>
      </trkpt>
      <trkpt lat="45.15951" lon="5.75147">
        <ele>229</ele>
        <time>2011-05-18T07:51:34Z</time>
      </trkpt>
      <trkpt lat="45.15953" lon="5.75147">
        <ele>228</ele>
        <time>2011-05-18T07:51:35Z</time>
      </trkpt>
      <trkpt lat="45.15954" lon="5.75146">
        <ele>228</ele>
        <time>2011-05-18T07:51:36Z</time>
      </trkpt>
      <trkpt lat="45.15957" lon="5.75144">
        <ele>227</ele>
        <time>2011-05-18T07:51:37Z</time>
      </trkpt>
      <trkpt lat="45.15959" lon="5.75143">
        <ele>226</ele>
        <time>2011-05-18T07:51:38Z</time>
      </trkpt>
      <trkpt lat="45.15961" lon="5.75141">
        <ele>226</ele>
        <time>2011-05-18T07:51:39Z</time>
      </trkpt>
      <trkpt lat="45.15963" lon="5.75142">
        <ele>225</ele>
        <time>2011-05-18T07:51:40Z</time>
      </trkpt>
      <trkpt lat="45.15966" lon="5.75142">
        <ele>224</ele>
        <time>2011-05-18T07:51:41Z</time>
      </trkpt>
      <trkpt lat="45.15968" lon="5.75141">
        <ele>225</ele>
        <time>2011-05-18T07:51:42Z</time>
      </trkpt>
      <trkpt lat="45.1597" lon="5.75141">
        <ele>225</ele>
        <time>2011-05-18T07:51:43Z</time>
      </trkpt>
      <trkpt lat="45.15971" lon="5.75141">
        <ele>225</ele>
        <time>2011-05-18T07:51:44Z</time>
      </trkpt>
      <trkpt lat="45.15971" lon="5.75142">
        <ele>226</ele>
        <time>2011-05-18T07:51:45Z</time>
      </trkpt>
      <trkpt lat="45.15973" lon="5.75144">
        <ele>226</ele>
        <time>2011-05-18T07:51:46Z</time>
      </trkpt>
      <trkpt lat="45.15974" lon="5.75147">
        <ele>226</ele>
        <time>2011-05-18T07:51:47Z</time>
      </trkpt>
      <trkpt lat="45.15975" lon="5.7515">
        <ele>225</ele>
        <time>2011-05-18T07:51:48Z</time>
      </trkpt>
      <trkpt lat="45.15978" lon="5.75152">
        <ele>226</ele>
        <time>2011-05-18T07:51:49Z</time>
      </trkpt>
      <trkpt lat="45.15981" lon="5.75154">
        <ele>225</ele>
        <time>2011-05-18T07:51:50Z</time>
      </trkpt>
      <trkpt lat="45.15984" lon="5.75154">
        <ele>224</ele>
        <time>2011-05-18T07:51:51Z</time>
      </trkpt>
      <trkpt lat="45.15987" lon="5.75153">
        <ele>223</ele>
        <time>2011-05-18T07:51:52Z</time>
      </trkpt>
      <trkpt lat="45.15989" lon="5.7515">
        <ele>224</ele>
        <time>2011-05-18T07:51:53Z</time>
      </trkpt>
      <trkpt lat="45.15991" lon="5.75148">
        <ele>224</ele>
        <time>2011-05-18T07:51:54Z</time>
      </trkpt>
      <trkpt lat="45.15994" lon="5.75144">
        <ele>225</ele>
        <time>2011-05-18T07:51:55Z</time>
      </trkpt>
      <trkpt lat="45.15995" lon="5.75142">
        <ele>225</ele>
        <time>2011-05-18T07:51:56Z</time>
      </trkpt>
      <trkpt lat="45.15997" lon="5.75139">
        <ele>227</ele>
        <time>2011-05-18T07:51:57Z</time>
      </trkpt>
      <trkpt lat="45.15999" lon="5.75136">
        <ele>225</ele>
        <time>2011-05-18T07:51:58Z</time>
      </trkpt>
      <trkpt lat="45.16" lon="5.75133">
        <ele>225</ele>
        <time>2011-05-18T07:51:59Z</time>
      </trkpt>
      <trkpt lat="45.16002" lon="5.7513">
        <ele>225</ele>
        <time>2011-05-18T07:52:00Z</time>
      </trkpt>
      <trkpt lat="45.16003" lon="5.75126">
        <ele>224</ele>
        <time>2011-05-18T07:52:01Z</time>
      </trkpt>
      <trkpt lat="45.16005" lon="5.75123">
        <ele>224</ele>
        <time>2011-05-18T07:52:02Z</time>
      </trkpt>
      <trkpt lat="45.16007" lon="5.7512">
        <ele>224</ele>
        <time>2011-05-18T07:52:03Z</time>
      </trkpt>
      <trkpt lat="45.16005" lon="5.75119">
        <ele>226</ele>
        <time>2011-05-18T07:52:04Z</time>
      </trkpt>
      <trkpt lat="45.16007" lon="5.75116">
        <ele>226</ele>
        <time>2011-05-18T07:52:05Z</time>
      </trkpt>
      <trkpt lat="45.16009" lon="5.75113">
        <ele>226</ele>
        <time>2011-05-18T07:52:06Z</time>
      </trkpt>
      <trkpt lat="45.1601" lon="5.75111">
        <ele>226</ele>
        <time>2011-05-18T07:52:07Z</time>
      </trkpt>
      <trkpt lat="45.16012" lon="5.75109">
        <ele>225</ele>
        <time>2011-05-18T07:52:08Z</time>
      </trkpt>
      <trkpt lat="45.16012" lon="5.75106">
        <ele>225</ele>
        <time>2011-05-18T07:52:09Z</time>
      </trkpt>
      <trkpt lat="45.16013" lon="5.75105">
        <ele>224</ele>
        <time>2011-05-18T07:52:10Z</time>
      </trkpt>
      <trkpt lat="45.16015" lon="5.75102">
        <ele>224</ele>
        <time>2011-05-18T07:52:11Z</time>
      </trkpt>
      <trkpt lat="45.16016" lon="5.75101">
        <ele>226</ele>
        <time>2011-05-18T07:52:12Z</time>
      </trkpt>
      <trkpt lat="45.16017" lon="5.751">
        <ele>226</ele>
        <time>2011-05-18T07:52:13Z</time>
      </trkpt>
      <trkpt lat="45.16018" lon="5.75097">
        <ele>227</ele>
        <time>2011-05-18T07:52:14Z</time>
      </trkpt>
      <trkpt lat="45.16019" lon="5.75096">
        <ele>227</ele>
        <time>2011-05-18T07:52:15Z</time>
      </trkpt>
      <trkpt lat="45.1602" lon="5.75095">
        <ele>227</ele>
        <time>2011-05-18T07:52:16Z</time>
      </trkpt>
      <trkpt lat="45.16022" lon="5.75093">
        <ele>227</ele>
        <time>2011-05-18T07:52:17Z</time>
      </trkpt>
      <trkpt lat="45.16024" lon="5.7509">
        <ele>227</ele>
        <time>2011-05-18T07:52:18Z</time>
      </trkpt>
      <trkpt lat="45.16028" lon="5.75089">
        <ele>226</ele>
        <time>2011-05-18T07:52:19Z</time>
      </trkpt>
      <trkpt lat="45.16029" lon="5.75086">
        <ele>226</ele>
        <time>2011-05-18T07:52:20Z</time>
      </trkpt>
      <trkpt lat="45.1603" lon="5.75083">
        <ele>225</ele>
        <time>2011-05-18T07:52:21Z</time>
      </trkpt>
      <trkpt lat="45.16031" lon="5.75081">
        <ele>225</ele>
        <time>2011-05-18T07:52:22Z</time>
      </trkpt>
      <trkpt lat="45.16032" lon="5.75079">
        <ele>225</ele>
        <time>2011-05-18T07:52:23Z</time>
      </trkpt>
      <trkpt lat="45.16032" lon="5.75074">
        <ele>225</ele>
        <time>2011-05-18T07:52:24Z</time>
      </trkpt>
      <trkpt lat="45.16033" lon="5.75071">
        <ele>225</ele>
        <time>2011-05-18T07:52:25Z</time>
      </trkpt>
      <trkpt lat="45.16033" lon="5.75067">
        <ele>225</ele>
        <time>2011-05-18T07:52:26Z</time>
      </trkpt>
      <trkpt lat="45.16032" lon="5.75064">
        <ele>226</ele>
        <time>2011-05-18T07:52:27Z</time>
      </trkpt>
      <trkpt lat="45.16032" lon="5.75062">
        <ele>226</ele>
        <time>2011-05-18T07:52:28Z</time>
      </trkpt>
      <trkpt lat="45.16032" lon="5.7506">
        <ele>226</ele>
        <time>2011-05-18T07:52:29Z</time>
      </trkpt>
      <trkpt lat="45.16032" lon="5.75058">
        <ele>226</ele>
        <time>2011-05-18T07:52:30Z</time>
      </trkpt>
      <trkpt lat="45.1603" lon="5.75056">
        <ele>226</ele>
        <time>2011-05-18T07:52:31Z</time>
      </trkpt>
      <trkpt lat="45.16028" lon="5.75053">
        <ele>226</ele>
        <time>2011-05-18T07:52:32Z</time>
      </trkpt>
      <trkpt lat="45.16024" lon="5.7505">
        <ele>225</ele>
        <time>2011-05-18T07:52:33Z</time>
      </trkpt>
      <trkpt lat="45.16022" lon="5.75048">
        <ele>225</ele>
        <time>2011-05-18T07:52:34Z</time>
      </trkpt>
      <trkpt lat="45.16019" lon="5.75045">
        <ele>225</ele>
        <time>2011-05-18T07:52:35Z</time>
      </trkpt>
      <trkpt lat="45.16016" lon="5.75042">
        <ele>225</ele>
        <time>2011-05-18T07:52:36Z</time>
      </trkpt>
      <trkpt lat="45.16013" lon="5.75039">
        <ele>224</ele>
        <time>2011-05-18T07:52:37Z</time>
      </trkpt>
      <trkpt lat="45.16011" lon="5.75037">
        <ele>223</ele>
        <time>2011-05-18T07:52:38Z</time>
      </trkpt>
      <trkpt lat="45.1601" lon="5.75033">
        <ele>224</ele>
        <time>2011-05-18T07:52:39Z</time>
      </trkpt>
      <trkpt lat="45.16009" lon="5.7503">
        <ele>223</ele>
        <time>2011-05-18T07:52:40Z</time>
      </trkpt>
      <trkpt lat="45.16007" lon="5.75026">
        <ele>223</ele>
        <time>2011-05-18T07:52:41Z</time>
      </trkpt>
      <trkpt lat="45.16006" lon="5.75024">
        <ele>222</ele>
        <time>2011-05-18T07:52:42Z</time>
      </trkpt>
      <trkpt lat="45.16006" lon="5.7502">
        <ele>222</ele>
        <time>2011-05-18T07:52:43Z</time>
      </trkpt>
      <trkpt lat="45.16007" lon="5.75014">
        <ele>222</ele>
        <time>2011-05-18T07:52:44Z</time>
      </trkpt>
      <trkpt lat="45.16007" lon="5.75012">
        <ele>223</ele>
        <time>2011-05-18T07:52:45Z</time>
      </trkpt>
      <trkpt lat="45.16007" lon="5.75012">
        <ele>223</ele>
        <time>2011-05-18T07:52:45Z</time>
      </trkpt>
      <trkpt lat="45.16007" lon="5.75006">
        <ele>222</ele>
        <time>2011-05-18T07:52:47Z</time>
      </trkpt>
      <trkpt lat="45.16007" lon="5.75003">
        <ele>221</ele>
        <time>2011-05-18T07:52:48Z</time>
      </trkpt>
      <trkpt lat="45.16007" lon="5.75">
        <ele>221</ele>
        <time>2011-05-18T07:52:49Z</time>
      </trkpt>
      <trkpt lat="45.16007" lon="5.74993">
        <ele>221</ele>
        <time>2011-05-18T07:52:50Z</time>
      </trkpt>
      <trkpt lat="45.16008" lon="5.74991">
        <ele>220</ele>
        <time>2011-05-18T07:52:51Z</time>
      </trkpt>
      <trkpt lat="45.16008" lon="5.74984">
        <ele>220</ele>
        <time>2011-05-18T07:52:52Z</time>
      </trkpt>
      <trkpt lat="45.16009" lon="5.7498">
        <ele>220</ele>
        <time>2011-05-18T07:52:53Z</time>
      </trkpt>
      <trkpt lat="45.1601" lon="5.74972">
        <ele>220</ele>
        <time>2011-05-18T07:52:54Z</time>
      </trkpt>
      <trkpt lat="45.16011" lon="5.74968">
        <ele>219</ele>
        <time>2011-05-18T07:52:55Z</time>
      </trkpt>
      <trkpt lat="45.16013" lon="5.74962">
        <ele>220</ele>
        <time>2011-05-18T07:52:56Z</time>
      </trkpt>
      <trkpt lat="45.16018" lon="5.74956">
        <ele>221</ele>
        <time>2011-05-18T07:52:57Z</time>
      </trkpt>
      <trkpt lat="45.16021" lon="5.74952">
        <ele>221</ele>
        <time>2011-05-18T07:52:58Z</time>
      </trkpt>
      <trkpt lat="45.16024" lon="5.74948">
        <ele>221</ele>
        <time>2011-05-18T07:52:59Z</time>
      </trkpt>
      <trkpt lat="45.16028" lon="5.74945">
        <ele>220</ele>
        <time>2011-05-18T07:53:00Z</time>
      </trkpt>
      <trkpt lat="45.16034" lon="5.74943">
        <ele>222</ele>
        <time>2011-05-18T07:53:01Z</time>
      </trkpt>
      <trkpt lat="45.16035" lon="5.7494">
        <ele>222</ele>
        <time>2011-05-18T07:53:02Z</time>
      </trkpt>
      <trkpt lat="45.16036" lon="5.74938">
        <ele>222</ele>
        <time>2011-05-18T07:53:03Z</time>
      </trkpt>
      <trkpt lat="45.16037" lon="5.74936">
        <ele>222</ele>
        <time>2011-05-18T07:53:04Z</time>
      </trkpt>
      <trkpt lat="45.16037" lon="5.74933">
        <ele>223</ele>
        <time>2011-05-18T07:53:05Z</time>
      </trkpt>
      <trkpt lat="45.16038" lon="5.74931">
        <ele>222</ele>
        <time>2011-05-18T07:53:06Z</time>
      </trkpt>
      <trkpt lat="45.16038" lon="5.74927">
        <ele>222</ele>
        <time>2011-05-18T07:53:07Z</time>
      </trkpt>
      <trkpt lat="45.16038" lon="5.74923">
        <ele>223</ele>
        <time>2011-05-18T07:53:08Z</time>
      </trkpt>
      <trkpt lat="45.16039" lon="5.74918">
        <ele>223</ele>
        <time>2011-05-18T07:53:09Z</time>
      </trkpt>
      <trkpt lat="45.16038" lon="5.74915">
        <ele>223</ele>
        <time>2011-05-18T07:53:10Z</time>
      </trkpt>
      <trkpt lat="45.16036" lon="5.74908">
        <ele>223</ele>
        <time>2011-05-18T07:53:11Z</time>
      </trkpt>
      <trkpt lat="45.16031" lon="5.74903">
        <ele>221</ele>
        <time>2011-05-18T07:53:12Z</time>
      </trkpt>
      <trkpt lat="45.16029" lon="5.74898">
        <ele>221</ele>
        <time>2011-05-18T07:53:13Z</time>
      </trkpt>
      <trkpt lat="45.16028" lon="5.74894">
        <ele>221</ele>
        <time>2011-05-18T07:53:14Z</time>
      </trkpt>
      <trkpt lat="45.16025" lon="5.74889">
        <ele>220</ele>
        <time>2011-05-18T07:53:15Z</time>
      </trkpt>
      <trkpt lat="45.16022" lon="5.74886">
        <ele>219</ele>
        <time>2011-05-18T07:53:16Z</time>
      </trkpt>
      <trkpt lat="45.1602" lon="5.74881">
        <ele>220</ele>
        <time>2011-05-18T07:53:17Z</time>
      </trkpt>
      <trkpt lat="45.16017" lon="5.74877">
        <ele>219</ele>
        <time>2011-05-18T07:53:18Z</time>
      </trkpt>
      <trkpt lat="45.16016" lon="5.74874">
        <ele>219</ele>
        <time>2011-05-18T07:53:19Z</time>
      </trkpt>
      <trkpt lat="45.16015" lon="5.7487">
        <ele>219</ele>
        <time>2011-05-18T07:53:20Z</time>
      </trkpt>
      <trkpt lat="45.16013" lon="5.74868">
        <ele>220</ele>
        <time>2011-05-18T07:53:21Z</time>
      </trkpt>
      <trkpt lat="45.16011" lon="5.74867">
        <ele>220</ele>
        <time>2011-05-18T07:53:22Z</time>
      </trkpt>
      <trkpt lat="45.16011" lon="5.74864">
        <ele>220</ele>
        <time>2011-05-18T07:53:23Z</time>
      </trkpt>
      <trkpt lat="45.16009" lon="5.74861">
        <ele>220</ele>
        <time>2011-05-18T07:53:24Z</time>
      </trkpt>
      <trkpt lat="45.16007" lon="5.74858">
        <ele>219</ele>
        <time>2011-05-18T07:53:25Z</time>
      </trkpt>
      <trkpt lat="45.16005" lon="5.74853">
        <ele>219</ele>
        <time>2011-05-18T07:53:26Z</time>
      </trkpt>
      <trkpt lat="45.16006" lon="5.74849">
        <ele>219</ele>
        <time>2011-05-18T07:53:27Z</time>
      </trkpt>
      <trkpt lat="45.16005" lon="5.74846">
        <ele>219</ele>
        <time>2011-05-18T07:53:28Z</time>
      </trkpt>
      <trkpt lat="45.16005" lon="5.7484">
        <ele>218</ele>
        <time>2011-05-18T07:53:29Z</time>
      </trkpt>
      <trkpt lat="45.16002" lon="5.74836">
        <ele>218</ele>
        <time>2011-05-18T07:53:30Z</time>
      </trkpt>
      <trkpt lat="45.15999" lon="5.74831">
        <ele>219</ele>
        <time>2011-05-18T07:53:31Z</time>
      </trkpt>
      <trkpt lat="45.15996" lon="5.74825">
        <ele>220</ele>
        <time>2011-05-18T07:53:32Z</time>
      </trkpt>
      <trkpt lat="45.15994" lon="5.74822">
        <ele>220</ele>
        <time>2011-05-18T07:53:33Z</time>
      </trkpt>
      <trkpt lat="45.15993" lon="5.74815">
        <ele>221</ele>
        <time>2011-05-18T07:53:34Z</time>
      </trkpt>
      <trkpt lat="45.15993" lon="5.74811">
        <ele>220</ele>
        <time>2011-05-18T07:53:35Z</time>
      </trkpt>
      <trkpt lat="45.15992" lon="5.74806">
        <ele>219</ele>
        <time>2011-05-18T07:53:36Z</time>
      </trkpt>
      <trkpt lat="45.15991" lon="5.74803">
        <ele>219</ele>
        <time>2011-05-18T07:53:37Z</time>
      </trkpt>
      <trkpt lat="45.15991" lon="5.74799">
        <ele>220</ele>
        <time>2011-05-18T07:53:38Z</time>
      </trkpt>
      <trkpt lat="45.15991" lon="5.74797">
        <ele>220</ele>
        <time>2011-05-18T07:53:39Z</time>
      </trkpt>
      <trkpt lat="45.1599" lon="5.74793">
        <ele>220</ele>
        <time>2011-05-18T07:53:40Z</time>
      </trkpt>
      <trkpt lat="45.1599" lon="5.74786">
        <ele>220</ele>
        <time>2011-05-18T07:53:41Z</time>
      </trkpt>
      <trkpt lat="45.15991" lon="5.74781">
        <ele>220</ele>
        <time>2011-05-18T07:53:42Z</time>
      </trkpt>
      <trkpt lat="45.1599" lon="5.74777">
        <ele>220</ele>
        <time>2011-05-18T07:53:43Z</time>
      </trkpt>
      <trkpt lat="45.15989" lon="5.74773">
        <ele>221</ele>
        <time>2011-05-18T07:53:44Z</time>
      </trkpt>
      <trkpt lat="45.15988" lon="5.74769">
        <ele>221</ele>
        <time>2011-05-18T07:53:45Z</time>
      </trkpt>
      <trkpt lat="45.15987" lon="5.74766">
        <ele>221</ele>
        <time>2011-05-18T07:53:46Z</time>
      </trkpt>
      <trkpt lat="45.15986" lon="5.74763">
        <ele>222</ele>
        <time>2011-05-18T07:53:47Z</time>
      </trkpt>
      <trkpt lat="45.15984" lon="5.74761">
        <ele>224</ele>
        <time>2011-05-18T07:53:48Z</time>
      </trkpt>
      <trkpt lat="45.15981" lon="5.74759">
        <ele>224</ele>
        <time>2011-05-18T07:53:49Z</time>
      </trkpt>
      <trkpt lat="45.15979" lon="5.74759">
        <ele>225</ele>
        <time>2011-05-18T07:53:50Z</time>
      </trkpt>
      <trkpt lat="45.15978" lon="5.74758">
        <ele>225</ele>
        <time>2011-05-18T07:53:51Z</time>
      </trkpt>
      <trkpt lat="45.15974" lon="5.74753">
        <ele>228</ele>
        <time>2011-05-18T07:53:52Z</time>
      </trkpt>
      <trkpt lat="45.15971" lon="5.7475">
        <ele>229</ele>
        <time>2011-05-18T07:53:53Z</time>
      </trkpt>
      <trkpt lat="45.15968" lon="5.74749">
        <ele>230</ele>
        <time>2011-05-18T07:53:54Z</time>
      </trkpt>
      <trkpt lat="45.15965" lon="5.74746">
        <ele>230</ele>
        <time>2011-05-18T07:53:55Z</time>
      </trkpt>
      <trkpt lat="45.15963" lon="5.74743">
        <ele>231</ele>
        <time>2011-05-18T07:53:56Z</time>
      </trkpt>
      <trkpt lat="45.1596" lon="5.74743">
        <ele>231</ele>
        <time>2011-05-18T07:53:57Z</time>
      </trkpt>
      <trkpt lat="45.15958" lon="5.74741">
        <ele>232</ele>
        <time>2011-05-18T07:53:58Z</time>
      </trkpt>
      <trkpt lat="45.15954" lon="5.74742">
        <ele>232</ele>
        <time>2011-05-18T07:53:59Z</time>
      </trkpt>
      <trkpt lat="45.15952" lon="5.74741">
        <ele>232</ele>
        <time>2011-05-18T07:54:00Z</time>
      </trkpt>
      <trkpt lat="45.15949" lon="5.7474">
        <ele>231</ele>
        <time>2011-05-18T07:54:01Z</time>
      </trkpt>
      <trkpt lat="45.15948" lon="5.74738">
        <ele>230</ele>
        <time>2011-05-18T07:54:02Z</time>
      </trkpt>
      <trkpt lat="45.15947" lon="5.74735">
        <ele>230</ele>
        <time>2011-05-18T07:54:03Z</time>
      </trkpt>
      <trkpt lat="45.15946" lon="5.74733">
        <ele>230</ele>
        <time>2011-05-18T07:54:04Z</time>
      </trkpt>
      <trkpt lat="45.15946" lon="5.74732">
        <ele>231</ele>
        <time>2011-05-18T07:54:05Z</time>
      </trkpt>
      <trkpt lat="45.15945" lon="5.74731">
        <ele>232</ele>
        <time>2011-05-18T07:54:06Z</time>
      </trkpt>
      <trkpt lat="45.15946" lon="5.74728">
        <ele>232</ele>
        <time>2011-05-18T07:54:07Z</time>
      </trkpt>
      <trkpt lat="45.15947" lon="5.74724">
        <ele>232</ele>
        <time>2011-05-18T07:54:08Z</time>
      </trkpt>
      <trkpt lat="45.15947" lon="5.74721">
        <ele>233</ele>
        <time>2011-05-18T07:54:09Z</time>
      </trkpt>
      <trkpt lat="45.15948" lon="5.74719">
        <ele>234</ele>
        <time>2011-05-18T07:54:10Z</time>
      </trkpt>
      <trkpt lat="45.1595" lon="5.74716">
        <ele>233</ele>
        <time>2011-05-18T07:54:11Z</time>
      </trkpt>
      <trkpt lat="45.1595" lon="5.74712">
        <ele>233</ele>
        <time>2011-05-18T07:54:12Z</time>
      </trkpt>
      <trkpt lat="45.1595" lon="5.74709">
        <ele>235</ele>
        <time>2011-05-18T07:54:13Z</time>
      </trkpt>
      <trkpt lat="45.1595" lon="5.74709">
        <ele>235</ele>
        <time>2011-05-18T07:54:13Z</time>
      </trkpt>
      <trkpt lat="45.15952" lon="5.74706">
        <ele>238</ele>
        <time>2011-05-18T07:54:15Z</time>
      </trkpt>
      <trkpt lat="45.15952" lon="5.74705">
        <ele>238</ele>
        <time>2011-05-18T07:54:16Z</time>
      </trkpt>
      <trkpt lat="45.15952" lon="5.74705">
        <ele>239</ele>
        <time>2011-05-18T07:54:17Z</time>
      </trkpt>
      <trkpt lat="45.15951" lon="5.74704">
        <ele>240</ele>
        <time>2011-05-18T07:54:18Z</time>
      </trkpt>
      <trkpt lat="45.15951" lon="5.74704">
        <ele>240</ele>
        <time>2011-05-18T07:54:19Z</time>
      </trkpt>
      <trkpt lat="45.15951" lon="5.74704">
        <ele>241</ele>
        <time>2011-05-18T07:54:20Z</time>
      </trkpt>
      <trkpt lat="45.15951" lon="5.74704">
        <ele>241</ele>
        <time>2011-05-18T07:54:21Z</time>
      </trkpt>
      <trkpt lat="45.15951" lon="5.74703">
        <ele>241</ele>
        <time>2011-05-18T07:54:22Z</time>
      </trkpt>
      <trkpt lat="45.15951" lon="5.74703">
        <ele>241</ele>
        <time>2011-05-18T07:54:23Z</time>
      </trkpt>
      <trkpt lat="45.1595" lon="5.74703">
        <ele>242</ele>
        <time>2011-05-18T07:54:24Z</time>
      </trkpt>
      <trkpt lat="45.1595" lon="5.74702">
        <ele>242</ele>
        <time>2011-05-18T07:54:25Z</time>
      </trkpt>
    </trkseg>
  </trk>
</gpx>